[[{"header":{"parameterUnit":"m.s-1","parameterCategory":1,"la1":30.6,"la2":29.2853,"lo1":-89.7004,"lo2":-87.6739,"dy":0.0162,"dx":0.0183,"nx":112,"ny":82,"refTime":"2024-08-04T06:00:00:Z","depth":0,"parameterNumber":2,"parameterNumberName":"U-component_of_WINDS"},"data":[0.0,0.0,0.0,0.0,0.0,0.0,0.0,0.0,0.0,0.0,0.0,0.0,0.0,0.0,0.0,0.0,0.0,0.0,0.0,0.0,0.0,0.0,0.0,0.0,0.0,0.0,0.0,0.0,0.0,0.0,0.0,0.0,0.0,0.0,0.0,0.0,0.0,0.0,0.0,0.0,0.0,0.0,0.0,0.0,0.0,0.0,0.0,0.0,0.0,0.0,0.0,0.0,0.0,0.0,0.0,0.0,0.0,0.0,0.0,0.0,0.0,0.0,0.0,0.0,0.0,0.0,0.0,0.0,0.0,0.0,0.0,0.0,0.0,0.0,0.0,0.0,0.0,0.0,0.0,0.0,0.0,0.0,0.0,0.0,0.0,0.0,0.0,0.0,0.0,0.0,0.0,3.2461,3.5,3.6507,3.6507,3.6384,3.4949,3.1806,0.0,0.0,0.0,0.0,0.0,0.0,0.0,0.0,0.0,0.0,0.0,0.0,0.0,0.0,0.0,0.0,0.0,0.0,0.0,0.0,0.0,0.0,0.0,0.0,0.0,0.0,0.0,0.0,0.0,0.0,0.0,0.0,0.0,0.0,0.0,0.0,0.0,0.0,0.0,0.0,0.0,0.0,0.0,0.0,0.0,0.0,0.0,0.0,0.0,0.0,0.0,0.0,0.0,0.0,0.0,0.0,0.0,0.0,0.0,0.0,0.0,0.0,0.0,0.0,0.0,0.0,0.0,0.0,0.0,0.0,0.0,0.0,0.0,0.0,0.0,0.0,0.0,0.0,0.0,0.0,0.0,0.0,0.0,0.0,0.0,0.0,0.0,0.0,0.0,0.0,0.0,0.0,0.0,0.0,0.0,0.0,0.0,0.0,0.0,0.0,0.0,0.0,0.0,0.0,2.9399,3.4475,3.5891,3.6507,3.6507,3.5953,3.4509,3.1774,0.0,0.0,0.0,0.0,0.0,0.0,0.0,0.0,0.0,0.0,0.0,0.0,0.0,0.0,0.0,0.0,0.0,0.0,0.0,0.0,0.0,0.0,0.0,0.0,0.0,0.0,0.0,0.0,0.0,0.0,0.0,0.0,0.0,0.0,0.0,0.0,0.0,0.0,0.0,0.0,0.0,0.0,0.0,0.0,0.0,0.0,0.0,0.0,0.0,0.0,0.0,0.0,0.0,0.0,0.0,0.0,0.0,0.0,0.0,0.0,0.0,0.0,0.0,0.0,0.0,0.0,0.0,0.0,0.0,0.0,0.0,0.0,0.0,0.0,0.0,0.0,0.0,0.0,0.0,0.0,0.0,0.0,0.0,0.0,0.0,0.0,0.0,0.0,0.0,0.0,0.0,0.0,0.0,0.0,0.0,0.0,0.0,0.0,0.0,0.0,0.0,0.0,0.0,2.8606,3.145,3.5462,3.623,3.6507,3.6507,3.5861,3.4302,3.1431,2.9749,0.0,0.0,0.0,0.0,0.0,0.0,0.0,0.0,0.0,0.0,0.0,0.0,0.0,0.0,0.0,0.0,0.0,0.0,0.0,0.0,0.0,0.0,0.0,0.0,0.0,0.0,0.0,0.0,0.0,0.0,0.0,0.0,0.0,0.0,0.0,0.0,0.0,0.0,0.0,0.0,0.0,0.0,0.0,0.0,0.0,0.0,0.0,0.0,0.0,0.0,0.0,0.0,0.0,0.0,0.0,0.0,0.0,0.0,0.0,0.0,0.0,0.0,0.0,0.0,0.0,0.0,0.0,0.0,0.0,0.0,0.0,0.0,0.0,0.0,0.0,0.0,0.0,0.0,0.0,0.0,0.0,0.0,0.0,0.0,0.0,0.0,0.0,0.0,0.0,0.0,0.0,0.0,0.0,0.0,0.0,0.0,0.0,0.0,0.0,0.0,0.0,0.0,3.1688,3.3508,3.5951,3.6352,3.6507,3.6507,3.543,3.3599,3.093,2.864,0.0,0.0,0.0,0.0,0.0,0.0,0.0,0.0,0.0,0.0,0.0,0.0,0.0,0.0,0.0,0.0,0.0,0.0,0.0,0.0,0.0,0.0,0.0,0.0,0.0,0.0,0.0,0.0,0.0,0.0,0.0,0.0,0.0,0.0,0.0,0.0,0.0,0.0,0.0,0.0,0.0,0.0,0.0,0.0,0.0,0.0,0.0,0.0,0.0,0.0,0.0,0.0,0.0,0.0,0.0,0.0,0.0,0.0,0.0,0.0,0.0,0.0,0.0,0.0,0.0,0.0,0.0,0.0,0.0,0.0,0.0,0.0,0.0,0.0,0.0,0.0,0.0,0.0,0.0,0.0,0.0,0.0,0.0,0.0,0.0,0.0,0.0,0.0,0.0,0.0,0.0,0.0,0.0,0.0,0.0,0.0,0.0,0.0,0.0,0.0,0.0,0.0,3.1819,3.4455,3.6043,3.6352,3.6507,3.6507,3.4106,3.192,3.0176,2.6586,0.0,0.0,0.0,0.0,0.0,0.0,0.0,0.0,0.0,0.0,0.0,0.0,0.0,0.0,0.0,0.0,0.0,0.0,0.0,0.0,0.0,0.0,0.0,0.0,0.0,0.0,0.0,0.0,0.0,0.0,0.0,0.0,0.0,0.0,0.0,0.0,0.0,0.0,0.0,0.0,0.0,0.0,0.0,0.0,0.0,0.0,0.0,0.0,0.0,0.0,0.0,0.0,0.0,0.0,0.0,0.0,0.0,0.0,0.0,0.0,0.0,0.0,0.0,0.0,0.0,0.0,0.0,0.0,0.0,0.0,0.0,0.0,0.0,0.0,0.0,0.0,0.0,0.0,0.0,0.0,0.0,0.0,0.0,0.0,0.0,0.0,0.0,0.0,0.0,0.0,0.0,0.0,0.0,0.0,0.0,0.0,0.0,0.0,0.0,0.0,0.0,0.0,3.1177,3.3663,0.0,3.6352,3.6507,3.6507,3.4783,3.253,2.9782,0.0,0.0,0.0,0.0,0.0,0.0,0.0,0.0,0.0,0.0,0.0,0.0,0.0,0.0,0.0,0.0,0.0,0.0,0.0,0.0,0.0,0.0,0.0,0.0,0.0,0.0,0.0,0.0,0.0,0.0,0.0,0.0,0.0,0.0,0.0,0.0,0.0,0.0,0.0,0.0,0.0,0.0,0.0,0.0,0.0,0.0,0.0,0.0,0.0,0.0,0.0,0.0,0.0,0.0,0.0,0.0,0.0,0.0,0.0,0.0,0.0,0.0,0.0,0.0,0.0,0.0,0.0,0.0,0.0,0.0,0.0,0.0,0.0,0.0,0.0,0.0,0.0,0.0,0.0,0.0,0.0,0.0,0.0,0.0,0.0,0.0,0.0,0.0,0.0,0.0,0.0,0.0,0.0,0.0,0.0,0.0,0.0,0.0,0.0,0.0,0.0,0.0,2.8441,3.1364,3.3756,0.0,3.6163,3.6352,3.6352,3.4542,3.2204,2.9173,0.0,0.0,0.0,0.0,0.0,0.0,0.0,0.0,0.0,0.0,0.0,0.0,0.0,0.0,0.0,0.0,0.0,0.0,0.0,0.0,0.0,0.0,0.0,0.0,0.0,0.0,0.0,0.0,0.0,0.0,0.0,0.0,0.0,0.0,0.0,0.0,0.0,0.0,0.0,0.0,0.0,0.0,0.0,0.0,0.0,0.0,0.0,0.0,0.0,0.0,0.0,0.0,0.0,0.0,0.0,0.0,0.0,0.0,0.0,0.0,0.0,0.0,0.0,0.0,0.0,0.0,0.0,0.0,0.0,0.0,0.0,0.0,0.0,0.0,0.0,0.0,0.0,0.0,0.0,0.0,0.0,0.0,0.0,0.0,0.0,0.0,0.0,0.0,0.0,0.0,0.0,0.0,0.0,0.0,0.0,0.0,0.0,0.0,0.0,0.0,0.0,0.0,2.9199,3.2615,3.4964,3.5627,3.591,3.5973,3.5973,3.3054,3.0334,0.0,0.0,0.0,0.0,0.0,0.0,0.0,0.0,0.0,0.0,0.0,0.0,0.0,0.0,0.0,0.0,0.0,0.0,0.0,0.0,0.0,0.0,0.0,0.0,0.0,0.0,0.0,0.0,0.0,0.0,0.0,0.0,0.0,0.0,0.0,0.0,0.0,0.0,0.0,0.0,0.0,0.0,0.0,0.0,0.0,0.0,0.0,0.0,0.0,0.0,0.0,0.0,0.0,0.0,0.0,0.0,0.0,0.0,0.0,0.0,0.0,0.0,0.0,0.0,0.0,0.0,0.0,0.0,0.0,0.0,0.0,0.0,0.0,0.0,0.0,0.0,0.0,0.0,0.0,0.0,0.0,0.0,0.0,0.0,0.0,0.0,0.0,0.0,0.0,0.0,0.0,0.0,0.0,0.0,0.0,0.0,0.0,0.0,0.0,0.0,0.0,0.0,0.0,2.9092,3.2109,3.4362,3.5533,3.591,3.6037,3.6133,3.4363,3.1855,2.8498,0.0,0.0,0.0,0.0,0.0,0.0,0.0,0.0,0.0,0.0,0.0,0.0,0.0,0.0,0.0,0.0,0.0,0.0,0.0,0.0,0.0,0.0,0.0,0.0,0.0,0.0,0.0,0.0,0.0,0.0,0.0,0.0,0.0,0.0,0.0,0.0,0.0,0.0,0.0,0.0,0.0,0.0,0.0,0.0,0.0,0.0,0.0,0.0,0.0,0.0,0.0,0.0,0.0,0.0,0.0,0.0,0.0,0.0,0.0,0.0,0.0,0.0,0.0,0.0,0.0,0.0,0.0,0.0,0.0,0.0,0.0,0.0,0.0,0.0,0.0,0.0,0.0,0.0,0.0,0.0,0.0,0.0,0.0,0.0,0.0,0.0,0.0,0.0,0.0,0.0,0.0,0.0,0.0,0.0,0.0,0.0,0.0,0.0,0.0,0.0,0.0,0.0,2.9152,3.2073,3.4303,3.5464,3.5718,3.5846,3.591,3.5033,3.2959,2.9225,0.0,0.0,0.0,0.0,0.0,0.0,0.0,0.0,0.0,0.0,0.0,0.0,0.0,0.0,0.0,0.0,0.0,0.0,0.0,0.0,0.0,0.0,0.0,0.0,0.0,0.0,0.0,0.0,0.0,0.0,0.0,0.0,0.0,0.0,0.0,0.0,0.0,0.0,0.0,0.0,0.0,0.0,0.0,0.0,0.0,0.0,0.0,0.0,0.0,0.0,0.0,0.0,0.0,0.0,0.0,0.0,0.0,0.0,0.0,0.0,0.0,0.0,0.0,0.0,0.0,0.0,0.0,0.0,0.0,0.0,0.0,0.0,0.0,0.0,0.0,0.0,0.0,0.0,0.0,0.0,0.0,0.0,0.0,0.0,0.0,0.0,0.0,0.0,0.0,0.0,0.0,0.0,0.0,0.0,0.0,0.0,0.0,0.0,0.0,0.0,0.0,0.0,2.9223,3.2269,3.4476,3.5294,3.5424,3.5519,3.5489,3.5178,3.3516,3.0189,0.0,0.0,0.0,0.0,0.0,0.0,0.0,0.0,0.0,0.0,0.0,0.0,0.0,0.0,0.0,0.0,0.0,0.0,0.0,0.0,0.0,0.0,0.0,0.0,0.0,0.0,0.0,0.0,0.0,0.0,0.0,0.0,0.0,0.0,0.0,0.0,0.0,0.0,0.0,0.0,0.0,0.0,0.0,0.0,0.0,0.0,0.0,0.0,0.0,0.0,0.0,0.0,0.0,0.0,0.0,0.0,0.0,0.0,0.0,0.0,2.519,0.0,0.0,0.0,0.0,0.0,0.0,0.0,0.0,0.0,0.0,0.0,0.0,0.0,0.0,0.0,0.0,0.0,0.0,0.0,0.0,0.0,0.0,0.0,0.0,0.0,0.0,0.0,0.0,0.0,0.0,0.0,0.0,0.0,0.0,0.0,0.0,0.0,0.0,0.0,0.0,0.0,2.9001,3.174,3.3699,3.4476,3.5133,3.5554,3.5653,3.5115,3.3608,3.0849,2.8718,0.0,0.0,0.0,0.0,0.0,0.0,0.0,0.0,0.0,0.0,0.0,0.0,0.0,0.0,0.0,0.0,0.0,0.0,0.0,0.0,0.0,0.0,0.0,0.0,0.0,0.0,0.0,0.0,0.0,0.0,0.0,0.0,0.0,0.0,0.0,0.0,0.0,0.0,0.0,0.0,0.0,0.0,0.0,0.0,0.0,0.0,0.0,0.0,0.0,0.0,0.0,0.0,0.0,0.0,0.0,0.0,0.0,0.0,0.0,0.0,2.7072,0.0,0.0,0.0,0.0,0.0,0.0,0.0,0.0,0.0,0.0,0.0,0.0,0.0,0.0,0.0,0.0,0.0,0.0,0.0,0.0,0.0,0.0,0.0,0.0,0.0,0.0,0.0,0.0,0.0,0.0,0.0,0.0,0.0,0.0,0.0,0.0,0.0,0.0,0.0,0.0,2.8958,3.1271,3.3043,3.4098,3.4651,3.4971,3.5139,3.5259,3.4516,3.2627,3.0975,0.0,0.0,0.0,0.0,0.0,0.0,0.0,0.0,0.0,0.0,0.0,0.0,0.0,0.0,0.0,0.0,0.0,0.0,0.0,0.0,0.0,0.0,0.0,0.0,0.0,0.0,0.0,0.0,0.0,0.0,0.0,0.0,0.0,0.0,0.0,0.0,0.0,0.0,0.0,0.0,0.0,0.0,0.0,0.0,0.0,0.0,0.0,0.0,0.0,0.0,0.0,0.0,0.0,3.3744,3.4345,3.5155,3.526,3.5626,3.5992,3.2568,3.1461,3.199,0.0,0.0,0.0,0.0,0.0,0.0,0.0,0.0,0.0,0.0,0.0,0.0,0.0,0.0,0.0,0.0,0.0,0.0,0.0,0.0,0.0,0.0,0.0,0.0,0.0,2.9614,2.9797,0.0,0.0,0.0,0.0,0.0,0.0,0.0,0.0,0.0,0.0,0.0,0.0,2.9295,3.1158,3.27,3.3935,3.4171,3.4351,3.4486,3.5264,3.5238,3.4152,3.3142,3.1481,0.0,0.0,0.0,0.0,0.0,0.0,0.0,0.0,0.0,0.0,0.0,0.0,0.0,0.0,0.0,0.0,0.0,0.0,0.0,0.0,0.0,0.0,0.0,0.0,0.0,0.0,0.0,0.0,0.0,0.0,0.0,0.0,2.159,2.3341,0.0,0.0,0.0,0.0,0.0,0.0,0.0,0.0,0.0,0.0,0.0,0.0,0.0,3.3378,3.4371,3.6123,3.6802,3.6462,3.7978,3.8501,3.8161,3.8684,3.9233,3.9677,3.8684,0.0,3.396,3.2528,0.0,0.0,0.0,0.0,0.0,0.0,0.0,0.0,0.0,0.0,0.0,0.0,0.0,0.0,0.0,0.0,0.0,0.0,0.0,0.0,0.0,0.0,3.2646,3.215,3.2594,3.2855,0.0,2.8412,2.5511,2.5197,2.3472,0.0,0.0,0.0,0.0,0.0,0.0,0.0,3.0404,3.2046,3.3105,3.3778,3.4029,3.4143,3.4143,3.4427,3.4222,3.3521,3.3449,3.2735,3.1343,2.9388,0.0,0.0,0.0,0.0,0.0,0.0,0.0,0.0,0.0,0.0,0.0,0.0,0.0,0.0,0.0,0.0,0.0,0.0,0.0,0.0,0.0,0.0,0.0,0.0,0.0,0.0,0.0,0.0,0.0,2.1825,2.3968,2.538,2.5667,2.5049,0.0,0.0,0.0,0.0,0.0,0.0,0.0,0.0,0.0,3.4659,3.5574,3.6698,3.8161,3.9259,4.0017,4.0409,4.1167,4.1376,4.1141,4.1063,4.1167,4.1376,4.0801,3.952,3.7612,3.6002,3.402,3.2035,0.0,0.0,0.0,0.0,3.2332,3.1784,3.3257,3.3298,0.0,3.131,0.0,0.0,0.0,0.0,0.0,0.0,0.0,0.0,0.0,0.0,0.0,3.4136,3.458,3.492,3.4659,3.2515,3.0163,0.0,2.7183,2.5563,2.3341,0.0,0.0,0.0,0.0,0.0,3.0732,3.2031,3.3063,3.3595,3.3865,3.401,3.4057,3.4199,3.4445,3.4861,3.4569,3.4205,3.3696,3.2088,3.0145,0.0,0.0,0.0,0.0,0.0,0.0,0.0,0.0,0.0,0.0,0.0,0.0,0.0,0.0,0.0,0.0,0.0,0.0,0.0,0.0,0.0,0.0,0.0,0.0,0.0,0.0,0.0,0.0,2.4439,2.6504,2.7628,2.9039,2.9196,0.0,0.0,0.0,0.0,0.0,0.0,3.6607,3.596,3.6227,3.7821,3.8475,3.939,4.0644,4.1089,4.1742,4.2579,4.2579,4.2579,4.2579,4.2134,4.1951,4.1925,4.1507,4.1063,4.0488,3.8754,3.699,3.5319,3.5628,3.4847,3.3858,3.6033,3.6171,3.5538,3.7357,3.752,3.6567,3.5312,0.0,3.2359,3.0346,0.0,0.0,0.0,0.0,3.228,3.3143,3.4214,3.5129,3.5443,3.594,3.6305,3.6149,3.5443,3.411,0.0,3.0529,2.9065,2.6347,0.0,0.0,0.0,0.0,2.9666,3.1418,3.2385,3.3143,3.3744,3.3807,3.3826,3.3954,3.3974,3.4399,3.531,3.4932,3.4706,3.4808,3.3819,3.2225,3.003,0.0,0.0,0.0,0.0,0.0,0.0,0.0,0.0,0.0,0.0,0.0,0.0,0.0,0.0,0.0,0.0,0.0,0.0,0.0,0.0,0.0,0.0,0.0,0.0,0.0,0.0,0.0,0.0,0.0,3.0634,3.2751,0.0,0.0,0.0,0.0,3.2385,3.3509,3.4972,3.6865,3.79,3.9024,4.02,4.0827,4.1193,4.1272,4.1298,4.135,4.1402,4.1402,4.1402,4.1402,4.1376,4.135,4.135,4.1324,4.1298,4.1167,3.9965,3.8789,3.7756,3.7899,3.7084,3.614,3.7531,3.7883,3.7691,3.7913,3.8161,3.8579,3.8475,3.6933,3.5182,3.5574,3.4162,0.0,0.0,3.4162,3.5103,3.5155,3.6018,3.6724,3.6201,3.6515,3.6802,3.6227,3.6044,3.5652,0.0,3.2855,3.1496,3.0764,0.0,3.0006,3.0555,3.0764,3.1496,3.3221,3.3509,3.3744,3.4293,3.3875,3.3616,3.3616,3.3319,3.3219,3.3605,3.3409,3.3492,3.3876,3.3541,3.24,3.0418,2.9778,0.0,0.0,0.0,0.0,0.0,0.0,0.0,0.0,0.0,0.0,0.0,0.0,0.0,0.0,0.0,0.0,0.0,0.0,0.0,0.0,0.0,0.0,0.0,0.0,0.0,0.0,0.0,0.0,3.4005,3.5338,0.0,0.0,3.4999,3.5626,3.6018,3.7116,3.8344,3.9703,4.0514,4.1298,4.2082,4.2291,4.2579,4.2971,4.2971,4.3154,4.352,4.352,4.352,4.3493,4.3127,4.2971,4.2918,4.2186,4.1873,4.1794,4.1036,4.0461,4.0069,4.0123,3.9675,3.8945,3.9807,3.9843,3.9573,3.9965,3.9965,3.9756,3.939,3.8475,3.7534,3.7717,3.722,3.6619,3.6828,3.7168,3.7508,3.7508,3.7534,3.7534,3.7299,3.7429,3.7534,3.7299,3.6959,3.6567,3.6149,3.4972,3.377,3.2829,3.2489,3.2306,3.2123,3.2698,3.3404,3.4031,3.445,3.4607,3.4424,3.4214,3.411,3.411,3.3278,3.3108,3.3841,3.3128,3.2932,3.3589,3.35,3.2851,3.1573,3.0586,2.8598,0.0,0.0,0.0,0.0,0.0,0.0,0.0,0.0,0.0,0.0,0.0,0.0,0.0,0.0,0.0,0.0,0.0,0.0,0.0,0.0,0.0,0.0,0.0,0.0,0.0,0.0,3.4214,3.5913,3.7508,3.8083,3.709,3.8057,3.8919,3.9311,4.0226,4.1089,4.1847,4.2239,4.2709,4.3284,4.3127,4.3284,4.3859,4.3676,4.3781,4.4147,4.4147,4.4147,4.4147,4.3755,4.3598,4.3546,4.2788,4.2448,4.2422,4.1847,4.1611,4.1585,4.1402,4.1063,4.0775,4.1167,4.1063,4.0775,4.1167,4.1063,4.0671,4.0305,3.9782,3.9285,3.9285,3.9155,3.9024,3.9024,3.9024,3.9024,3.9024,3.8606,3.8161,3.8161,3.8031,3.79,3.79,3.7586,3.7299,3.7299,3.6358,3.5338,3.458,3.4424,3.4293,3.3901,3.4476,3.4972,3.4972,3.5312,3.5338,3.4763,3.4711,3.4633,3.4424,3.3352,3.2988,3.3815,3.2604,3.2245,3.2818,3.2947,3.2638,3.1834,3.062,2.9139,2.7511,0.0,0.0,0.0,0.0,0.0,0.0,0.0,0.0,0.0,0.0,0.0,0.0,0.0,0.0,0.0,0.0,0.0,0.0,0.0,0.0,0.0,0.0,0.0,3.1209,3.458,3.6854,3.6332,3.9259,4.0671,3.8972,4.0853,4.2186,4.2186,4.2709,4.3023,4.3049,4.3049,4.331,4.3885,4.3363,4.3337,4.3885,4.3363,4.3075,4.3075,4.3075,4.3075,4.3101,4.3075,4.3075,4.3101,4.3075,4.3049,4.2997,4.2422,4.2186,4.2134,4.1533,4.1324,4.1324,4.1324,4.1324,4.1324,4.1324,4.1324,4.1324,4.1324,4.0906,4.0435,4.0435,4.0069,3.9651,3.9651,3.9651,3.9625,3.9625,3.9181,3.8736,3.8736,3.8344,3.7952,3.7926,3.7926,3.7926,3.79,3.6959,3.6149,3.6149,3.6149,3.6149,3.6149,3.6149,0.0,3.6123,3.6123,3.5913,3.5391,3.5312,3.5077,3.4476,3.3378,3.2883,3.3276,3.1856,3.1198,3.1596,3.1983,3.1861,3.1118,2.9986,2.9366,2.931,0.0,0.0,0.0,0.0,0.0,0.0,0.0,0.0,0.0,0.0,0.0,0.0,0.0,0.0,0.0,0.0,0.0,0.0,0.0,0.0,0.0,0.0,3.5992,3.5992,3.7299,3.8658,3.9756,4.1089,4.1742,4.1272,4.216,4.2788,4.2788,4.2944,4.3206,4.3624,4.3624,4.3912,4.446,4.433,4.433,4.4487,4.433,4.4251,4.4251,4.4251,4.4487,4.4905,4.446,4.4487,4.4853,4.4016,4.3624,4.3598,4.3023,4.2788,4.2683,4.1716,4.1324,4.1324,4.1324,4.1324,4.1324,4.1324,4.1324,4.1324,4.1324,4.1219,4.1063,4.1063,4.0958,4.0853,4.0853,4.054,4.02,4.02,3.9782,3.9364,3.9364,3.9259,3.9024,3.8579,3.8475,3.837,3.7978,3.7639,3.7403,3.7403,3.7037,3.6907,3.7351,3.7037,0.0,3.675,3.675,3.6541,3.594,3.5887,3.5652,3.5103,3.4005,3.3249,3.2883,3.1703,3.1232,3.1727,3.1872,3.1792,3.1642,3.0851,3.0283,0.0,0.0,0.0,0.0,0.0,0.0,0.0,0.0,0.0,0.0,0.0,0.0,0.0,0.0,0.0,0.0,0.0,0.0,0.0,0.0,0.0,0.0,3.6148,3.8773,3.9599,3.9965,4.054,4.1559,4.216,4.2526,4.2526,4.3049,4.3389,4.3389,4.3598,4.3885,4.4225,4.4225,4.4617,4.5428,4.4983,4.4957,4.5454,4.4983,4.4722,4.4722,4.4722,4.4905,4.5245,4.4879,4.4905,0.0,4.4539,4.4225,4.4173,4.3624,4.3389,0.0,0.0,0.0,0.0,0.0,4.1324,4.1324,4.1324,4.1324,4.1324,4.1324,4.1324,4.1324,4.1324,4.1324,4.1324,4.1324,4.1063,4.0801,4.0801,4.0383,3.9939,3.9939,3.9782,3.952,3.9155,3.9076,3.8919,3.8344,3.824,0.0,3.7952,3.7612,3.7508,3.7848,3.7612,3.7377,3.7377,3.7377,3.7142,3.6541,3.6488,3.6253,3.5678,3.458,0.0,0.0,0.0,3.1885,3.2193,3.2193,0.0,0.0,0.0,0.0,0.0,0.0,0.0,0.0,3.3138,3.3968,0.0,0.0,0.0,0.0,0.0,0.0,0.0,0.0,0.0,0.0,0.0,0.0,0.0,0.0,0.0,0.0,3.8291,4.014,4.1928,4.2317,4.2343,4.2265,4.2762,4.3127,4.3127,4.3624,4.399,4.4068,4.4539,4.4853,4.4931,0.0,0.0,0.0,0.0,4.5428,4.6473,4.5454,4.4931,4.4931,4.4931,4.4957,4.5009,4.4879,4.4853,4.4931,4.4774,4.4722,4.4696,4.4173,4.3938,4.3755,4.2683,4.2213,4.2108,4.1611,4.1376,4.1324,4.1324,0.0,0.0,4.1324,4.1324,4.1324,4.1324,4.1324,4.1324,4.1324,4.1324,4.1324,4.1324,4.0906,4.0514,4.0514,4.0148,3.9782,3.9703,3.9703,3.952,3.8919,3.8815,3.8632,3.8083,3.7952,3.79,3.79,3.79,3.79,3.79,3.79,3.7691,3.7168,0.0,0.0,3.6253,3.5208,3.458,3.4502,3.3535,3.3041,3.31,3.3127,3.3396,3.388,3.3961,3.4473,3.5391,3.5992,3.6619,3.7116,3.5143,3.5774,0.0,0.0,0.0,0.0,0.0,0.0,0.0,0.0,0.0,0.0,0.0,0.0,0.0,0.0,0.0,3.7379,3.9748,4.1543,4.211,4.3048,4.3363,4.2918,4.3363,4.3702,4.3702,4.4225,4.4774,4.5245,4.5401,4.5663,4.6107,4.6133,0.0,4.6473,4.6264,4.6238,4.6473,4.6264,4.6133,4.6133,0.0,0.0,4.6787,4.5872,4.5715,4.6081,4.514,4.4722,4.4722,4.4617,4.4278,4.3807,4.3127,4.2579,4.216,4.2056,4.1716,4.1324,4.1324,4.1324,4.1324,4.1324,4.1324,4.1324,4.1324,4.1324,0.0,4.1324,4.1324,4.1324,4.1324,4.1219,4.1141,4.1141,4.1063,4.0853,4.0357,4.0252,4.0095,3.9547,3.9442,3.9259,3.8658,3.8187,3.79,3.79,3.79,3.79,3.79,3.79,3.7874,3.7743,3.7743,3.7482,3.6881,3.6175,3.5574,3.5155,3.492,3.4821,3.4774,3.5194,3.5273,3.4958,3.5378,3.5772,3.594,3.7037,3.7848,3.837,3.7964,3.8452,0.0,0.0,0.0,0.0,0.0,0.0,0.0,0.0,0.0,0.0,0.0,3.2591,0.0,0.0,3.796,3.96,4.0897,4.1952,4.2729,4.3251,4.3649,4.3493,4.3938,4.4304,4.4304,4.4826,4.5297,4.5611,4.5898,4.6186,4.6447,4.6473,4.6604,4.6891,4.663,4.6604,4.6917,4.663,4.6473,4.6473,4.6473,4.663,4.6891,4.6316,4.6212,4.6447,4.5846,4.5454,4.5166,4.4853,4.4565,4.4278,4.399,4.3363,4.2552,4.2265,4.1977,4.1716,4.1402,4.1324,4.1324,4.1324,4.1324,4.1324,4.1324,4.1324,4.1324,4.1324,4.1324,4.1324,4.1324,4.1324,4.1324,4.1324,4.1324,4.1246,4.0932,4.0853,4.0697,4.0122,4.0017,3.9834,3.9259,3.8945,3.8553,3.8004,3.79,3.79,3.79,3.79,3.79,3.79,3.79,3.7769,3.7482,3.6907,3.6305,3.573,3.5704,3.5704,3.5704,3.6253,3.6567,3.6593,3.7142,3.756,3.7848,3.8736,3.9311,3.9573,3.986,4.0123,0.0,0.0,0.0,0.0,0.0,0.0,0.0,0.0,3.1311,3.4098,3.5027,3.6157,3.8868,3.9346,3.9926,4.1575,4.1802,4.2195,4.3295,4.348,4.3695,4.4042,4.4434,4.4722,4.4722,4.5271,4.5663,4.5794,4.6421,4.6865,4.697,4.7074,4.7362,4.7806,4.7388,4.7362,4.7832,4.7257,4.7048,4.7153,4.6917,4.6865,4.697,4.6761,4.6656,4.663,4.6525,4.6159,4.5584,4.5114,4.4826,4.4722,4.4722,4.4173,4.3284,4.2709,4.2422,4.2265,4.169,4.1481,4.1455,4.135,4.1324,4.1324,4.1324,4.1324,4.1324,4.1324,4.1324,4.1324,4.1324,4.1324,4.1324,4.1324,4.1324,4.1324,4.1324,4.1324,4.1167,4.0697,4.0592,4.0409,3.986,3.9756,3.939,3.824,3.8057,3.8031,3.7926,3.79,3.79,3.79,3.79,3.79,3.79,3.7456,3.7011,3.6645,3.6619,3.6671,3.6776,3.7246,3.7743,3.8214,3.8658,3.9181,3.9782,4.02,4.0488,4.0592,4.1089,4.1063,2.1996,2.3414,0.0,2.808,2.8774,3.035,0.0,0.0,3.7036,3.9848,4.0475,4.0626,4.1003,4.1053,4.1279,4.2066,4.2384,4.283,4.372,4.4016,4.4318,4.4535,4.4696,4.4722,4.4722,4.5271,4.5846,4.6342,4.7388,4.8224,4.8773,4.9244,4.9531,4.961,4.9531,4.9531,4.961,4.9061,4.9035,4.9505,4.8486,4.8277,4.8747,4.7702,4.7231,4.7205,4.6708,4.6159,4.5611,4.5558,4.5218,4.4722,4.4722,4.4643,4.446,4.3885,4.3363,4.284,4.2265,4.2082,4.1977,4.1481,4.1324,4.1324,4.1324,4.1324,4.1324,4.1324,4.1324,4.1324,4.1324,4.1324,4.1324,4.1324,4.1324,4.1324,4.1324,4.1324,4.1298,4.1219,4.1219,4.1036,4.0435,4.0331,3.9939,3.8789,3.8632,3.8449,3.7978,3.79,3.79,3.79,3.79,3.79,3.79,3.7848,3.7978,3.8397,3.8423,3.8658,3.9207,3.9285,3.9337,3.9416,3.9468,3.9782,4.0331,4.0383,4.0697,4.1219,4.1298,4.1272,2.6713,0.0,0.0,0.0,3.2534,3.4438,3.71,3.8226,3.9245,4.1379,4.1806,4.1907,4.2233,4.2283,4.2359,0.0,4.2746,4.3042,4.3492,4.3566,4.3687,4.3903,4.4118,4.4356,4.4696,4.5558,4.6369,4.6917,4.8041,4.8956,4.9531,4.9766,4.9897,4.9897,4.9897,4.9897,4.9897,4.9662,4.9662,4.9871,4.9401,4.9296,4.9531,4.8721,4.8172,4.7806,4.7231,4.6839,4.6604,4.6264,4.5767,4.5245,4.5245,4.5036,4.467,4.4095,4.3729,4.3441,4.2866,4.2448,4.2134,4.1899,4.1585,4.1324,4.1324,4.1324,4.1324,4.1324,4.1324,4.1324,4.1324,4.1324,4.1324,4.1324,4.1324,4.1324,4.1324,4.1324,4.1324,4.1324,4.1324,4.1246,4.0984,4.0932,4.0644,3.9834,3.9442,3.9155,3.8919,3.8893,3.8893,3.8893,3.8893,3.8893,3.8893,3.8893,3.8998,3.9233,3.9233,3.9337,3.9599,3.9913,4.0069,4.0069,4.0435,4.0723,4.0932,4.0932,4.1063,4.1324,4.1324,4.1324,2.885,0.0,0.0,3.2059,3.453,3.6707,3.7311,3.8655,4.0301,4.2108,4.2258,4.2283,4.2685,4.276,0.0,4.276,4.2886,4.3073,4.3406,4.3143,4.311,4.3325,4.3646,4.4042,4.446,4.5558,4.6552,4.7283,4.8433,4.9401,5.0106,5.0132,5.0211,5.0368,5.0211,5.0211,5.0368,5.0211,5.0211,5.0368,5.0054,4.9976,5.0106,4.9557,4.8982,4.8407,4.7989,4.7623,4.731,4.6891,4.6369,4.5846,4.5689,4.5349,4.4905,4.433,4.4121,4.4042,4.3441,4.2971,4.2579,4.2265,4.1873,4.1533,4.135,4.1324,4.1324,4.1324,4.1324,4.1324,4.1324,4.1324,4.1324,4.1324,4.1324,4.1324,4.1324,4.1324,4.1324,4.1324,4.1324,4.1324,4.1324,4.1324,4.1167,4.0723,4.0331,3.9965,3.9651,3.9599,3.9599,3.9599,3.9599,3.9599,3.9599,3.9599,3.9677,3.9834,3.9834,3.9913,4.0069,4.0461,4.0671,4.0671,4.1089,4.1324,4.1324,4.1324,4.1324,4.1324,4.1324,4.1324,0.0,0.0,3.0265,3.12,3.3322,3.5707,3.7908,3.942,4.074,4.2588,4.2534,4.2158,4.2183,4.2183,4.2183,4.2183,4.2635,4.3073,4.3406,4.3143,4.311,4.3325,4.3646,4.3885,0.0,4.4957,4.6133,4.7257,4.8433,4.9584,5.0707,5.076,5.0995,5.1518,5.1021,5.1021,5.1544,5.1021,5.1021,5.1544,5.042,5.0211,5.0734,5.0132,4.9557,4.9061,4.9035,4.8381,4.7336,4.731,4.697,4.6395,4.5846,4.5611,4.5532,4.4931,4.4696,4.4617,4.4042,4.3833,4.365,4.2526,4.216,4.203,4.1481,4.1324,4.1324,4.1324,4.1324,4.1324,4.1324,4.1324,4.1324,4.1324,4.1324,4.1324,4.1324,4.1324,4.1324,4.1324,4.1324,4.1324,4.1324,4.1324,4.1298,4.1298,4.1272,4.0853,3.9756,3.9599,3.9599,3.9599,3.9599,3.9599,3.9599,3.9599,3.9834,4.0357,4.0383,4.0644,4.1246,4.1272,4.1298,4.1298,4.1298,4.1324,4.1324,4.1324,4.1324,4.1324,4.1324,4.1324,0.0,0.0,3.165,3.2851,3.4636,3.6421,3.751,3.9314,4.0673,4.014,4.025,4.0452,4.0,4.0035,4.0375,4.1447,4.2384,4.2986,4.3073,4.3473,4.3653,4.3213,4.3769,0.0,0.0,0.0,0.0,4.7231,4.8041,4.9165,5.0707,5.0786,5.1047,5.157,5.1413,5.1413,5.1596,5.1413,5.1413,5.1596,5.1204,5.0943,5.0786,5.0577,5.0159,4.961,4.961,4.9191,4.8486,4.8486,4.7937,4.7022,4.6839,4.629,4.5611,4.5401,4.5062,4.4696,4.4513,4.4199,4.3807,4.3415,4.2788,4.2134,4.1951,4.1611,4.1324,4.1324,4.1324,4.1324,4.1324,4.1324,4.1324,4.1324,4.1324,4.1324,4.1324,4.1324,4.1324,4.1324,4.1324,4.1324,4.1324,4.1324,4.1324,4.1324,4.1324,4.1167,4.0801,4.0749,4.0749,4.0749,4.0749,4.0749,4.0749,4.0749,4.0827,4.101,4.101,4.1115,4.1298,4.1324,4.1324,4.1324,4.1324,4.1324,4.1324,4.1324,4.1324,4.1324,4.1716,4.1873,0.0,3.2043,3.2623,3.3969,3.5233,3.6359,3.7122,3.8467,3.9221,3.8296,3.7997,3.7869,3.7239,3.7421,3.8105,3.989,4.1439,4.266,4.3463,4.3941,4.4142,4.4036,4.4403,4.4546,0.0,0.0,0.0,4.7283,4.825,4.9374,5.0707,5.0786,5.1047,5.157,5.1413,5.1413,5.1596,5.1596,5.1596,5.1596,5.1596,5.1413,5.1073,5.089,5.0577,5.0211,4.9976,4.9688,4.9348,4.9165,4.8643,4.7911,4.7492,4.6891,4.6212,4.6003,4.5558,4.5009,4.48,4.4487,4.4147,4.3938,4.3363,4.2735,4.2526,4.2082,4.1611,4.1611,4.1481,4.1324,4.1324,4.1324,4.1324,4.1324,4.1324,4.1324,4.1324,4.1324,4.1324,4.1324,4.1324,4.1324,4.1324,4.1324,4.1324,4.1324,4.1324,4.1324,4.1324,4.1324,4.1324,4.1324,4.1324,4.1324,4.1324,4.1324,4.1324,4.1324,4.1324,4.1324,4.1324,4.1324,4.1324,4.1324,4.1324,4.1324,4.1324,4.1533,4.1611,4.1638,4.2213,4.2474,3.1422,3.2209,3.3223,3.4507,3.5107,3.5746,3.6924,3.6872,3.6567,3.6835,3.5741,3.4601,0.0,0.0,3.5646,3.7782,3.9808,4.1938,4.4317,4.4332,4.4687,0.0,0.0,0.0,0.0,0.0,0.0,4.7414,0.0,5.0132,5.076,5.0786,5.1047,5.157,5.11,5.1073,5.1596,5.1596,5.1596,5.1596,5.1596,5.1596,5.157,5.1073,5.0812,5.076,5.0185,4.9923,4.9845,4.9296,4.9087,4.8982,4.7832,4.7362,4.7257,4.6734,4.6159,4.5584,4.4983,4.4748,4.4643,4.4095,4.3885,4.3781,4.3232,4.2657,4.2213,4.2213,4.1794,4.135,4.135,4.1324,4.1324,4.1324,4.1324,4.1324,4.1324,4.1324,4.1324,4.1324,4.1324,4.1324,4.1324,4.1324,4.1324,4.1324,4.1324,4.1324,4.1324,4.1324,4.1324,4.1324,4.1324,4.1324,4.1324,4.1324,4.1324,4.1324,4.1324,4.1324,4.1324,4.1324,4.1324,4.1324,4.1324,4.1324,4.135,4.1899,4.2186,4.2213,4.2788,4.3075,3.3596,3.4569,3.5335,3.5687,3.5335,3.5043,3.5386,3.5306,3.4753,3.3155,3.252,3.1838,3.0533,0.0,0.0,3.6102,3.837,0.0,4.4186,4.4462,0.0,0.0,0.0,4.655,4.7172,4.8195,0.0,0.0,4.9035,4.974,5.0734,5.0786,5.1047,5.157,5.1465,5.1465,5.1596,5.1596,5.1596,5.1596,5.1596,5.1596,5.1596,5.1465,5.1178,5.0786,5.0629,5.0315,4.9845,4.9296,4.9087,4.9008,4.825,4.7702,4.731,4.7179,4.6761,4.6186,4.5611,4.5114,4.4696,4.4565,4.4225,4.3833,4.3702,4.3258,4.2814,4.2814,4.2396,4.1951,4.1951,4.1638,4.1324,4.1324,4.1324,4.1324,4.1324,4.1324,4.1324,4.1324,4.1324,4.1324,4.1324,4.1324,4.1324,4.1324,4.1324,4.1324,4.1324,4.1324,4.1324,4.1324,4.1324,4.1324,4.1324,4.1324,4.1324,4.1324,4.1324,4.1324,4.1324,4.1324,4.1324,4.1324,4.1324,4.1533,4.1951,4.2082,4.2396,4.2814,4.3389,4.365,3.5045,3.5728,3.6121,3.6121,3.5438,3.461,3.401,3.3528,3.2487,3.012,2.9204,0.0,0.0,0.0,0.0,0.0,0.0,0.0,4.2735,4.3354,4.4338,0.0,4.6762,0.0,4.8788,4.9677,5.0156,0.0,5.0185,5.0472,5.1126,5.1387,5.1805,5.238,5.238,5.225,5.1988,5.1988,5.1858,5.1596,5.1596,5.1596,5.1596,5.1361,5.1204,5.1126,0.0,5.0342,5.0211,4.9427,4.9087,4.9035,4.8433,4.7989,4.7702,4.7702,4.7336,4.6813,4.6473,4.582,4.5088,4.4826,4.4513,4.4251,4.4251,4.3859,4.3389,4.3389,4.2971,4.2552,4.2552,4.2317,4.2056,4.2056,4.1873,4.169,4.169,4.1507,4.1324,4.1324,4.1324,4.1324,4.1324,4.1324,4.1324,4.1324,4.1533,4.1611,4.135,4.1324,4.1324,4.1324,4.1324,4.1324,4.1324,4.1324,4.1324,4.1324,4.1324,4.1324,4.1324,4.1324,4.1428,4.169,4.169,4.1977,4.2552,4.2788,4.3075,4.3415,4.399,4.4251,3.6059,3.6246,3.6183,3.6121,3.5335,3.4217,3.2871,3.1712,3.018,2.7614,0.0,0.0,2.4426,0.0,2.8413,3.0656,0.0,3.752,4.1007,4.1834,4.3427,4.7125,4.7021,4.77,5.0334,5.097,5.1198,5.1471,5.1675,5.1675,5.1596,5.2093,5.2642,5.3269,5.3347,5.3138,5.2616,5.2616,5.2328,5.1727,5.1727,5.1675,5.157,5.1126,5.1126,5.1439,0.0,0.0,5.0707,4.9557,4.9139,4.9113,4.8433,4.8172,4.8172,4.8172,4.7885,4.744,4.7362,4.6682,4.5741,4.5062,4.48,4.4722,4.4722,4.4382,4.399,4.399,4.3572,4.3127,4.3127,4.3075,4.3023,4.3023,4.2631,4.2291,4.2291,4.1899,4.1507,4.1455,4.1428,4.1428,4.1428,4.1428,4.1455,4.1533,4.1951,4.2108,4.1611,4.1481,4.1402,4.1324,4.1324,4.135,4.1428,4.1428,4.1455,4.1533,4.1481,4.1455,4.1533,4.1481,4.169,4.2265,4.2291,4.2552,4.3127,4.3624,4.3912,4.399,4.4487,4.4722,3.7011,3.697,3.6597,3.6204,3.4859,3.3265,3.1919,3.0015,0.0,0.0,0.0,2.395,2.3018,2.4742,0.0,2.9591,0.0,0.0,0.0,0.0,4.3425,0.0,0.0,0.0,0.0,0.0,0.0,0.0,0.0,0.0,5.1622,5.1701,5.2014,5.2642,5.3138,5.3347,5.3243,5.3243,5.2929,5.2328,5.2328,5.2067,5.1596,5.1492,5.1256,5.0917,5.0707,0.0,5.0707,4.9557,4.9348,4.9636,4.859,4.8172,4.8172,4.8172,4.812,4.7963,4.7492,4.7205,4.6865,4.582,4.514,4.4722,4.4722,4.467,4.4591,4.4591,4.4173,4.3729,4.3729,4.3363,4.3023,4.3023,4.2944,4.2866,4.2866,4.2788,4.2579,4.2108,4.2004,4.2004,4.2004,4.2004,4.2186,4.2657,4.2814,4.284,4.2735,4.2317,4.1847,4.135,4.1324,4.1507,4.1977,4.2004,4.2213,4.2709,4.2291,4.2239,4.2709,4.2265,4.2291,4.2866,4.2866,4.3154,4.3729,4.3833,4.4121,4.4591,4.4696,4.4722,3.7239,3.7156,3.6701,3.6225,3.4569,3.2499,3.0408,0.0,0.0,0.0,0.0,2.2666,2.2211,0.0,0.0,0.0,0.0,0.0,0.0,0.0,0.0,0.0,0.0,0.0,0.0,0.0,0.0,0.0,0.0,0.0,5.2119,5.2354,5.2668,5.2955,5.353,5.3687,5.34,5.3687,5.353,5.2955,5.2642,5.2354,5.2067,5.1727,5.1465,5.1204,5.0917,0.0,5.0734,4.9845,4.9479,4.9427,4.8878,4.846,4.8172,4.8172,4.8172,4.8146,4.7885,4.7571,4.7231,4.6682,4.5924,4.514,4.4826,4.4722,4.4722,4.4722,4.4539,4.433,4.433,4.4121,4.3912,4.3912,4.3676,4.3389,4.3075,4.3023,4.2944,4.2657,4.2605,4.2605,4.2605,4.2605,4.2709,4.2971,4.3284,4.3363,4.3049,4.3049,4.2709,4.1847,4.203,4.2186,4.216,4.2448,4.2735,4.2997,4.2762,4.2735,4.3023,4.2762,4.2866,4.3467,4.3467,4.3755,4.433,4.433,4.4617,4.5192,4.5192,4.5349,3.697,3.6929,3.6515,3.5956,3.4196,3.1857,2.9104,2.7055,0.0,0.0,0.0,2.1797,2.1797,0.0,0.0,0.0,0.0,0.0,0.0,0.0,0.0,0.0,0.0,0.0,0.0,0.0,0.0,0.0,0.0,0.0,5.2746,5.3243,5.3556,5.3556,5.3975,5.4053,5.3766,5.4053,5.4001,5.3556,5.3086,5.272,5.2485,5.2014,5.1727,5.157,5.1152,0.0,0.0,5.0315,4.9819,4.9427,4.9191,4.8799,4.8355,4.8224,4.8172,4.8172,4.8172,4.7885,4.7492,4.7362,4.6552,4.5532,4.5062,4.4826,4.4722,4.4722,4.4722,4.4722,4.4722,4.4722,4.4722,4.4722,4.4382,4.3938,4.3493,4.3389,4.3337,4.3232,4.3206,4.3206,4.3206,4.3206,4.3232,4.3363,4.3781,4.3885,4.3441,4.3781,4.3676,4.2631,4.2814,4.2892,4.2552,4.2944,4.3258,4.3389,4.3284,4.3258,4.3389,4.3258,4.3467,4.4042,4.4042,4.433,4.4905,4.4905,4.5218,4.582,4.582,4.6055,3.6101,3.6204,3.5956,3.5107,3.3472,3.1381,2.8607,0.0,0.0,0.0,2.2128,2.1797,2.1797,2.2315,0.0,0.0,0.0,0.0,0.0,0.0,0.0,0.0,0.0,0.0,0.0,0.0,0.0,0.0,0.0,0.0,0.0,5.3844,5.4131,5.4131,5.4184,5.4445,5.4942,5.4445,5.4184,5.4131,5.4079,5.3504,5.2485,5.2433,5.2119,5.1596,5.1544,0.0,0.0,5.0943,5.0681,5.0524,4.9479,4.9061,4.893,4.8381,4.8172,4.8172,4.8172,4.8146,4.8015,4.7492,4.6552,4.5611,4.5558,4.5166,4.4722,4.4722,4.4722,4.4722,4.4722,4.4722,4.4722,4.4722,4.4696,4.4643,4.4591,4.4565,4.4408,4.3885,4.3807,4.3807,4.3807,4.3807,4.3964,4.4487,4.4617,4.4643,4.4565,4.4617,4.4408,4.3781,4.331,4.3206,4.3676,4.3755,4.4016,4.4539,4.4095,4.4042,4.4539,4.4068,4.4068,4.4643,4.4643,4.4957,4.5558,4.5558,4.5846,4.6395,4.6395,4.6421,3.5376,3.5894,3.5894,3.4983,3.3182,3.0926,2.8152,0.0,0.0,2.2397,2.1714,2.1466,2.1756,2.219,2.2832,0.0,2.4695,2.6372,0.0,0.0,0.0,0.0,0.0,0.0,0.0,0.0,0.0,0.0,0.0,0.0,0.0,5.3555,5.3713,5.3713,5.4027,5.4158,5.4079,5.4158,5.4053,5.3713,5.3713,5.3478,5.3034,5.2668,5.2354,5.2119,5.1753,0.0,0.0,5.1361,5.1073,5.0734,5.0289,4.9688,4.9061,4.8826,4.8486,4.8172,4.8172,4.8172,4.8146,4.7911,4.731,4.6578,4.6238,4.5741,4.5271,4.5271,4.5009,4.4722,4.4722,4.4722,4.4722,4.4722,4.4722,4.4722,4.4722,4.4722,4.467,4.4434,4.4382,4.4382,4.4382,4.4382,4.446,4.4696,4.4722,4.4722,4.4722,4.4722,4.4643,4.4408,4.4199,4.399,4.3885,4.4199,4.4487,4.4722,4.4513,4.4487,4.4722,4.4513,4.467,4.5271,4.5271,4.5558,4.6133,4.6133,4.6421,4.6996,4.6996,4.7179,3.4715,3.5453,3.5665,3.4872,3.2955,3.0599,0.0,0.0,2.3474,2.2087,2.1549,2.1424,2.1735,2.2066,2.248,2.308,2.3805,2.5233,2.7945,0.0,0.0,0.0,0.0,0.0,0.0,0.0,0.0,0.0,0.0,0.0,0.0,5.3202,5.3477,5.3896,5.4105,5.4105,5.3896,5.4105,5.4001,5.3635,5.3635,5.3452,5.3112,5.2694,5.2406,5.2197,0.0,0.0,0.0,5.1596,5.1361,5.1021,5.0864,5.0289,4.9557,4.9218,4.8826,4.8433,4.825,4.8172,4.8172,4.8172,4.7911,4.7519,4.71,4.6473,4.5872,4.5872,4.5454,4.4957,4.4774,4.4722,4.4722,4.4722,4.4722,4.4722,4.4722,4.4722,4.4722,4.4722,4.4722,4.4722,4.4722,4.4722,4.4722,4.4722,4.4722,4.4722,4.4722,4.4722,4.4722,4.4722,4.4722,4.4565,4.4173,4.4487,4.4722,4.4722,4.4722,4.48,4.4983,4.5009,4.5271,4.5872,4.5872,4.6159,4.6734,4.6734,4.7022,4.7597,4.778,4.8146,3.3849,3.4718,3.5295,3.4646,3.2738,3.0263,0.0,2.5502,2.3474,2.2087,2.1797,2.1797,2.1797,2.1818,2.2108,2.3039,2.4322,2.6165,2.8897,0.0,0.0,0.0,0.0,0.0,0.0,0.0,0.0,0.0,0.0,0.0,0.0,5.2941,5.3945,5.5072,5.4497,5.4497,5.5072,5.4497,5.421,5.4184,5.4184,5.3609,5.2511,5.2485,5.2171,0.0,0.0,0.0,0.0,5.1596,5.1596,5.1544,5.0995,5.0786,5.0629,4.9505,4.9087,4.8982,4.8381,4.8172,4.8172,4.8172,4.8172,4.8172,4.8172,4.7362,4.6473,4.6473,4.6055,4.548,4.4879,4.4722,4.4722,4.4722,4.4722,4.4722,4.4722,4.4722,4.4722,4.4722,4.4722,4.4722,4.4722,4.4722,4.4722,4.4722,4.4722,4.4722,4.4722,4.4722,4.4722,4.4722,4.4722,4.4722,4.4722,4.4722,4.4722,4.4722,4.4722,4.5009,4.5584,4.5611,4.5872,4.6447,4.6473,4.6761,4.7336,4.7336,4.7623,4.8198,4.8773,4.9348,3.2369,3.2485,3.1678,3.146,2.9876,2.791,2.5834,2.4612,2.3474,2.2087,2.1797,2.1797,2.1797,2.1797,2.2418,2.4281,2.4943,0.0,0.0,0.0,0.0,0.0,0.0,0.0,0.0,0.0,0.0,0.0,0.0,0.0,0.0,5.2114,5.3945,5.5099,5.4916,5.4707,5.4497,5.4314,5.3818,5.3034,5.3452,5.3243,5.2485,5.2485,0.0,0.0,0.0,0.0,0.0,5.1596,5.1596,5.157,5.1413,5.1126,5.076,5.0394,5.0002,4.9557,4.8982,4.8799,4.8721,4.8329,4.8172,4.8172,4.8172,4.7649,4.697,4.6578,4.6342,4.6159,4.5976,4.5924,4.5924,4.5924,4.5924,4.5924,4.5924,4.5924,4.5924,4.5924,4.5924,4.5924,4.5924,4.5924,4.5924,4.5924,4.5924,4.5924,4.5924,4.5924,4.5924,4.5924,4.5924,4.5611,4.48,4.4722,4.4905,4.5323,4.5349,4.5611,4.6186,4.6212,4.6473,4.7048,4.7074,4.7336,4.7911,4.7911,4.8224,4.8826,4.9374,4.974,0.0,2.7785,2.7142,2.8077,2.694,2.5391,2.4625,2.3929,2.306,2.2025,2.1797,2.1797,2.1797,2.1942,2.2584,2.4198,2.5026,0.0,0.0,0.0,0.0,0.0,0.0,0.0,0.0,0.0,0.0,0.0,0.0,0.0,0.0,5.0551,5.2554,5.4402,5.4831,5.4916,5.455,5.455,5.4079,5.3138,5.3321,5.3086,5.2485,5.225,0.0,0.0,0.0,0.0,0.0,5.1596,5.1596,5.1596,5.1596,5.1387,5.1073,5.0864,5.0551,5.0106,4.9348,4.9087,4.8982,4.8381,4.8172,4.8172,4.8172,4.7937,4.7545,4.697,4.6813,4.6761,4.6525,4.6473,4.6473,4.6473,4.6473,4.6473,4.6473,4.6473,4.6473,4.6473,4.6473,4.6473,4.6473,4.6473,4.6473,4.6473,4.6473,4.6473,4.6473,4.6473,4.6473,4.6473,4.6473,4.6186,4.5454,4.5401,4.5558,4.5924,4.595,4.6212,4.6787,4.6813,4.7074,4.7649,4.7649,4.7937,4.8538,4.8721,4.9139,4.974,5.008,5.0342,0.0,2.1626,2.22,2.4481,2.3796,2.2882,2.4047,2.337,0.0,2.1901,2.1797,2.1838,2.1983,2.2273,2.2729,2.3453,0.0,0.0,0.0,0.0,0.0,0.0,0.0,0.0,0.0,0.0,0.0,0.0,0.0,0.0,0.0,4.8263,5.0127,5.2966,5.4241,5.4965,5.5099,5.5099,5.4811,5.4184,5.3687,5.3112,5.2485,5.191,0.0,0.0,0.0,0.0,0.0,5.1596,5.1596,5.1596,5.1596,5.1596,5.1544,5.1021,5.0838,5.0681,4.9584,4.9165,4.9035,4.8381,4.8172,4.8172,4.8172,4.8172,4.8068,4.7545,4.7388,4.7283,4.6734,4.6604,4.6604,4.6604,4.6604,4.6604,4.6604,4.6604,4.6604,4.6604,4.6604,4.6604,4.6604,4.6604,4.6604,4.6604,4.6604,4.6604,4.6604,4.6604,4.6604,4.6604,4.6604,4.6604,4.6604,4.6525,4.6499,4.6525,4.6552,4.6787,4.7362,4.7388,4.7649,4.8172,4.8224,4.8538,4.9139,4.9568,5.0237,5.0786,5.0715,5.1002,2.0265,0.0,2.0566,2.1148,2.1663,2.1964,0.0,2.2211,2.2356,0.0,0.0,0.0,0.0,0.0,0.0,0.0,0.0,0.0,0.0,0.0,0.0,0.0,0.0,0.0,0.0,0.0,0.0,0.0,0.0,0.0,0.0,4.7096,4.824,4.8961,5.1509,5.3649,5.5099,5.5099,5.4811,5.421,5.4079,5.3478,5.2485,5.2354,0.0,0.0,0.0,0.0,5.1596,5.1596,5.1596,5.1596,5.1596,5.1596,5.157,5.1465,5.1413,5.1309,5.0629,5.008,4.9531,4.8512,4.8172,4.8172,4.8172,4.8172,4.8146,4.8015,4.7989,4.7963,4.7806,4.778,4.778,4.778,4.778,4.778,4.778,4.778,4.778,4.778,4.778,4.778,4.778,4.778,4.778,4.778,4.778,4.778,4.778,4.778,4.778,4.778,4.778,4.778,4.778,4.697,4.6656,4.71,4.7127,4.7388,4.7963,4.7989,4.8041,4.8172,4.8643,4.9139,4.9688,4.9528,4.9889,5.0812,5.0455,5.0333,1.9614,2.0514,2.1282,2.0615,2.17,2.2787,2.1686,0.0,0.0,0.0,0.0,0.0,0.0,0.0,0.0,0.0,0.0,0.0,0.0,0.0,0.0,0.0,0.0,0.0,0.0,0.0,0.0,0.0,0.0,0.0,0.0,4.581,4.6802,4.7658,4.9224,5.1345,5.3784,5.4671,5.4942,5.4602,5.4341,5.387,5.3269,5.3034,5.2589,0.0,0.0,0.0,5.1596,5.1596,5.1596,5.1596,5.1596,5.1596,5.1596,5.1596,5.1596,5.1518,5.0969,5.0237,4.9427,4.8799,4.8407,4.8172,4.8172,4.8172,4.8172,4.8172,4.8172,4.8172,4.8172,4.8172,4.8172,4.8172,4.8172,4.8172,4.8172,4.8172,4.8172,4.8172,4.8172,4.8172,4.8172,4.8172,4.8172,4.8172,4.8172,4.8172,4.8172,4.8172,4.8172,4.8172,4.8172,4.8172,4.8172,4.7623,4.7388,4.7702,4.7728,4.7858,4.8172,4.7962,4.7744,4.7612,4.8172,4.8604,4.8884,4.8837,4.924,4.9774,4.9543,4.9411,1.9417,2.1445,2.3043,2.1133,2.2534,2.395,2.2221,0.0,0.0,0.0,0.0,0.0,0.0,0.0,0.0,0.0,0.0,0.0,0.0,0.0,0.0,0.0,0.0,0.0,0.0,0.0,0.0,0.0,0.0,0.0,0.0,4.4654,4.5362,4.7096,4.7366,4.8794,5.1485,5.3649,5.4805,5.5099,5.4576,5.4288,5.4184,5.3739,5.3138,0.0,0.0,0.0,5.1596,5.1596,5.1596,5.1596,5.1596,5.1596,5.1596,5.1596,5.1596,5.1518,5.0969,5.0106,4.9191,4.9113,4.8669,4.8172,4.8172,4.8172,4.8172,4.8172,4.8172,4.8172,4.8172,4.8172,4.8172,4.8172,4.8172,4.8172,4.8172,4.8172,4.8172,4.8172,4.8172,4.8172,4.8172,4.8172,4.8172,4.8172,4.8172,4.8172,4.8172,4.8172,4.8172,4.8172,4.8172,4.8172,4.7938,4.8016,4.8068,4.7833,4.8068,4.8094,4.7962,4.7587,4.7233,4.6876,4.7317,4.7691,4.7789,4.815,4.8371,4.8502,4.8469,4.8362,2.0969,2.3122,2.4029,2.0301,2.1724,2.3639,0.0,0.0,0.0,0.0,0.0,0.0,0.0,0.0,0.0,0.0,0.0,0.0,0.0,0.0,0.0,0.0,0.0,0.0,0.0,0.0,0.0,0.0,0.0,0.0,0.0,0.0,4.3898,4.4201,4.5766,4.7198,4.8384,5.1205,5.3487,5.5099,5.502,5.4707,5.421,5.4105,5.3504,0.0,0.0,5.2145,5.1596,5.1596,5.1596,5.1596,5.1596,5.1596,5.1596,5.1596,5.1596,5.1518,5.0969,5.0342,4.9688,4.9244,4.8669,4.8172,4.8172,4.8172,4.8172,4.8172,4.8172,4.8172,4.8172,4.8172,4.8172,4.8172,4.8172,4.8172,4.8172,4.8172,4.8172,4.8172,4.8172,4.8172,4.8172,4.8172,4.8172,4.8172,4.8172,4.8172,4.8172,4.8172,4.8172,4.8172,4.8172,4.7821,4.6968,4.7401,4.7293,4.6414,4.7172,4.7399,4.7009,4.6983,4.7153,4.7543,4.7617,4.7887,4.8379,4.7557,4.7581,4.8526,4.804,4.7853,2.0339,2.2377,2.4117,2.4031,2.5356,2.6506,0.0,0.0,0.0,0.0,0.0,0.0,0.0,0.0,0.0,0.0,0.0,0.0,0.0,0.0,0.0,0.0,0.0,0.0,0.0,0.0,0.0,0.0,0.0,0.0,0.0,0.0,4.3615,4.3615,4.4461,4.5617,4.7073,4.8938,5.123,5.4241,5.4241,5.4381,5.468,5.468,5.421,5.34,0.0,5.2642,5.2067,5.1727,5.1596,5.1596,5.1596,5.1596,5.1596,5.1596,5.1596,5.157,5.1309,5.0864,5.0342,5.008,4.9401,4.8669,4.8669,4.8433,4.8172,4.8172,4.8172,4.8172,4.8172,4.8172,4.8172,4.8172,4.8172,4.8172,4.8172,4.8172,4.8172,4.8172,4.8172,4.8172,4.8172,4.8172,4.816,4.7854,4.7786,4.7889,4.8197,4.7765,4.7618,4.8249,4.7765,4.7252,4.6761,4.6985,4.6886,4.6511,4.6886,4.6882,4.6424,4.6448,4.6429,4.6428,4.6428,4.6547,4.6808,4.6552,4.6693,4.7234,4.7232,4.7328,1.9877,2.1756,2.4052,0.0,0.0,0.0,0.0,0.0,0.0,0.0,0.0,0.0,0.0,0.0,0.0,0.0,0.0,0.0,0.0,0.0,0.0,0.0,0.0,0.0,0.0,0.0,0.0,0.0,0.0,0.0,0.0,0.0,4.3615,4.3615,4.3615,4.4482,4.6063,4.6655,4.8961,5.2666,5.2966,5.3538,5.4671,5.4671,5.4493,5.4184,5.3766,5.3164,5.2459,5.1988,5.1727,5.1596,5.1596,5.1596,5.1596,5.1596,5.1596,5.1596,5.1596,5.123,5.0786,5.0786,5.0106,4.927,4.927,4.8852,4.8433,4.8538,4.8486,4.8355,4.8224,4.8172,4.8172,4.8172,4.8172,4.8224,4.8355,4.8381,4.8433,4.8564,4.8354,4.821,4.821,4.7973,4.7744,4.7424,4.7378,4.7529,4.7957,4.7282,4.7156,4.7883,4.7257,4.67,4.6695,4.6463,4.6384,4.6504,4.6384,4.6189,4.5927,4.595,4.5739,4.5347,4.537,4.5415,4.553,4.5921,4.6173,4.6311,4.6816,4.7046,2.1049,2.2729,2.4241,2.5701,0.0,0.0,0.0,0.0,0.0,0.0,0.0,0.0,0.0,0.0,0.0,0.0,0.0,0.0,0.0,0.0,0.0,0.0,0.0,0.0,0.0,0.0,0.0,0.0,0.0,0.0,0.0,0.0,0.0,4.3615,4.3615,4.405,4.4955,4.4955,4.6949,5.0668,5.1419,5.2416,5.3538,5.3538,5.3772,5.421,5.4158,5.353,5.2485,5.2459,5.2093,5.1596,5.1596,5.1596,5.1596,5.1596,5.1596,5.1596,5.1596,5.123,5.0786,5.0786,5.0368,4.9845,4.9845,4.9453,4.9113,4.9636,4.9401,4.8878,4.8329,4.8172,4.8172,4.8172,4.8172,4.8329,4.8904,4.9035,4.9165,4.9662,4.9013,4.8252,4.8252,4.7533,4.6932,4.683,4.683,4.6855,4.6904,4.6904,4.6777,4.6904,4.6904,4.6591,4.6192,4.5318,4.5018,4.548,4.5064,4.4907,4.5414,4.5437,4.546,4.537,4.537,4.5599,4.6058,4.6104,4.6357,4.6839,4.7344,4.7574,2.0124,2.217,2.4198,2.5544,0.0,0.0,0.0,0.0,0.0,0.0,0.0,0.0,0.0,0.0,0.0,0.0,0.0,0.0,0.0,0.0,0.0,0.0,0.0,0.0,0.0,0.0,0.0,0.0,0.0,0.0,0.0,0.0,0.0,4.3615,4.3615,4.3767,4.405,4.4504,4.5533,4.6949,4.8984,5.0551,5.1673,5.2829,5.3547,5.3747,5.4077,5.3949,5.3504,5.2798,5.2354,5.2119,5.1753,5.1596,5.1596,5.1596,5.1596,5.1596,5.1596,5.1465,5.1282,5.1282,5.0917,5.0446,5.0446,5.0054,4.9636,4.9845,4.974,4.9531,4.9296,4.9244,4.9244,4.9244,4.9244,4.9296,4.9531,4.9584,4.9636,4.9845,4.9507,4.9116,4.8379,4.8007,4.7381,4.6448,4.6367,4.6487,4.6824,4.6347,4.6215,4.6741,4.6347,4.5912,4.5722,4.5341,4.5163,4.5347,4.5186,4.5163,4.5347,4.537,4.537,4.537,4.5668,4.5921,4.6127,4.677,4.716,4.7367,4.7872,4.8102,1.9959,2.2087,2.4385,0.0,0.0,0.0,0.0,0.0,0.0,0.0,0.0,0.0,0.0,0.0,0.0,0.0,0.0,0.0,0.0,0.0,0.0,0.0,0.0,0.0,0.0,0.0,0.0,0.0,0.0,0.0,0.0,0.0,0.0,0.0,4.3615,4.3615,4.3615,4.4222,4.4352,4.4504,4.6551,4.8263,4.9677,5.095,5.1951,5.2504,5.281,5.312,5.3181,5.2491,5.2282,5.2171,5.1753,5.1596,5.1596,5.1596,5.1596,5.1596,5.1596,5.1596,5.1596,5.1596,5.1335,5.1047,5.1047,5.0629,5.0211,5.0394,5.0315,5.0211,5.0394,5.0159,4.9897,4.9897,4.9897,4.9949,5.0132,4.9915,4.9722,4.9903,4.9409,4.8786,4.8006,4.7626,4.7005,4.6083,4.5888,4.6006,4.6358,4.589,4.5619,4.6405,4.5754,4.537,4.537,4.537,4.537,4.537,4.5507,4.553,4.537,4.537,4.5438,4.5599,4.5944,4.6288,4.6609,4.7298,4.7734,4.7895,4.824,4.84,2.0966,2.2791,0.0,0.0,0.0,0.0,0.0,0.0,0.0,0.0,0.0,0.0,0.0,0.0,0.0,0.0,0.0,0.0,0.0,0.0,0.0,0.0,0.0,0.0,0.0,0.0,0.0,0.0,0.0,0.0,0.0,0.0,0.0,0.0,4.3615,4.3615,4.3615,4.3615,4.3615,4.3615,4.4352,4.581,4.7658,4.7658,4.8673,5.0527,5.0527,5.0683,5.0886,5.1423,5.1588,5.1596,5.1596,5.1596,5.1596,5.1596,5.1596,5.1596,5.1596,5.1596,5.1596,5.1596,5.1596,5.1596,5.1596,5.123,5.0917,5.1439,5.1204,5.0917,5.1465,5.076,4.9897,4.9897,4.9897,5.008,5.0681,4.9893,4.9419,4.9952,4.8371,4.6941,4.6941,4.6025,4.5347,4.537,4.537,4.537,4.537,4.537,4.537,4.537,4.537,4.537,4.537,4.537,4.537,4.537,4.5852,4.5898,4.5393,4.537,4.5599,4.6127,4.6127,4.6632,4.7643,4.7643,4.7895,4.84,4.84,4.84,2.0813,0.0,0.0,0.0,0.0,0.0,0.0,0.0,0.0,0.0,0.0,0.0,0.0,0.0,0.0,0.0,0.0,0.0,0.0,0.0,0.0,0.0,0.0,0.0,0.0,0.0,0.0,0.0,0.0,0.0,0.0,0.0,0.0,0.0,4.3615,4.3615,4.3615,4.3615,4.3615,4.3615,4.3919,4.4504,4.5661,4.7096,4.7949,4.8673,4.9961,5.0596,5.0683,5.0604,5.0149,4.9411,4.9411,4.9411,4.954,5.0308,5.0563,5.0715,5.1346,5.1596,5.1596,5.1596,5.1596,5.1596,5.1596,5.1492,5.1387,5.1544,5.1492,5.1262,5.0664,5.0835,5.11,5.11,5.11,5.0877,5.0432,5.0079,4.962,4.9127,4.8502,4.7846,4.7074,4.6674,4.6294,4.5483,4.537,4.537,4.537,4.537,4.537,4.537,4.537,4.537,4.537,4.5691,4.5898,4.5898,4.638,4.6426,4.5921,4.6242,4.6495,4.6655,4.7,4.7344,4.7643,4.7987,4.824,4.84,4.84,4.84,2.2811,0.0,0.0,0.0,0.0,0.0,0.0,0.0,0.0,0.0,0.0,0.0,0.0,0.0,0.0,0.0,0.0,0.0,0.0,0.0,0.0,0.0,0.0,0.0,0.0,0.0,0.0,0.0,0.0,0.0,0.0,0.0,0.0,0.0,4.3615,4.3615,4.3615,4.3615,4.3615,4.3615,4.3615,4.3919,4.4352,4.5512,4.6233,4.6677,4.8407,4.9322,4.9599,4.9552,4.906,4.8502,4.8502,4.8502,4.8632,4.9282,4.9411,4.954,5.0181,5.0308,5.0436,5.0842,5.0689,5.0436,5.0816,5.0689,5.0308,5.0308,5.0308,5.0181,4.9668,4.9925,5.0308,5.0308,5.0689,5.0715,4.9668,4.9152,4.8632,4.7977,4.7581,4.7074,4.6405,4.6271,4.616,4.5483,4.537,4.537,4.537,4.537,4.537,4.537,4.553,4.5668,4.5668,4.6127,4.6426,4.6426,4.6908,4.7046,4.6747,4.6816,4.6977,4.7183,4.7482,4.7734,4.7941,4.824,4.84,4.84,4.84,4.84,0.0,0.0,0.0,0.0,0.0,0.0,0.0,0.0,0.0,0.0,0.0,0.0,0.0,0.0,0.0,0.0,0.0,0.0,0.0,0.0,0.0,0.0,0.0,0.0,0.0,0.0,0.0,0.0,0.0,0.0,0.0,0.0,0.0,4.3615,4.3615,4.3615,4.3615,4.3615,4.3615,0.0,4.3615,4.3615,4.3615,4.3615,4.4071,4.4955,4.6448,4.747,4.8187,4.8187,4.8252,4.824,4.824,4.824,4.824,4.8371,4.8371,4.8371,4.8502,4.8502,4.8632,4.9668,4.9282,4.8632,4.9668,4.9282,4.8502,4.8502,4.8502,4.8502,4.8371,4.8371,4.8502,4.824,4.9152,4.9668,4.8632,4.7581,4.6941,4.6808,4.6025,4.537,4.537,4.537,4.537,4.537,4.537,4.537,4.537,4.537,4.537,4.5415,4.5852,4.615,4.6196,4.6655,4.6954,4.6954,4.7436,4.7712,4.7712,4.7252,4.7229,4.7689,4.7712,4.7941,4.84,4.84,4.84,4.84,4.84,4.84,0.0,0.0,0.0,0.0,0.0,0.0,0.0,0.0,0.0,0.0,0.0,0.0,0.0,0.0,0.0,0.0,0.0,0.0,0.0,0.0,0.0,0.0,0.0,0.0,0.0,0.0,0.0,0.0,0.0,0.0,0.0,0.0,0.0,4.3615,4.3615,4.3615,4.3615,4.3615,4.3615,0.0,4.3615,4.3615,4.3615,4.3615,4.4071,4.4805,4.5853,4.6334,4.6275,4.698,4.6819,4.6025,4.6025,4.6025,4.6136,4.6941,4.7208,4.7316,4.824,4.8502,4.8502,4.8763,4.8632,4.8502,4.8763,4.8632,4.8502,4.8502,4.8502,4.824,4.7449,4.7846,4.8109,4.6405,4.7449,4.8502,4.7449,4.7074,4.6674,4.589,4.5483,4.537,4.537,4.537,4.537,4.537,4.537,4.537,4.537,4.537,4.5507,4.5921,4.6058,4.6288,4.6678,4.7183,4.7482,4.7482,4.7941,4.824,4.824,4.8125,4.8125,4.824,4.824,4.8286,4.84,4.84,4.84,4.84,4.84,4.84,0.0,0.0,0.0,0.0,0.0,0.0,0.0,0.0,0.0,0.0,0.0,0.0,0.0,0.0,0.0,0.0,0.0,0.0,0.0,0.0,0.0,0.0,0.0,0.0,0.0,0.0,0.0,0.0,0.0,0.0,0.0,4.3159,4.3284,4.3284,4.3491,4.3615,4.3615,4.3615,4.3615,4.3615,4.3615,4.3615,4.3615,4.3615,4.4071,4.4805,4.5256,4.5309,4.5158,4.5587,4.5147,4.4366,4.4366,4.4503,4.4937,4.546,4.5866,4.6271,4.6808,4.7074,4.7074,4.7581,4.7449,4.7074,4.7581,4.7449,4.7074,4.7074,4.7074,4.6941,4.6271,4.654,4.6808,4.5619,4.654,4.7449,4.6405,4.6136,4.6025,4.5483,4.537,4.537,4.537,4.5074,4.4937,4.5347,4.5074,4.48,4.48,4.5004,4.5115,4.4945,4.5415,4.5796,4.6043,4.697,4.7264,4.6827,4.749,4.7648,4.7208,4.7208,4.7648,4.84,4.84,4.84,4.84,4.7941,4.8086,4.84,4.7648,4.7648,0.0,0.0,0.0,0.0,0.0,0.0,0.0,0.0,0.0,0.0,0.0,0.0,0.0,0.0,0.0,0.0,0.0,0.0,0.0,0.0,0.0,0.0,0.0,0.0,0.0,0.0,0.0,0.0,0.0,0.0,4.2249,4.26,4.2807,4.2807,4.3263,4.3491,4.3491,4.3573,4.3615,4.3615,4.3615,4.3615,4.3615,4.3615,4.3919,4.4654,4.4805,4.4634,4.4569,4.4626,4.4058,4.3228,4.3141,4.3514,4.409,4.409,4.4526,4.5074,4.5347,4.5347,4.5347,4.6136,4.5866,4.5347,4.6001,4.5731,4.4937,4.4937,4.4937,4.4937,4.4937,4.4937,4.4937,4.4937,4.5595,4.6001,4.5347,4.5074,4.4937,4.4937,4.4937,4.4937,4.4937,4.4503,4.425,4.5051,4.4433,4.4019,4.4197,4.4486,4.4472,4.4058,4.4801,4.5178,4.5412,4.6374,4.6743,4.6002,4.6596,4.6743,4.6002,4.6002,4.6596,4.7941,4.7941,4.7941,4.7941,4.7355,4.7355,4.7941,4.6596,4.6743,0.0,0.0,0.0,0.0,0.0,0.0,0.0,0.0,0.0,0.0,0.0,0.0,0.0,0.0,0.0,0.0,0.0,0.0,0.0,0.0,0.0,0.0,0.0,0.0,0.0,0.0,0.0,0.0,0.0,0.0,4.2249,4.2311,4.2352,4.2352,4.2787,4.3014,4.3014,4.3408,4.3615,4.3615,4.3615,4.3615,4.3615,4.3615,4.3615,4.3767,4.4504,4.4507,4.4166,4.4467,4.4255,4.3687,4.3272,4.3097,4.3375,4.3952,4.3814,4.3675,4.4937,4.4937,4.4366,4.4503,4.4503,4.4228,4.3791,4.3514,4.3375,4.3375,4.3375,4.3375,4.3375,4.3375,4.3375,4.3375,4.3514,4.3791,4.4228,4.3814,4.3375,4.3375,4.3375,4.3375,4.3375,4.3375,4.339,4.3947,4.3521,4.3543,4.4398,4.4201,4.4146,4.4997,4.507,4.5456,4.5871,4.6107,4.6151,4.6002,4.6151,4.6151,4.6002,4.6002,4.6151,4.6299,4.6299,4.6299,4.6299,4.6151,4.6151,4.6299,4.6151,4.6151,0.0,0.0,0.0,0.0,0.0,0.0,0.0,0.0,0.0,0.0,0.0,0.0,0.0,0.0,0.0,0.0,0.0,0.0,0.0,0.0,0.0,0.0,0.0,0.0,0.0,0.0,0.0,0.0,0.0,4.1276,4.1462,4.1731,4.1876,4.1876,4.2311,4.2663,4.2911,4.3118,4.3346,4.3615,4.3615,4.3615,4.3615,4.3615,4.3615,4.3615,4.3898,4.3799,4.3488,4.332,4.3,4.2513,4.2025,4.2138,4.2559,4.284,4.2979,4.3236,4.3952,4.3952,4.3536,4.3536,4.3536,4.3514,4.3236,4.3097,4.3097,4.3097,4.3097,4.3097,4.3097,4.3097,4.3236,4.3536,4.2979,4.2667,4.3578,4.3359,4.3097,4.3097,4.3316,4.3512,4.3512,4.3327,4.3443,4.4068,4.363,4.3386,4.3794,4.3902,4.3949,4.3912,4.4188,4.4442,4.4633,4.5106,4.5106,4.4654,4.5106,4.5106,4.4654,4.4654,4.4654,4.4654,4.5555,4.6002,4.6002,4.5555,4.5555,4.6002,4.5106,4.5106,0.0,0.0,0.0,0.0,0.0,0.0,0.0,0.0,0.0,0.0,0.0,0.0,0.0,0.0,0.0,0.0,0.0,0.0,0.0,0.0,0.0,0.0,0.0,0.0,0.0,0.0,0.0,0.0,0.0,4.0882,4.0882,4.1193,4.14,4.14,4.1835,4.2249,4.258,4.2807,4.3097,4.3428,4.3553,4.3615,4.3615,4.3615,4.3615,4.3615,4.3615,4.3408,4.3056,4.2621,4.2145,4.169,4.1234,4.1414,4.1735,4.1877,4.2278,4.2538,4.2958,4.2958,4.2818,4.2818,4.2818,4.284,4.2538,4.2538,4.2538,4.2538,4.2646,4.2732,4.2732,4.2818,4.3046,4.3349,4.2784,4.2179,4.2805,4.2878,4.2904,4.2904,4.3206,4.3443,4.3443,4.3188,4.3319,4.4009,4.3486,4.3214,4.3468,4.37,4.3572,4.3077,4.3408,4.3615,4.3615,4.4201,4.4201,4.3615,4.4201,4.4201,4.3615,4.3615,4.3615,4.3615,4.4805,4.5405,4.5405,4.4805,4.4805,4.5405,4.4201,4.4201,0.0,0.0,0.0,0.0,0.0,0.0,0.0,0.0,0.0,0.0,0.0,0.0,0.0,0.0,0.0,0.0,0.0,0.0,0.0,0.0,0.0,0.0,0.0,0.0,0.0,0.0,0.0,0.0,0.0,4.0882,4.0882,4.0903,4.0924,4.0924,4.1358,4.1607,4.1628,4.2497,4.2932,4.2973,4.3408,4.3615,4.3615,4.3615,4.3615,4.3615,4.3615,4.3594,4.3532,4.3077,4.2621,4.2186,4.171,4.1255,4.1025,4.1735,4.1573,4.1147,4.2538,4.27,4.2018,4.2018,4.2018,4.1877,4.1167,4.1004,4.1004,4.1004,4.1337,4.1669,4.1669,4.2001,4.2334,4.2334,4.2334,4.223,4.1814,4.2043,4.2334,4.2334,4.2354,4.2354,4.2354,4.2396,4.2541,4.2978,4.2666,4.2728,4.3428,4.318,4.3097,4.3532,4.3594,4.3615,4.3615,4.3615,4.3615,4.3615,4.3615,4.3615,4.3615,4.3615,4.3615,4.3615,4.3615,4.3767,4.3767,4.3615,4.3615,4.3767,4.3615,4.3615,0.0,0.0,0.0,0.0,0.0,0.0,0.0,0.0,0.0,0.0,0.0,0.0,0.0,0.0,0.0,0.0,0.0,0.0,0.0,0.0,0.0,0.0,0.0,0.0,0.0,0.0,0.0,0.0,0.0,0.0,4.0882,4.0882,4.0882,4.0882,4.1027,4.14,4.2,4.2621,4.3077,4.3366,4.3532,4.3615,4.3615,4.3615,4.3615,4.3615,4.3615,4.3615,4.3573,4.3118,4.2828,4.26,4.1855,4.1648,4.1731,4.1709,4.1605,4.1503,4.2228,4.2289,4.1791,4.2104,4.2188,4.2188,4.1918,4.1545,4.1379,4.1669,4.1669,4.1628,4.1938,4.2124,4.2249,4.2249,4.2704,4.2994,4.2538,4.2352,4.2249,4.2249,4.2497,4.2683,4.2683,4.2932,4.318,4.3346,4.3221,4.3242,4.3573,4.347,4.3428,4.3594,4.3615,4.3615,4.3615,4.3615,4.3615,4.3615,4.3615,4.3615,4.3615,4.3615,4.3615,4.3615,4.3615,4.3615,4.3615,4.3615,4.3615,4.3615,4.3615,4.3615,0.0,0.0,0.0,0.0,0.0,0.0,0.0,0.0,0.0,0.0,0.0,0.0,0.0,0.0,0.0,0.0,0.0,0.0,0.0,0.0,0.0,0.0,0.0,0.0,0.0,0.0,0.0,0.0,0.0,0.0,4.0882,4.0882,4.0882,4.0882,4.0882,4.1172,4.1793,4.2393,4.2766,4.2932,4.3387,4.3532,4.3387,4.3532,4.3615,4.3615,4.3615,4.3615,4.3594,4.3284,4.3056,4.2849,4.2249,4.2124,4.2228,4.1917,4.1793,4.1835,4.2145,4.2062,4.1855,4.2166,4.2249,4.2249,4.2249,4.2042,4.1855,4.2166,4.2145,4.2083,4.2393,4.26,4.2704,4.2704,4.318,4.3532,4.3221,4.2911,4.2704,4.2704,4.2952,4.3159,4.3159,4.3408,4.3615,4.3615,4.3615,4.3615,4.3615,4.3615,4.3615,4.3615,4.3615,4.3615,4.3615,4.3615,4.3615,4.3615,4.3615,4.3615,4.3615,4.3615,4.3615,4.3615,4.3615,4.3615,4.3615,4.3615,4.3615,4.3615,4.3615,4.3615,0.0,0.0,0.0,0.0,0.0,0.0,0.0,0.0,0.0,0.0,0.0,0.0,0.0,0.0,0.0,0.0,0.0,0.0,0.0,0.0,0.0,0.0,0.0,0.0,0.0,0.0,0.0,0.0,0.0,4.0862,4.0882,4.0882,4.0882,4.0882,4.0882,4.0882,4.0903,4.1793,4.2021,4.1607,4.2952,4.3346,4.2932,4.3408,4.3615,4.3615,4.3615,4.3615,4.3615,4.3615,4.3346,4.2932,4.2932,4.2663,4.229,4.229,4.2269,4.229,4.229,4.229,4.229,4.229,4.229,4.229,4.229,4.229,4.229,4.229,4.26,4.2932,4.2932,4.3263,4.3615,4.3615,4.3615,4.3615,4.3615,4.3615,4.3615,4.3615,4.3615,4.3615,4.3615,4.3615,4.3615,4.3615,4.3615,4.3615,4.3615,4.3615,4.3615,4.3615,4.3615,4.3615,4.3615,4.3615,4.3615,4.3615,4.3615,4.3615,4.3615,4.3615,4.3615,4.3615,4.3615,4.3615,4.3615,4.3615,4.3615,4.3615,4.3615,4.3615,1.9065,0.0,0.0,0.0,0.0,0.0,0.0,0.0,0.0,0.0,0.0,0.0,0.0,0.0,0.0,0.0,0.0,0.0,0.0,0.0,0.0,0.0,0.0,0.0,0.0,0.0,0.0,0.0,4.0344,4.0551,4.0862,4.0882,4.0882,4.0882,4.0882,4.1027,4.1379,4.1628,4.1855,4.2083,4.2787,4.3056,4.2932,4.3408,4.3615,4.3615,4.3615,4.3615,4.3615,4.3615,4.3532,4.3387,4.3056,4.3056,4.3201,4.287,4.2745,4.2787,4.3118,4.3014,4.2787,4.3139,4.3242,4.3242,4.3242,4.2994,4.2807,4.3139,4.3077,4.2994,4.3325,4.3511,4.3615,4.3615,4.3615,4.3615,4.3615,4.3615,4.3615,4.3615,4.3615,4.3615,4.3615,4.3615,4.3615,4.3615,4.3615,4.3615,4.3615,4.3615,4.3615,4.3615,4.3615,4.3615,4.3615,4.3615,4.3615,4.3615,4.3615,4.3615,4.3615,4.3615,4.3615,4.3615,4.3615,4.3615,4.3615,4.3615,4.3615,4.3615,4.3615,4.3615,0.0,0.0,0.0,0.0,0.0,0.0,0.0,0.0,0.0,0.0,0.0,0.0,0.0,0.0,0.0,0.0,0.0,0.0,0.0,0.0,0.0,0.0,0.0,0.0,0.0,0.0,0.0,3.964,3.9827,4.0137,4.0572,4.0758,4.0882,4.0882,4.0882,4.1007,4.1276,4.1462,4.171,4.1979,4.2435,4.2745,4.2932,4.3201,4.3428,4.3615,4.3615,4.3615,4.3615,4.3615,4.3615,4.3594,4.3325,4.3366,4.3573,4.3304,4.3201,4.3242,4.3511,4.3428,4.3263,4.3532,4.3615,4.3615,4.3615,4.3428,4.3263,4.3532,4.3408,4.3263,4.3532,4.3615,4.3615,4.3615,4.3615,4.3615,4.3615,4.3615,4.3615,4.3615,4.3615,4.3615,4.3615,4.3615,4.3615,4.3615,4.3615,4.3615,4.3615,4.3615,4.3615,4.3615,4.3615,4.3615,4.3615,4.3615,4.3615,4.3615,4.3615,4.3615,4.3615,4.3615,4.3615,4.3615,4.3615,4.3615,4.3615,4.3615,4.3615,4.3615,4.3615,4.3615,2.2439,2.2894,0.0,0.0,0.0,0.0,2.6724,2.6227,0.0,0.0,0.0,0.0,0.0,0.0,0.0,0.0,0.0,0.0,0.0,0.0,0.0,0.0,0.0,0.0,0.0,3.846,3.873,3.8833,3.9268,3.9723,4.0158,4.0572,4.082,4.0882,4.0882,4.0882,4.0882,4.1276,4.1483,4.1503,4.1959,4.2393,4.2766,4.287,4.3139,4.3532,4.3594,4.3615,4.3615,4.3615,4.3615,4.3615,4.3615,4.3615,4.3615,4.3615,4.3615,4.3615,4.3615,4.3615,4.3615,4.3615,4.3615,4.3615,4.3615,4.3615,4.3615,4.3615,4.3615,4.3615,4.3615,4.3615,4.3615,4.3615,4.3615,4.3615,4.3615,4.3615,4.3615,4.3615,4.3615,4.3615,4.3615,4.3615,4.3615,4.3615,4.3615,4.3615,4.3615,4.3615,4.3615,4.3615,4.3615,4.3615,4.3615,4.3615,4.3615,4.3615,4.3615,4.3615,4.3615,4.3615,4.3615,4.3615,4.3615,4.3615,4.3615,4.3615,4.3615,4.3615,4.3615,4.3615,2.4799,2.5502,2.6206,2.5088,0.0,0.0,2.4447,2.4405,0.0,0.0,0.0,0.0,0.0,0.0,0.0,0.0,0.0,0.0,0.0,0.0,0.0,0.0,0.0,0.0,0.0,3.7715,3.8067,3.8792,3.9268,3.9744,4.0199,4.0303,4.051,4.0862,4.0882,4.0882,4.0882,4.0965,4.1007,4.1007,4.1483,4.1752,4.1855,4.258,4.2973,4.3077,4.3449,4.3615,4.3615,4.3615,4.3615,4.3615,4.3615,4.3615,4.3615,4.3615,4.3615,4.3615,4.3615,4.3615,4.3615,4.3615,4.3615,4.3615,4.3615,4.3615,4.3615,4.3615,4.3615,4.3615,4.3615,4.3615,4.3615,4.3615,4.3615,4.3615,4.3615,4.3615,4.3615,4.3615,4.3615,4.3615,4.3615,4.3615,4.3615,4.3615,4.3615,4.3615,4.3615,4.3615,4.3615,4.3615,4.3615,4.3615,4.3615,4.3615,4.3615,4.3615,4.3615,4.3615,4.3615,4.3615,4.3615,4.3615,4.3615,4.3615,4.3615,4.3615,4.3615,4.3615,4.3615,4.3615,2.6889,2.7241,2.7717,2.6806,0.0,0.0,0.0,0.0,0.0,0.0,0.0,0.0,0.0,0.0,0.0,0.0,0.0,0.0,0.0,0.0,0.0,0.0,0.0,0.0,0.0,3.6804,3.7177,3.8109,3.8605,3.9061,3.9516,3.9972,4.0323,4.0551,4.0758,4.0882,4.0882,4.0882,4.0986,4.1214,4.1214,4.1462,4.1917,4.2145,4.2497,4.2932,4.3159,4.3387,4.3615,4.3615,4.3615,4.3615,4.3615,4.3615,4.3615,4.3615,4.3615,4.3615,4.3615,4.3615,4.3615,4.3615,4.3615,4.3615,4.3615,4.3615,4.3615,4.3615,4.3615,4.3615,4.3615,4.3615,4.3615,4.3615,4.3615,4.3615,4.3615,4.3615,4.3615,4.3615,4.3615,4.3615,4.3615,4.3615,4.3615,4.3615,4.3615,4.3615,4.3615,4.3615,4.3615,4.3615,4.3615,4.3615,4.3615,4.3615,4.3615,4.3615,4.3615,4.3615,4.3615,4.3615,4.3615,4.3615,4.3615,4.3615,4.3615,4.3615,4.3615,4.3615,4.3615,4.3615,0.0,0.0,0.0,0.0,0.0,2.7821,0.0,0.0,0.0,2.6951,0.0,0.0,0.0,0.0,0.0,0.0,0.0,0.0,0.0,0.0,0.0,0.0,0.0,0.0,0.0,3.5583,3.6039,3.7136,3.7405,3.7881,3.8667,3.9516,4.0054,4.022,4.0572,4.08,4.0882,4.0882,4.1069,4.1421,4.1048,4.1276,4.1979,4.169,4.2021,4.2807,4.289,4.318,4.3615,4.3615,4.3615,4.3615,4.3615,4.3615,4.3615,4.3615,4.3615,4.3615,4.3615,4.3615,4.3615,4.3615,4.3615,4.3615,4.3615,4.3615,4.3615,4.3615,4.3615,4.3615,4.3615,4.3615,4.3615,4.3615,4.3615,4.3615,4.3615,4.3615,4.3615,4.3615,4.3615,4.3615,4.3615,4.3615,4.3615,4.3615,4.3615,4.3615,4.3615,4.3615,4.3615,4.3615,4.3615,4.3615,4.3615,4.3615,4.3615,4.3615,4.3615,4.3615,4.3615,4.3615,4.3615,4.3615,4.3615,4.3615,4.3615,4.3615,4.3615,4.3615,4.3615,4.3615,0.0,0.0,0.0,0.0,2.9477,0.0,0.0,0.0,2.6061,2.513,0.0,0.0,0.0,0.0,0.0,0.0,0.0,0.0,0.0,0.0,0.0,0.0,0.0,0.0,0.0,0.0,3.4403,3.6142,3.5583,3.6059,3.815,3.873,3.9392,4.0199,4.0282,4.0489,4.0862,4.0882,4.0903,4.0944,4.0903,4.0924,4.1048,4.14,4.1855,4.2352,4.2745,4.318,4.3615,4.3615,4.3615,4.3615,4.3615,4.3615,4.3615,4.3615,4.3615,4.3615,4.3615,4.3615,4.3615,4.3615,4.3615,4.3615,4.3615,4.3615,4.3615,4.3615,4.3615,4.3615,4.3615,4.3615,4.3615,4.3615,4.3615,4.3615,4.3615,4.3615,4.3615,4.3615,4.3615,4.3615,4.3615,4.3615,4.3615,4.3615,4.3615,4.3615,4.3615,4.3615,4.3615,4.3615,4.3615,4.3615,4.3615,4.3615,4.3615,4.3615,4.3615,4.3615,4.3615,4.3615,4.3615,4.3615,4.3615,4.3615,4.3615,4.3615,4.3615,4.3615,4.3615,4.3615,0.0,0.0,0.0,0.0,0.0,0.0,2.7138,0.0,2.631,0.0,0.0,0.0,0.0,0.0,0.0,0.0,0.0,0.0,0.0,0.0,0.0,0.0,0.0,0.0,0.0,0.0,0.0,0.0,0.0,3.4693,3.7239,3.7819,3.8605,3.9785,4.0096,4.0448,4.0862,4.0882,4.0882,4.0882,4.0882,4.0882,4.0882,4.1069,4.1565,4.2269,4.2456,4.2952,4.3615,4.3615,4.3615,4.3615,4.3615,4.3615,4.3615,4.3615,4.3615,4.3615,4.3615,4.3615,4.3615,4.3615,4.3615,4.3615,4.3615,4.3615,4.3615,4.3615,4.3615,4.3615,4.3615,4.3615,4.3615,4.3615,4.3615,4.3615,4.3615,4.3615,4.3615,4.3615,4.3615,4.3615,4.3615,4.3615,4.3615,4.3615,4.3615,4.3615,4.3615,4.3615,4.3615,4.3615,4.3615,4.3615,4.3615,4.3615,4.3615,4.3615,4.3615,4.3615,4.3615,4.3615,4.3615,4.3615,4.281,4.2503,4.2503,4.1733,4.1424,4.1424,4.2984,4.3615,3.2168,0.0,0.0,0.0,0.0,0.0,0.0,0.0,0.0,0.0,0.0,0.0,0.0,0.0,0.0,0.0,0.0,0.0,0.0,0.0,0.0,0.0,0.0,0.0,0.0,0.0,0.0,0.0,0.0,0.0,3.6266,3.6991,3.7881,3.9123,3.9744,4.0241,4.0675,4.082,4.0882,4.0882,4.0882,4.0882,4.0882,4.0882,4.1317,4.2083,4.2207,4.2704,4.3428,4.3553,4.3615,4.3615,4.3615,4.3615,4.3615,4.3615,4.3615,4.3615,4.3615,4.3615,4.3615,4.3615,4.3615,4.3615,4.3615,4.3615,4.3615,4.3615,4.3615,4.3615,4.3615,4.3615,4.3615,4.3615,4.3615,4.3615,4.3615,4.3615,4.3615,4.3615,4.3615,4.3615,4.3615,4.3615,4.3615,4.3615,4.3615,4.3615,4.3615,4.3615,4.3615,4.3615,4.3615,4.3615,4.3615,4.3615,4.3462,4.3136,4.3442,4.3442,4.3136,4.3442,4.3615,4.3615,4.235,4.1693,4.1693,4.0471,3.9864,3.9864,4.1733,4.2524,0.0,0.0,0.0,2.9559,0.0,0.0,0.0,0.0,2.7883,0.0,0.0,0.0,0.0,0.0,0.0,0.0,0.0,0.0,0.0,0.0,0.0,0.0,0.0,0.0,0.0,0.0,0.0,0.0,0.0,0.0,3.5273,3.6328,3.726,3.8191,3.9102,3.9765,4.0199,4.0655,4.0882,4.0882,4.0882,4.0882,4.0882,4.0882,4.1131,4.1607,4.2062,4.2518,4.2973,4.3428,4.3615,4.3615,4.3615,4.3615,4.3615,4.3615,4.3615,4.3615,4.3615,4.3615,4.3615,4.3615,4.3615,4.3615,4.3615,4.3615,4.3615,4.3615,4.3615,4.3615,4.3615,4.3615,4.3615,4.3615,4.3615,4.3615,4.3615,4.3615,4.3615,4.3615,4.3615,4.3615,4.3615,4.3615,4.3615,4.3615,4.3615,4.3615,4.3615,4.3615,4.3615,4.3615,4.3615,4.3615,4.3615,4.3615,4.3136,4.1868,4.2984,4.2984,4.1868,4.2963,4.3615,4.3615,4.235,4.1693,4.1693,4.0471,3.9864,3.9864,3.9845,4.0002,0.0,0.0,3.4693,3.165,0.0,0.0,0.0,0.0,0.0,0.0,0.0,0.0,0.0,0.0,0.0,2.6724,0.0,0.0,0.0,0.0,0.0,0.0,0.0,0.0,0.0,0.0,0.0,0.0,0.0,0.0,0.0,3.5397,3.6453,3.7695,3.8916,3.9765,4.022,4.0655,4.0882,4.0882,4.0882,4.0882,4.0882,4.0882,4.1296,4.2042,4.2186,4.2683,4.3387,4.3553,4.3615,4.3462,4.2657,4.233,4.2503,4.3289,4.3615,4.3615,4.3615,4.3615,4.3615,4.3615,4.3615,4.3615,4.3615,4.3615,4.3615,4.3615,4.3615,4.3615,4.3615,4.3615,4.3615,4.3615,4.3615,4.3615,4.3615,4.3615,4.3615,4.3615,4.3615,4.3615,4.3615,4.3615,4.3615,4.3615,4.3615,4.3615,4.3615,4.3615,4.3615,4.3615,4.3615,4.3615,4.3615,4.281,4.2176,4.1713,4.1404,4.0958,4.0471,4.0958,4.1113,4.1113,3.9845,3.9216,3.9216,3.7968,3.7348,3.7348,3.7348,3.8286,3.5707,3.5894,0.0,3.312,3.2085,0.0,2.8918,0.0,0.0,0.0,0.0,0.0,0.0,0.0,0.0,2.7386,2.6496,0.0,0.0,0.0,0.0,0.0,0.0,0.0,0.0,0.0,2.7013,2.9332,0.0,0.0,0.0,0.0,3.5914,3.697,3.8647,3.9682,3.9972,4.0572,4.0882,4.0882,4.0882,4.0882,4.0882,4.0882,4.1049,4.1187,4.1514,4.1664,4.1907,4.2229,4.2216,4.2196,4.1404,4.1094,4.1249,4.2503,4.3136,4.3615,4.3615,4.3615,4.3615,4.3615,4.3615,4.3615,4.3615,4.3615,4.3615,4.3615,4.3615,4.3615,4.3615,4.3615,4.3615,4.3615,4.3289,4.2984,4.2984,4.2524,4.2216,4.2216,4.2216,4.235,4.281,4.2503,4.237,4.283,4.2984,4.2984,4.2984,4.2503,4.2677,4.3462,4.3136,4.3136,4.3615,4.2483,4.1559,4.1094,4.0334,3.9707,3.9235,3.9707,3.9864,3.9864,3.8603,3.8022,3.8166,3.6776,3.6234,3.6491,3.6337,3.7309]},{"header":{"parameterUnit":"m.s-1","parameterCategory":1,"la1":30.6,"la2":29.2853,"lo1":-89.7004,"lo2":-87.6739,"dy":0.0162,"dx":0.0183,"nx":112,"ny":82,"refTime":"2024-08-04T06:00:00:Z","depth":0,"parameterNumber":3,"parameterNumberName":"V-component_of_WINDS"},"data":[0.0,0.0,0.0,0.0,0.0,0.0,0.0,0.0,0.0,0.0,0.0,0.0,0.0,0.0,0.0,0.0,0.0,0.0,0.0,0.0,0.0,0.0,0.0,0.0,0.0,0.0,0.0,0.0,0.0,0.0,0.0,0.0,0.0,0.0,0.0,0.0,0.0,0.0,0.0,0.0,0.0,0.0,0.0,0.0,0.0,0.0,0.0,0.0,0.0,0.0,0.0,0.0,0.0,0.0,0.0,0.0,0.0,0.0,0.0,0.0,0.0,0.0,0.0,0.0,0.0,0.0,0.0,0.0,0.0,0.0,0.0,0.0,0.0,0.0,0.0,0.0,0.0,0.0,0.0,0.0,0.0,0.0,0.0,0.0,0.0,0.0,0.0,0.0,0.0,0.0,0.0,-2.5705,-2.7468,-2.8522,-2.8522,-2.8426,-2.6576,-2.2271,0.0,0.0,0.0,0.0,0.0,0.0,0.0,0.0,0.0,0.0,0.0,0.0,0.0,0.0,0.0,0.0,0.0,0.0,0.0,0.0,0.0,0.0,0.0,0.0,0.0,0.0,0.0,0.0,0.0,0.0,0.0,0.0,0.0,0.0,0.0,0.0,0.0,0.0,0.0,0.0,0.0,0.0,0.0,0.0,0.0,0.0,0.0,0.0,0.0,0.0,0.0,0.0,0.0,0.0,0.0,0.0,0.0,0.0,0.0,0.0,0.0,0.0,0.0,0.0,0.0,0.0,0.0,0.0,0.0,0.0,0.0,0.0,0.0,0.0,0.0,0.0,0.0,0.0,0.0,0.0,0.0,0.0,0.0,0.0,0.0,0.0,0.0,0.0,0.0,0.0,0.0,0.0,0.0,0.0,0.0,0.0,0.0,0.0,0.0,0.0,0.0,0.0,0.0,0.0,-2.328,-2.6935,-2.8041,-2.8522,-2.8522,-2.8089,-2.6123,-2.2248,0.0,0.0,0.0,0.0,0.0,0.0,0.0,0.0,0.0,0.0,0.0,0.0,0.0,0.0,0.0,0.0,0.0,0.0,0.0,0.0,0.0,0.0,0.0,0.0,0.0,0.0,0.0,0.0,0.0,0.0,0.0,0.0,0.0,0.0,0.0,0.0,0.0,0.0,0.0,0.0,0.0,0.0,0.0,0.0,0.0,0.0,0.0,0.0,0.0,0.0,0.0,0.0,0.0,0.0,0.0,0.0,0.0,0.0,0.0,0.0,0.0,0.0,0.0,0.0,0.0,0.0,0.0,0.0,0.0,0.0,0.0,0.0,0.0,0.0,0.0,0.0,0.0,0.0,0.0,0.0,0.0,0.0,0.0,0.0,0.0,0.0,0.0,0.0,0.0,0.0,0.0,0.0,0.0,0.0,0.0,0.0,0.0,0.0,0.0,0.0,0.0,0.0,0.0,-2.2959,-2.4905,-2.7956,-2.8433,-2.8522,-2.8522,-2.8017,-2.6202,-2.2731,-2.1122,0.0,0.0,0.0,0.0,0.0,0.0,0.0,0.0,0.0,0.0,0.0,0.0,0.0,0.0,0.0,0.0,0.0,0.0,0.0,0.0,0.0,0.0,0.0,0.0,0.0,0.0,0.0,0.0,0.0,0.0,0.0,0.0,0.0,0.0,0.0,0.0,0.0,0.0,0.0,0.0,0.0,0.0,0.0,0.0,0.0,0.0,0.0,0.0,0.0,0.0,0.0,0.0,0.0,0.0,0.0,0.0,0.0,0.0,0.0,0.0,0.0,0.0,0.0,0.0,0.0,0.0,0.0,0.0,0.0,0.0,0.0,0.0,0.0,0.0,0.0,0.0,0.0,0.0,0.0,0.0,0.0,0.0,0.0,0.0,0.0,0.0,0.0,0.0,0.0,0.0,0.0,0.0,0.0,0.0,0.0,0.0,0.0,0.0,0.0,0.0,0.0,0.0,-2.5546,-2.6773,-2.8597,-2.8657,-2.8522,-2.8522,-2.7681,-2.5898,-2.2887,-2.0523,0.0,0.0,0.0,0.0,0.0,0.0,0.0,0.0,0.0,0.0,0.0,0.0,0.0,0.0,0.0,0.0,0.0,0.0,0.0,0.0,0.0,0.0,0.0,0.0,0.0,0.0,0.0,0.0,0.0,0.0,0.0,0.0,0.0,0.0,0.0,0.0,0.0,0.0,0.0,0.0,0.0,0.0,0.0,0.0,0.0,0.0,0.0,0.0,0.0,0.0,0.0,0.0,0.0,0.0,0.0,0.0,0.0,0.0,0.0,0.0,0.0,0.0,0.0,0.0,0.0,0.0,0.0,0.0,0.0,0.0,0.0,0.0,0.0,0.0,0.0,0.0,0.0,0.0,0.0,0.0,0.0,0.0,0.0,0.0,0.0,0.0,0.0,0.0,0.0,0.0,0.0,0.0,0.0,0.0,0.0,0.0,0.0,0.0,0.0,0.0,0.0,0.0,-2.5881,-2.7777,-2.867,-2.8657,-2.8522,-2.8522,-2.6647,-2.4493,-2.2329,-1.8964,0.0,0.0,0.0,0.0,0.0,0.0,0.0,0.0,0.0,0.0,0.0,0.0,0.0,0.0,0.0,0.0,0.0,0.0,0.0,0.0,0.0,0.0,0.0,0.0,0.0,0.0,0.0,0.0,0.0,0.0,0.0,0.0,0.0,0.0,0.0,0.0,0.0,0.0,0.0,0.0,0.0,0.0,0.0,0.0,0.0,0.0,0.0,0.0,0.0,0.0,0.0,0.0,0.0,0.0,0.0,0.0,0.0,0.0,0.0,0.0,0.0,0.0,0.0,0.0,0.0,0.0,0.0,0.0,0.0,0.0,0.0,0.0,0.0,0.0,0.0,0.0,0.0,0.0,0.0,0.0,0.0,0.0,0.0,0.0,0.0,0.0,0.0,0.0,0.0,0.0,0.0,0.0,0.0,0.0,0.0,0.0,0.0,0.0,0.0,0.0,0.0,0.0,-2.5247,-2.7017,0.0,-2.8657,-2.8522,-2.8522,-2.7176,-2.5301,-2.2852,0.0,0.0,0.0,0.0,0.0,0.0,0.0,0.0,0.0,0.0,0.0,0.0,0.0,0.0,0.0,0.0,0.0,0.0,0.0,0.0,0.0,0.0,0.0,0.0,0.0,0.0,0.0,0.0,0.0,0.0,0.0,0.0,0.0,0.0,0.0,0.0,0.0,0.0,0.0,0.0,0.0,0.0,0.0,0.0,0.0,0.0,0.0,0.0,0.0,0.0,0.0,0.0,0.0,0.0,0.0,0.0,0.0,0.0,0.0,0.0,0.0,0.0,0.0,0.0,0.0,0.0,0.0,0.0,0.0,0.0,0.0,0.0,0.0,0.0,0.0,0.0,0.0,0.0,0.0,0.0,0.0,0.0,0.0,0.0,0.0,0.0,0.0,0.0,0.0,0.0,0.0,0.0,0.0,0.0,0.0,0.0,0.0,0.0,0.0,0.0,0.0,0.0,-2.3654,-2.5512,-2.7213,0.0,-2.8895,-2.8657,-2.8657,-2.723,-2.5274,-2.2998,0.0,0.0,0.0,0.0,0.0,0.0,0.0,0.0,0.0,0.0,0.0,0.0,0.0,0.0,0.0,0.0,0.0,0.0,0.0,0.0,0.0,0.0,0.0,0.0,0.0,0.0,0.0,0.0,0.0,0.0,0.0,0.0,0.0,0.0,0.0,0.0,0.0,0.0,0.0,0.0,0.0,0.0,0.0,0.0,0.0,0.0,0.0,0.0,0.0,0.0,0.0,0.0,0.0,0.0,0.0,0.0,0.0,0.0,0.0,0.0,0.0,0.0,0.0,0.0,0.0,0.0,0.0,0.0,0.0,0.0,0.0,0.0,0.0,0.0,0.0,0.0,0.0,0.0,0.0,0.0,0.0,0.0,0.0,0.0,0.0,0.0,0.0,0.0,0.0,0.0,0.0,0.0,0.0,0.0,0.0,0.0,0.0,0.0,0.0,0.0,0.0,0.0,-2.4392,-2.7005,-2.8822,-2.9369,-2.9209,-2.9131,-2.9131,-2.6528,-2.4237,0.0,0.0,0.0,0.0,0.0,0.0,0.0,0.0,0.0,0.0,0.0,0.0,0.0,0.0,0.0,0.0,0.0,0.0,0.0,0.0,0.0,0.0,0.0,0.0,0.0,0.0,0.0,0.0,0.0,0.0,0.0,0.0,0.0,0.0,0.0,0.0,0.0,0.0,0.0,0.0,0.0,0.0,0.0,0.0,0.0,0.0,0.0,0.0,0.0,0.0,0.0,0.0,0.0,0.0,0.0,0.0,0.0,0.0,0.0,0.0,0.0,0.0,0.0,0.0,0.0,0.0,0.0,0.0,0.0,0.0,0.0,0.0,0.0,0.0,0.0,0.0,0.0,0.0,0.0,0.0,0.0,0.0,0.0,0.0,0.0,0.0,0.0,0.0,0.0,0.0,0.0,0.0,0.0,0.0,0.0,0.0,0.0,0.0,0.0,0.0,0.0,0.0,0.0,-2.452,-2.7545,-2.9478,-2.9422,-2.9209,-2.9052,-2.887,-2.7456,-2.5338,-2.2466,0.0,0.0,0.0,0.0,0.0,0.0,0.0,0.0,0.0,0.0,0.0,0.0,0.0,0.0,0.0,0.0,0.0,0.0,0.0,0.0,0.0,0.0,0.0,0.0,0.0,0.0,0.0,0.0,0.0,0.0,0.0,0.0,0.0,0.0,0.0,0.0,0.0,0.0,0.0,0.0,0.0,0.0,0.0,0.0,0.0,0.0,0.0,0.0,0.0,0.0,0.0,0.0,0.0,0.0,0.0,0.0,0.0,0.0,0.0,0.0,0.0,0.0,0.0,0.0,0.0,0.0,0.0,0.0,0.0,0.0,0.0,0.0,0.0,0.0,0.0,0.0,0.0,0.0,0.0,0.0,0.0,0.0,0.0,0.0,0.0,0.0,0.0,0.0,0.0,0.0,0.0,0.0,0.0,0.0,0.0,0.0,0.0,0.0,0.0,0.0,0.0,0.0,-2.457,-2.8004,-3.0083,-2.9626,-2.9443,-2.9287,-2.9209,-2.8243,-2.6334,-2.3247,0.0,0.0,0.0,0.0,0.0,0.0,0.0,0.0,0.0,0.0,0.0,0.0,0.0,0.0,0.0,0.0,0.0,0.0,0.0,0.0,0.0,0.0,0.0,0.0,0.0,0.0,0.0,0.0,0.0,0.0,0.0,0.0,0.0,0.0,0.0,0.0,0.0,0.0,0.0,0.0,0.0,0.0,0.0,0.0,0.0,0.0,0.0,0.0,0.0,0.0,0.0,0.0,0.0,0.0,0.0,0.0,0.0,0.0,0.0,0.0,0.0,0.0,0.0,0.0,0.0,0.0,0.0,0.0,0.0,0.0,0.0,0.0,0.0,0.0,0.0,0.0,0.0,0.0,0.0,0.0,0.0,0.0,0.0,0.0,0.0,0.0,0.0,0.0,0.0,0.0,0.0,0.0,0.0,0.0,0.0,0.0,0.0,0.0,0.0,0.0,0.0,0.0,-2.4849,-2.855,-3.0771,-3.0011,-2.9856,-2.9804,-2.9779,-2.887,-2.7262,-2.4666,0.0,0.0,0.0,0.0,0.0,0.0,0.0,0.0,0.0,0.0,0.0,0.0,0.0,0.0,0.0,0.0,0.0,0.0,0.0,0.0,0.0,0.0,0.0,0.0,0.0,0.0,0.0,0.0,0.0,0.0,0.0,0.0,0.0,0.0,0.0,0.0,0.0,0.0,0.0,0.0,0.0,0.0,0.0,0.0,0.0,0.0,0.0,0.0,0.0,0.0,0.0,0.0,0.0,0.0,0.0,0.0,0.0,0.0,0.0,0.0,-2.725,0.0,0.0,0.0,0.0,0.0,0.0,0.0,0.0,0.0,0.0,0.0,0.0,0.0,0.0,0.0,0.0,0.0,0.0,0.0,0.0,0.0,0.0,0.0,0.0,0.0,0.0,0.0,0.0,0.0,0.0,0.0,0.0,0.0,0.0,0.0,0.0,0.0,0.0,0.0,0.0,0.0,-2.6227,-2.9598,-3.1563,-3.0771,-3.0139,-2.9702,-2.9521,-2.8946,-2.7581,-2.5093,-2.3255,0.0,0.0,0.0,0.0,0.0,0.0,0.0,0.0,0.0,0.0,0.0,0.0,0.0,0.0,0.0,0.0,0.0,0.0,0.0,0.0,0.0,0.0,0.0,0.0,0.0,0.0,0.0,0.0,0.0,0.0,0.0,0.0,0.0,0.0,0.0,0.0,0.0,0.0,0.0,0.0,0.0,0.0,0.0,0.0,0.0,0.0,0.0,0.0,0.0,0.0,0.0,0.0,0.0,0.0,0.0,0.0,0.0,0.0,0.0,0.0,-2.9287,0.0,0.0,0.0,0.0,0.0,0.0,0.0,0.0,0.0,0.0,0.0,0.0,0.0,0.0,0.0,0.0,0.0,0.0,0.0,0.0,0.0,0.0,0.0,0.0,0.0,0.0,0.0,0.0,0.0,0.0,0.0,0.0,0.0,0.0,0.0,0.0,0.0,0.0,0.0,0.0,-2.748,-3.0597,-3.2472,-3.1937,-3.0927,-3.0266,-3.0012,-2.9324,-2.8075,-2.6186,-2.4749,0.0,0.0,0.0,0.0,0.0,0.0,0.0,0.0,0.0,0.0,0.0,0.0,0.0,0.0,0.0,0.0,0.0,0.0,0.0,0.0,0.0,0.0,0.0,0.0,0.0,0.0,0.0,0.0,0.0,0.0,0.0,0.0,0.0,0.0,0.0,0.0,0.0,0.0,0.0,0.0,0.0,0.0,0.0,0.0,0.0,0.0,0.0,0.0,0.0,0.0,0.0,0.0,0.0,-3.7476,-3.8144,-3.9044,-3.916,-3.9567,-3.9973,-3.617,-3.4485,-3.4155,0.0,0.0,0.0,0.0,0.0,0.0,0.0,0.0,0.0,0.0,0.0,0.0,0.0,0.0,0.0,0.0,0.0,0.0,0.0,0.0,0.0,0.0,0.0,0.0,0.0,-3.289,-3.3093,0.0,0.0,0.0,0.0,0.0,0.0,0.0,0.0,0.0,0.0,0.0,0.0,-2.9041,-3.1706,-3.3421,-3.3348,-3.2145,-3.1202,-3.1052,-2.9985,-2.8919,-2.7779,-2.6481,-2.4929,0.0,0.0,0.0,0.0,0.0,0.0,0.0,0.0,0.0,0.0,0.0,0.0,0.0,0.0,0.0,0.0,0.0,0.0,0.0,0.0,0.0,0.0,0.0,0.0,0.0,0.0,0.0,0.0,0.0,0.0,0.0,0.0,-2.3978,-2.5923,0.0,0.0,0.0,0.0,0.0,0.0,0.0,0.0,0.0,0.0,0.0,0.0,0.0,-3.707,-3.8173,-4.0118,-4.0873,-4.0495,-4.2179,-4.276,-4.2382,-4.2963,-4.3573,-4.4066,-4.2963,0.0,-3.7387,-3.4882,0.0,0.0,0.0,0.0,0.0,0.0,0.0,0.0,0.0,0.0,0.0,0.0,0.0,0.0,0.0,0.0,0.0,0.0,0.0,0.0,0.0,0.0,-3.6257,-3.5706,-3.6199,-3.6489,0.0,-3.1555,-2.8332,-2.7984,-2.6068,0.0,0.0,0.0,0.0,0.0,0.0,0.0,-3.1622,-3.3185,-3.4281,-3.4826,-3.3586,-3.2685,-3.2685,-3.1408,-3.041,-2.9788,-2.8442,-2.7105,-2.5723,-2.4226,0.0,0.0,0.0,0.0,0.0,0.0,0.0,0.0,0.0,0.0,0.0,0.0,0.0,0.0,0.0,0.0,0.0,0.0,0.0,0.0,0.0,0.0,0.0,0.0,0.0,0.0,0.0,0.0,0.0,-2.4239,-2.662,-2.8187,-2.8507,-2.8065,0.0,0.0,0.0,0.0,0.0,0.0,0.0,0.0,0.0,-3.8492,-3.9509,-4.0757,-4.2382,-4.3602,-4.4443,-4.4879,-4.5721,-4.5953,-4.5692,-4.5605,-4.5721,-4.5953,-4.5314,-4.3892,-4.1773,-3.9118,-3.6802,-3.4807,0.0,0.0,0.0,0.0,-3.2191,-3.3058,-3.4893,-3.5552,0.0,-3.4621,0.0,0.0,0.0,0.0,0.0,0.0,0.0,0.0,0.0,0.0,0.0,-3.7912,-3.8405,-3.8783,-3.8492,-3.6112,-3.3499,0.0,-3.019,-2.839,-2.5923,0.0,0.0,0.0,0.0,0.0,-3.3245,-3.4651,-3.5611,-3.6343,-3.5068,-3.4159,-3.4057,-3.2739,-3.1563,-3.0572,-2.9656,-2.8575,-2.7287,-2.5984,-2.4411,0.0,0.0,0.0,0.0,0.0,0.0,0.0,0.0,0.0,0.0,0.0,0.0,0.0,0.0,0.0,0.0,0.0,0.0,0.0,0.0,0.0,0.0,0.0,0.0,0.0,0.0,0.0,0.0,-2.7142,-2.9435,-3.0684,-3.2251,-3.2425,0.0,0.0,0.0,0.0,0.0,0.0,-3.7414,-3.8732,-4.0234,-4.2005,-4.2731,-4.3747,-4.514,-4.5634,-4.6359,-4.7288,-4.7288,-4.7288,-4.7288,-4.6795,-4.6592,-4.6563,-4.6098,-4.5605,-4.4966,-4.2478,-4.0545,-3.9054,-3.7544,-3.6561,-3.5992,-3.6828,-3.7456,-3.811,-3.9886,-4.0588,-4.0612,-3.9218,0.0,-3.5938,-3.3703,0.0,0.0,0.0,0.0,-3.5851,-3.6809,-3.7999,-3.9015,-3.9363,-3.9915,-4.0321,-4.0147,-3.9363,-3.7883,0.0,-3.3906,-3.228,-2.9261,0.0,0.0,0.0,0.0,-3.2948,-3.4893,-3.5967,-3.6809,-3.7476,-3.6413,-3.5645,-3.5469,-3.3974,-3.2643,-3.1654,-3.0905,-3.0036,-2.895,-2.7878,-2.6801,-2.5648,0.0,0.0,0.0,0.0,0.0,0.0,0.0,0.0,0.0,0.0,0.0,0.0,0.0,0.0,0.0,0.0,0.0,0.0,0.0,0.0,0.0,0.0,0.0,0.0,0.0,0.0,0.0,0.0,0.0,-3.4022,-3.6373,0.0,0.0,0.0,0.0,-3.5967,-3.7215,-3.8841,-4.0764,-4.2092,-4.334,-4.4647,-4.5343,-4.575,-4.5837,-4.5866,-4.5924,-4.5982,-4.5982,-4.5982,-4.5982,-4.5953,-4.5924,-4.5924,-4.5895,-4.5866,-4.5721,-4.4385,-4.3079,-4.1749,-4.0288,-3.9767,-3.9787,-3.9722,-4.0624,-4.186,-4.1922,-4.2382,-4.2847,-4.2731,-4.1018,-3.9073,-3.9509,-3.7941,0.0,0.0,-3.7941,-3.8986,-3.9044,-4.0002,-4.0786,-4.0205,-4.0554,-4.0873,-4.0234,-4.0031,-3.9596,0.0,-3.6489,-3.498,-3.4167,0.0,-3.3325,-3.3935,-3.4167,-3.498,-3.6896,-3.7215,-3.7476,-3.8086,-3.7622,-3.7171,-3.7171,-3.5265,-3.3952,-3.3459,-3.2545,-3.1783,-3.1315,-3.0467,-2.9689,-2.9119,-2.6,0.0,0.0,0.0,0.0,0.0,0.0,0.0,0.0,0.0,0.0,0.0,0.0,0.0,0.0,0.0,0.0,0.0,0.0,0.0,0.0,0.0,0.0,0.0,0.0,0.0,0.0,0.0,0.0,-3.7767,-3.9247,0.0,0.0,-3.887,-3.9567,-4.0002,-4.1221,-4.2586,-4.4095,-4.4995,-4.5866,-4.6737,-4.6969,-4.7288,-4.7724,-4.7724,-4.7927,-4.8333,-4.8333,-4.8333,-4.8304,-4.7898,-4.7724,-4.7666,-4.6853,-4.6505,-4.6417,-4.5576,-4.4937,-4.4501,-4.3979,-4.3488,-4.3253,-4.3632,-4.3864,-4.395,-4.4385,-4.4385,-4.4153,-4.3747,-4.2731,-4.1686,-4.1889,-4.1337,-4.067,-4.0902,-4.1279,-4.1657,-4.1657,-4.1686,-4.1686,-4.1424,-4.157,-4.1686,-4.1424,-4.1047,-4.0612,-4.0147,-3.8841,-3.7506,-3.646,-3.6083,-3.588,-3.5677,-3.6315,-3.7099,-3.7796,-3.826,-3.8434,-3.8231,-3.7999,-3.7883,-3.7883,-3.6476,-3.5195,-3.4437,-3.3273,-3.2362,-3.1736,-3.1376,-3.1039,-3.0623,-2.8772,-2.6321,0.0,0.0,0.0,0.0,0.0,0.0,0.0,0.0,0.0,0.0,0.0,0.0,0.0,0.0,0.0,0.0,0.0,0.0,0.0,0.0,0.0,0.0,0.0,0.0,0.0,0.0,-3.7999,-3.9886,-4.1657,-4.2295,-4.1192,-4.2266,-4.3224,-4.366,-4.4676,-4.5634,-4.6475,-4.6911,-4.7433,-4.8072,-4.7898,-4.8072,-4.8711,-4.8508,-4.8624,-4.903,-4.903,-4.903,-4.903,-4.8595,-4.842,-4.8362,-4.7521,-4.7143,-4.7114,-4.6475,-4.6214,-4.6185,-4.5982,-4.5605,-4.5285,-4.5721,-4.5605,-4.5285,-4.5721,-4.5605,-4.5169,-4.4763,-4.4182,-4.3631,-4.3631,-4.3485,-4.334,-4.334,-4.334,-4.334,-4.334,-4.2876,-4.2382,-4.2382,-4.2237,-4.2092,-4.2092,-4.1744,-4.1424,-4.1424,-4.0379,-3.9247,-3.8405,-3.8231,-3.8086,-3.7651,-3.8289,-3.8841,-3.8841,-3.9218,-3.9247,-3.8609,-3.8551,-3.8463,-3.8231,-3.7041,-3.6,-3.517,-3.4058,-3.3101,-3.2533,-3.1956,-3.1656,-3.1695,-3.009,-2.8139,-2.5655,0.0,0.0,0.0,0.0,0.0,0.0,0.0,0.0,0.0,0.0,0.0,0.0,0.0,0.0,0.0,0.0,0.0,0.0,0.0,0.0,0.0,0.0,0.0,-3.4661,-3.8405,-4.0931,-4.035,-4.3602,-4.5169,-4.3282,-4.5372,-4.6853,-4.6853,-4.7433,-4.7782,-4.7811,-4.7811,-4.8101,-4.874,-4.8159,-4.813,-4.874,-4.8159,-4.784,-4.784,-4.784,-4.784,-4.7869,-4.784,-4.784,-4.7869,-4.784,-4.7811,-4.7753,-4.7114,-4.6853,-4.6795,-4.6127,-4.5895,-4.5895,-4.5895,-4.5895,-4.5895,-4.5895,-4.5895,-4.5895,-4.5895,-4.543,-4.4908,-4.4908,-4.4501,-4.4037,-4.4037,-4.4037,-4.4008,-4.4008,-4.3515,-4.3021,-4.3021,-4.2586,-4.215,-4.2121,-4.2121,-4.2121,-4.2092,-4.1047,-4.0147,-4.0147,-4.0147,-4.0147,-4.0147,-4.0147,0.0,-4.0118,-4.0118,-3.9886,-3.9305,-3.9218,-3.8957,-3.8289,-3.707,-3.6201,-3.584,-3.4917,-3.4196,-3.3882,-3.2263,-3.1723,-3.2506,-3.0117,-2.8858,-2.8803,0.0,0.0,0.0,0.0,0.0,0.0,0.0,0.0,0.0,0.0,0.0,0.0,0.0,0.0,0.0,0.0,0.0,0.0,0.0,0.0,0.0,0.0,-3.9973,-3.9973,-4.1424,-4.2934,-4.4153,-4.5634,-4.6359,-4.5837,-4.6824,-4.7521,-4.7521,-4.7695,-4.7985,-4.8449,-4.8449,-4.8769,-4.9378,-4.9233,-4.9233,-4.9407,-4.9233,-4.9146,-4.9146,-4.9146,-4.9407,-4.9872,-4.9378,-4.9407,-4.9814,-4.8885,-4.8449,-4.842,-4.7782,-4.7521,-4.7404,-4.633,-4.5895,-4.5895,-4.5895,-4.5895,-4.5895,-4.5895,-4.5895,-4.5895,-4.5895,-4.5779,-4.5605,-4.5605,-4.5488,-4.5372,-4.5372,-4.5024,-4.4647,-4.4647,-4.4182,-4.3718,-4.3718,-4.3602,-4.334,-4.2847,-4.2731,-4.2615,-4.2179,-4.1802,-4.1541,-4.1541,-4.1134,-4.0989,-4.1482,-4.1134,0.0,-4.0815,-4.0815,-4.0583,-3.9915,-3.9857,-3.9596,-3.8986,-3.7767,-3.6765,-3.6201,-3.5056,-3.4535,-3.4929,-3.4479,-3.4393,-3.4531,-3.2652,-3.1359,0.0,0.0,0.0,0.0,0.0,0.0,0.0,0.0,0.0,0.0,0.0,0.0,0.0,0.0,0.0,0.0,0.0,0.0,0.0,0.0,0.0,0.0,-4.1037,-4.3251,-4.3979,-4.4385,-4.5024,-4.6156,-4.6824,-4.723,-4.723,-4.7811,-4.8188,-4.8188,-4.842,-4.874,-4.9117,-4.9117,-4.9553,-5.0452,-4.9959,-4.993,-5.0481,-4.9959,-4.9669,-4.9669,-4.9669,-4.9872,-5.0249,-4.9843,-4.9872,0.0,-4.9465,-4.9117,-4.9059,-4.8449,-4.8188,0.0,0.0,0.0,0.0,0.0,-4.5895,-4.5895,-4.5895,-4.5895,-4.5895,-4.5895,-4.5895,-4.5895,-4.5895,-4.5895,-4.5895,-4.5895,-4.5605,-4.5314,-4.5314,-4.485,-4.4356,-4.4356,-4.4182,-4.3892,-4.3485,-4.3398,-4.3224,-4.2586,-4.2469,0.0,-4.215,-4.1773,-4.1657,-4.2034,-4.1773,-4.1512,-4.1512,-4.1512,-4.125,-4.0583,-4.0525,-4.0263,-3.9625,-3.8405,0.0,0.0,0.0,-3.5102,-3.4979,-3.4979,0.0,0.0,0.0,0.0,0.0,0.0,0.0,0.0,-3.3429,-3.309,0.0,0.0,0.0,0.0,0.0,0.0,0.0,0.0,0.0,0.0,0.0,0.0,0.0,0.0,0.0,0.0,-4.347,-4.5172,-4.677,-4.6998,-4.7027,-4.694,-4.7491,-4.7898,-4.7898,-4.8449,-4.8856,-4.8943,-4.9465,-4.9814,-4.9901,0.0,0.0,0.0,0.0,-5.0452,-5.1614,-5.0481,-4.9901,-4.9901,-4.9901,-4.993,-4.9988,-4.9843,-4.9814,-4.9901,-4.9727,-4.9669,-4.964,-4.9059,-4.8798,-4.8595,-4.7404,-4.6882,-4.6766,-4.6214,-4.5953,-4.5895,-4.5895,0.0,0.0,-4.5895,-4.5895,-4.5895,-4.5895,-4.5895,-4.5895,-4.5895,-4.5895,-4.5895,-4.5895,-4.543,-4.4995,-4.4995,-4.4589,-4.4182,-4.4095,-4.4095,-4.3892,-4.3224,-4.3108,-4.2905,-4.2295,-4.215,-4.2092,-4.2092,-4.2092,-4.2092,-4.2092,-4.2092,-4.186,-4.1279,0.0,0.0,-4.0263,-3.9102,-3.8405,-3.8318,-3.7244,-3.6057,-3.488,-3.4909,-3.5192,-3.5702,-3.5787,-3.6968,-3.9305,-3.9973,-4.067,-4.1221,-3.6711,-3.5931,0.0,0.0,0.0,0.0,0.0,0.0,0.0,0.0,0.0,0.0,0.0,0.0,0.0,0.0,0.0,-4.4154,-4.5725,-4.6956,-4.8018,-4.8231,-4.8159,-4.7666,-4.8159,-4.8537,-4.8537,-4.9117,-4.9727,-5.0249,-5.0423,-5.0714,-5.1207,-5.1236,0.0,-5.1614,-5.1381,-5.1352,-5.1614,-5.1381,-5.1236,-5.1236,0.0,0.0,-5.1962,-5.0946,-5.0772,-5.1178,-5.0133,-4.9669,-4.9669,-4.9553,-4.9175,-4.8653,-4.7898,-4.7288,-4.6824,-4.6708,-4.633,-4.5895,-4.5895,-4.5895,-4.5895,-4.5895,-4.5895,-4.5895,-4.5895,-4.5895,0.0,-4.5895,-4.5895,-4.5895,-4.5895,-4.5779,-4.5692,-4.5692,-4.5605,-4.5372,-4.4821,-4.4705,-4.4531,-4.3921,-4.3805,-4.3602,-4.2934,-4.2411,-4.2092,-4.2092,-4.2092,-4.2092,-4.2092,-4.2092,-4.2063,-4.1918,-4.1918,-4.1628,-4.096,-4.0176,-3.9509,-3.9044,-3.8783,-3.8504,-3.8283,-3.8746,-3.8832,-3.8485,-3.8948,-3.9382,-3.9915,-4.1134,-4.2034,-4.2615,-4.1612,-4.1055,0.0,0.0,0.0,0.0,0.0,0.0,0.0,0.0,0.0,0.0,0.0,-3.8841,0.0,0.0,-4.484,-4.6778,-4.7674,-4.826,-4.8723,-4.8887,-4.869,-4.8304,-4.8798,-4.9204,-4.9204,-4.9785,-5.0307,-5.0656,-5.0975,-5.1294,-5.1585,-5.1614,-5.1759,-5.2078,-5.1788,-5.1759,-5.2107,-5.1788,-5.1614,-5.1614,-5.1614,-5.1788,-5.2078,-5.1439,-5.1323,-5.1585,-5.0917,-5.0481,-5.0162,-4.9814,-4.9494,-4.9175,-4.8856,-4.8159,-4.7259,-4.694,-4.6621,-4.633,-4.5982,-4.5895,-4.5895,-4.5895,-4.5895,-4.5895,-4.5895,-4.5895,-4.5895,-4.5895,-4.5895,-4.5895,-4.5895,-4.5895,-4.5895,-4.5895,-4.5895,-4.5808,-4.5459,-4.5372,-4.5198,-4.456,-4.4443,-4.424,-4.3602,-4.3253,-4.2818,-4.2208,-4.2092,-4.2092,-4.2092,-4.2092,-4.2092,-4.2092,-4.2092,-4.1947,-4.1628,-4.0989,-4.0321,-3.9683,-3.9654,-3.9654,-3.9654,-4.0263,-4.0612,-4.0641,-4.125,-4.1715,-4.2034,-4.3021,-4.366,-4.395,-4.4269,-4.3979,0.0,0.0,0.0,0.0,0.0,0.0,0.0,0.0,-3.7315,-4.0636,-4.1743,-4.309,-4.6322,-4.689,-4.7372,-4.8893,-4.9161,-4.9186,-4.9369,-4.9362,-4.9172,-4.8914,-4.9349,-4.9669,-4.9669,-5.0278,-5.0714,-5.0859,-5.1556,-5.2049,-5.2165,-5.2281,-5.2601,-5.3094,-5.263,-5.2601,-5.3123,-5.2484,-5.2252,-5.2368,-5.2107,-5.2049,-5.2165,-5.1933,-5.1817,-5.1788,-5.1672,-5.1265,-5.0627,-5.0104,-4.9785,-4.9669,-4.9669,-4.9059,-4.8072,-4.7433,-4.7114,-4.694,-4.6301,-4.6069,-4.604,-4.5924,-4.5895,-4.5895,-4.5895,-4.5895,-4.5895,-4.5895,-4.5895,-4.5895,-4.5895,-4.5895,-4.5895,-4.5895,-4.5895,-4.5895,-4.5895,-4.5895,-4.5721,-4.5198,-4.5082,-4.4879,-4.4269,-4.4153,-4.3747,-4.2469,-4.2266,-4.2237,-4.2121,-4.2092,-4.2092,-4.2092,-4.2092,-4.2092,-4.2092,-4.1599,-4.1105,-4.0699,-4.067,-4.0728,-4.0844,-4.1366,-4.1918,-4.244,-4.2934,-4.3515,-4.4182,-4.4647,-4.4966,-4.5082,-4.5634,-4.5605,-3.3549,-3.4387,0.0,-3.8649,-3.8185,-3.8846,0.0,0.0,-4.4137,-4.7489,-4.8237,-4.8416,-4.8865,-4.8925,-4.9194,-4.9911,-4.9846,-4.9927,-5.0294,-5.0191,-4.9873,-4.9679,-4.964,-4.9669,-4.9669,-5.0278,-5.0917,-5.1468,-5.263,-5.3559,-5.4168,-5.4691,-5.501,-5.5097,-5.501,-5.501,-5.5097,-5.4487,-5.4458,-5.4981,-5.3849,-5.3617,-5.4139,-5.2978,-5.2455,-5.2426,-5.1875,-5.1265,-5.0656,-5.0598,-5.022,-4.9669,-4.9669,-4.9582,-4.9378,-4.874,-4.8159,-4.7579,-4.694,-4.6737,-4.6621,-4.6069,-4.5895,-4.5895,-4.5895,-4.5895,-4.5895,-4.5895,-4.5895,-4.5895,-4.5895,-4.5895,-4.5895,-4.5895,-4.5895,-4.5895,-4.5895,-4.5895,-4.5866,-4.5779,-4.5779,-4.5576,-4.4908,-4.4792,-4.4356,-4.3079,-4.2905,-4.2702,-4.2179,-4.2092,-4.2092,-4.2092,-4.2092,-4.2092,-4.2092,-4.2034,-4.2179,-4.2644,-4.2673,-4.2934,-4.3544,-4.3631,-4.3689,-4.3776,-4.3834,-4.4182,-4.4792,-4.485,-4.5198,-4.5779,-4.5866,-4.5837,-4.0359,0.0,0.0,0.0,-4.3568,-4.4278,-4.77,-4.7205,-4.677,-4.9314,-4.9823,-4.9942,-5.0331,-5.0391,-5.0481,0.0,-5.0717,-5.0619,-5.0698,-5.0117,-4.9597,-4.9406,-4.9213,-4.9262,-4.964,-5.0598,-5.1497,-5.2107,-5.3355,-5.4371,-5.501,-5.5271,-5.5416,-5.5416,-5.5416,-5.5416,-5.5416,-5.5155,-5.5155,-5.5387,-5.4865,-5.4749,-5.501,-5.411,-5.35,-5.3094,-5.2455,-5.202,-5.1759,-5.1381,-5.083,-5.0249,-5.0249,-5.0017,-4.9611,-4.8972,-4.8566,-4.8246,-4.7608,-4.7143,-4.6795,-4.6534,-4.6185,-4.5895,-4.5895,-4.5895,-4.5895,-4.5895,-4.5895,-4.5895,-4.5895,-4.5895,-4.5895,-4.5895,-4.5895,-4.5895,-4.5895,-4.5895,-4.5895,-4.5895,-4.5895,-4.5808,-4.5518,-4.5459,-4.514,-4.424,-4.3805,-4.3485,-4.3224,-4.3195,-4.3195,-4.3195,-4.3195,-4.3195,-4.3195,-4.3195,-4.3311,-4.3573,-4.3573,-4.3689,-4.3979,-4.4327,-4.4501,-4.4501,-4.4908,-4.5227,-4.5459,-4.5459,-4.5605,-4.5895,-4.5895,-4.5895,-4.4003,0.0,0.0,-4.6647,-4.7965,-4.8934,-4.9066,-4.8814,-4.889,-5.0182,-5.0361,-5.0391,-5.087,-5.096,0.0,-5.096,-5.1109,-5.1105,-5.0822,-5.007,-4.9375,-4.9186,-4.8902,-4.8914,-4.9378,-5.0598,-5.1701,-5.2514,-5.3791,-5.4865,-5.5649,-5.5678,-5.5765,-5.5939,-5.5765,-5.5765,-5.5939,-5.5765,-5.5765,-5.5939,-5.5591,-5.5503,-5.5649,-5.5039,-5.44,-5.3762,-5.3297,-5.2891,-5.2543,-5.2078,-5.1497,-5.0917,-5.0743,-5.0365,-4.9872,-4.9233,-4.9001,-4.8914,-4.8246,-4.7724,-4.7288,-4.694,-4.6505,-4.6127,-4.5924,-4.5895,-4.5895,-4.5895,-4.5895,-4.5895,-4.5895,-4.5895,-4.5895,-4.5895,-4.5895,-4.5895,-4.5895,-4.5895,-4.5895,-4.5895,-4.5895,-4.5895,-4.5895,-4.5895,-4.5721,-4.5227,-4.4792,-4.4385,-4.4037,-4.3979,-4.3979,-4.3979,-4.3979,-4.3979,-4.3979,-4.3979,-4.4066,-4.424,-4.424,-4.4327,-4.4501,-4.4937,-4.5169,-4.5169,-4.5634,-4.5895,-4.5895,-4.5895,-4.5895,-4.5895,-4.5895,-4.5895,0.0,0.0,-4.82,-4.9689,-5.1067,-5.2197,-5.2657,-5.2075,-5.1448,-5.1206,-5.069,-5.0242,-5.0272,-5.0272,-5.0272,-5.0272,-5.081,-5.1105,-5.0822,-5.007,-4.9375,-4.9186,-4.8902,-4.874,0.0,-4.993,-5.1236,-5.2484,-5.3791,-5.5068,-5.6316,-5.6374,-5.6636,-5.7216,-5.6665,-5.6665,-5.7245,-5.6665,-5.6665,-5.7245,-5.5997,-5.5765,-5.6345,-5.5678,-5.5039,-5.4487,-5.4458,-5.3733,-5.2572,-5.2543,-5.2165,-5.1527,-5.0917,-5.0656,-5.0569,-4.9901,-4.964,-4.9553,-4.8914,-4.8682,-4.8478,-4.723,-4.6824,-4.6679,-4.6069,-4.5895,-4.5895,-4.5895,-4.5895,-4.5895,-4.5895,-4.5895,-4.5895,-4.5895,-4.5895,-4.5895,-4.5895,-4.5895,-4.5895,-4.5895,-4.5895,-4.5895,-4.5895,-4.5895,-4.5866,-4.5866,-4.5837,-4.5372,-4.4153,-4.3979,-4.3979,-4.3979,-4.3979,-4.3979,-4.3979,-4.3979,-4.424,-4.4821,-4.485,-4.514,-4.5808,-4.5837,-4.5866,-4.5866,-4.5866,-4.5895,-4.5895,-4.5895,-4.5895,-4.5895,-4.5895,-4.5895,0.0,0.0,-5.0651,-5.2572,-5.3334,-5.3743,-5.4323,-5.3373,-5.2294,-5.2312,-5.1287,-5.0178,-4.9839,-4.9661,-4.9637,-4.9614,-5.0511,-5.1229,-5.1105,-5.1125,-5.0662,-4.9493,-4.9472,0.0,0.0,0.0,0.0,-5.2455,-5.3355,-5.4604,-5.6316,-5.6403,-5.6694,-5.7274,-5.71,-5.71,-5.7303,-5.71,-5.71,-5.7303,-5.6868,-5.6578,-5.6403,-5.6171,-5.5707,-5.5097,-5.5097,-5.4633,-5.3849,-5.3849,-5.3239,-5.2223,-5.202,-5.141,-5.0656,-5.0423,-5.0046,-4.964,-4.9436,-4.9088,-4.8653,-4.8217,-4.7521,-4.6795,-4.6592,-4.6214,-4.5895,-4.5895,-4.5895,-4.5895,-4.5895,-4.5895,-4.5895,-4.5895,-4.5895,-4.5895,-4.5895,-4.5895,-4.5895,-4.5895,-4.5895,-4.5895,-4.5895,-4.5895,-4.5895,-4.5895,-4.5895,-4.5721,-4.5314,-4.5256,-4.5256,-4.5256,-4.5256,-4.5256,-4.5256,-4.5256,-4.5343,-4.5547,-4.5547,-4.5663,-4.5866,-4.5895,-4.5895,-4.5895,-4.5895,-4.5895,-4.5895,-4.5895,-4.5895,-4.5895,-4.633,-4.6505,0.0,-5.128,-5.2208,-5.4361,-5.504,-5.5194,-5.5296,-5.4178,-5.3004,-5.223,-5.0653,-4.913,-4.8531,-4.7896,-4.7904,-4.8823,-4.9824,-5.084,-5.1798,-5.1906,-5.1684,-5.1106,-5.0632,-5.035,0.0,0.0,0.0,-5.2514,-5.3588,-5.4836,-5.6316,-5.6403,-5.6694,-5.7274,-5.71,-5.71,-5.7303,-5.7303,-5.7303,-5.7303,-5.7303,-5.71,-5.6723,-5.652,-5.6171,-5.5765,-5.5503,-5.5184,-5.4807,-5.4604,-5.4023,-5.321,-5.2746,-5.2078,-5.1323,-5.1091,-5.0598,-4.9988,-4.9756,-4.9407,-4.903,-4.8798,-4.8159,-4.7462,-4.723,-4.6737,-4.6214,-4.6214,-4.6069,-4.5895,-4.5895,-4.5895,-4.5895,-4.5895,-4.5895,-4.5895,-4.5895,-4.5895,-4.5895,-4.5895,-4.5895,-4.5895,-4.5895,-4.5895,-4.5895,-4.5895,-4.5895,-4.5895,-4.5895,-4.5895,-4.5895,-4.5895,-4.5895,-4.5895,-4.5895,-4.5895,-4.5895,-4.5895,-4.5895,-4.5895,-4.5895,-4.5895,-4.5895,-4.5895,-4.5895,-4.5895,-4.5895,-4.6127,-4.6214,-4.6243,-4.6882,-4.7172,-5.0286,-5.1545,-5.3169,-5.5222,-5.6183,-5.6381,-5.5523,-5.4665,-5.3455,-5.1167,-4.8969,-4.7189,0.0,0.0,-4.5217,-4.7711,-4.894,-5.0425,-5.2815,-5.2599,-5.2554,0.0,0.0,0.0,0.0,0.0,0.0,-5.2659,0.0,-5.5678,-5.6374,-5.6403,-5.6694,-5.7274,-5.6752,-5.6723,-5.7303,-5.7303,-5.7303,-5.7303,-5.7303,-5.7303,-5.7274,-5.6723,-5.6432,-5.6374,-5.5736,-5.5445,-5.5358,-5.4749,-5.4517,-5.44,-5.3123,-5.2601,-5.2484,-5.1904,-5.1265,-5.0627,-4.9959,-4.9698,-4.9582,-4.8972,-4.874,-4.8624,-4.8014,-4.7375,-4.6882,-4.6882,-4.6417,-4.5924,-4.5924,-4.5895,-4.5895,-4.5895,-4.5895,-4.5895,-4.5895,-4.5895,-4.5895,-4.5895,-4.5895,-4.5895,-4.5895,-4.5895,-4.5895,-4.5895,-4.5895,-4.5895,-4.5895,-4.5895,-4.5895,-4.5895,-4.5895,-4.5895,-4.5895,-4.5895,-4.5895,-4.5895,-4.5895,-4.5895,-4.5895,-4.5895,-4.5895,-4.5895,-4.5895,-4.5895,-4.5924,-4.6534,-4.6853,-4.6882,-4.7521,-4.784,-5.3765,-5.5322,-5.6547,-5.7111,-5.6547,-5.5809,-5.5545,-5.3596,-5.1523,-5.0569,-4.7987,-4.5469,-4.3808,0.0,0.0,-4.6001,-4.978,0.0,-5.3128,-5.4419,0.0,0.0,0.0,-5.3786,-5.3554,-5.4475,0.0,0.0,-5.4458,-5.5242,-5.6345,-5.6403,-5.6694,-5.7274,-5.7158,-5.7158,-5.7303,-5.7303,-5.7303,-5.7303,-5.7303,-5.7303,-5.7303,-5.7158,-5.6839,-5.6403,-5.6229,-5.5881,-5.5358,-5.4749,-5.4517,-5.4429,-5.3588,-5.2978,-5.2543,-5.2397,-5.1933,-5.1294,-5.0656,-5.0104,-4.964,-4.9494,-4.9117,-4.8682,-4.8537,-4.8043,-4.755,-4.755,-4.7085,-4.6592,-4.6592,-4.6243,-4.5895,-4.5895,-4.5895,-4.5895,-4.5895,-4.5895,-4.5895,-4.5895,-4.5895,-4.5895,-4.5895,-4.5895,-4.5895,-4.5895,-4.5895,-4.5895,-4.5895,-4.5895,-4.5895,-4.5895,-4.5895,-4.5895,-4.5895,-4.5895,-4.5895,-4.5895,-4.5895,-4.5895,-4.5895,-4.5895,-4.5895,-4.5895,-4.5895,-4.6127,-4.6592,-4.6737,-4.7085,-4.755,-4.8188,-4.8478,-5.6084,-5.7177,-5.7806,-5.7806,-5.6713,-5.5388,-5.4427,-5.2375,-5.0025,-4.7737,-4.5403,0.0,0.0,0.0,0.0,0.0,0.0,0.0,-5.4699,-5.6246,-5.7263,0.0,-5.6726,0.0,-5.5878,-5.6397,-5.6443,0.0,-5.5736,-5.6055,-5.6781,-5.7071,-5.7536,-5.8174,-5.8174,-5.8029,-5.7739,-5.7739,-5.7594,-5.7303,-5.7303,-5.7303,-5.7303,-5.7042,-5.6868,-5.6781,0.0,-5.591,-5.5765,-5.4894,-5.4517,-5.4458,-5.3791,-5.3297,-5.2978,-5.2978,-5.2572,-5.1991,-5.1614,-5.0888,-5.0075,-4.9785,-4.9436,-4.9146,-4.9146,-4.8711,-4.8188,-4.8188,-4.7724,-4.7259,-4.7259,-4.6998,-4.6708,-4.6708,-4.6505,-4.6301,-4.6301,-4.6098,-4.5895,-4.5895,-4.5895,-4.5895,-4.5895,-4.5895,-4.5895,-4.5895,-4.6127,-4.6214,-4.5924,-4.5895,-4.5895,-4.5895,-4.5895,-4.5895,-4.5895,-4.5895,-4.5895,-4.5895,-4.5895,-4.5895,-4.5895,-4.5895,-4.6011,-4.6301,-4.6301,-4.6621,-4.7259,-4.7521,-4.784,-4.8217,-4.8856,-4.9146,-5.7707,-5.8005,-5.7906,-5.7806,-5.6547,-5.4759,-5.2605,-5.075,-4.8299,-4.4191,0.0,0.0,-3.909,0.0,-4.2323,-4.4814,0.0,-5.2359,-5.6441,-5.7579,-5.8688,-6.0589,-5.9379,-5.8382,-5.8415,-5.8121,-5.7868,-5.7416,-5.739,-5.739,-5.7303,-5.7855,-5.8464,-5.9161,-5.9248,-5.9016,-5.8435,-5.8435,-5.8116,-5.7448,-5.7448,-5.739,-5.7274,-5.6781,-5.6781,-5.7129,0.0,0.0,-5.6316,-5.5039,-5.4575,-5.4546,-5.3791,-5.35,-5.35,-5.35,-5.3181,-5.2688,-5.2601,-5.1846,-5.0801,-5.0046,-4.9756,-4.9669,-4.9669,-4.9291,-4.8856,-4.8856,-4.8391,-4.7898,-4.7898,-4.784,-4.7782,-4.7782,-4.7346,-4.6969,-4.6969,-4.6534,-4.6098,-4.604,-4.6011,-4.6011,-4.6011,-4.6011,-4.604,-4.6127,-4.6592,-4.6766,-4.6214,-4.6069,-4.5982,-4.5895,-4.5895,-4.5924,-4.6011,-4.6011,-4.604,-4.6127,-4.6069,-4.604,-4.6127,-4.6069,-4.6301,-4.694,-4.6969,-4.7259,-4.7898,-4.8449,-4.8769,-4.8856,-4.9407,-4.9669,-5.9231,-5.9164,-5.8568,-5.7939,-5.5786,-5.3235,-5.1082,-4.8034,0.0,0.0,0.0,-3.8328,-3.6837,-3.9214,0.0,-4.346,0.0,0.0,0.0,0.0,-5.8153,0.0,0.0,0.0,0.0,0.0,0.0,0.0,0.0,0.0,-5.7332,-5.7419,-5.7768,-5.8464,-5.9016,-5.9248,-5.9132,-5.9132,-5.8784,-5.8116,-5.8116,-5.7826,-5.7303,-5.7187,-5.6926,-5.6549,-5.6316,0.0,-5.6316,-5.5039,-5.4807,-5.5126,-5.3965,-5.35,-5.35,-5.35,-5.3442,-5.3268,-5.2746,-5.2426,-5.2049,-5.0888,-5.0133,-4.9669,-4.9669,-4.9611,-4.9524,-4.9524,-4.9059,-4.8566,-4.8566,-4.8159,-4.7782,-4.7782,-4.7695,-4.7608,-4.7608,-4.7521,-4.7288,-4.6766,-4.665,-4.665,-4.665,-4.665,-4.6853,-4.7375,-4.755,-4.7579,-4.7462,-4.6998,-4.6475,-4.5924,-4.5895,-4.6098,-4.6621,-4.665,-4.6882,-4.7433,-4.6969,-4.6911,-4.7433,-4.694,-4.6969,-4.7608,-4.7608,-4.7927,-4.8566,-4.8682,-4.9001,-4.9524,-4.964,-4.9669,-5.9595,-5.9463,-5.8734,-5.7972,-5.5322,-5.2009,-4.8663,0.0,0.0,0.0,0.0,-3.6274,-3.5545,0.0,0.0,0.0,0.0,0.0,0.0,0.0,0.0,0.0,0.0,0.0,0.0,0.0,0.0,0.0,0.0,0.0,-5.7884,-5.8145,-5.8493,-5.8813,-5.9451,-5.9626,-5.9306,-5.9626,-5.9451,-5.8813,-5.8464,-5.8145,-5.7826,-5.7448,-5.7158,-5.6868,-5.6549,0.0,-5.6345,-5.5358,-5.4952,-5.4894,-5.4284,-5.382,-5.35,-5.35,-5.35,-5.3471,-5.3181,-5.2833,-5.2455,-5.1846,-5.1004,-5.0133,-4.9785,-4.9669,-4.9669,-4.9669,-4.9465,-4.9233,-4.9233,-4.9001,-4.8769,-4.8769,-4.8508,-4.8188,-4.784,-4.7782,-4.7695,-4.7375,-4.7317,-4.7317,-4.7317,-4.7317,-4.7433,-4.7724,-4.8072,-4.8159,-4.7811,-4.7811,-4.7433,-4.6475,-4.6679,-4.6853,-4.6824,-4.7143,-4.7462,-4.7753,-4.7491,-4.7462,-4.7782,-4.7491,-4.7608,-4.8275,-4.8275,-4.8595,-4.9233,-4.9233,-4.9553,-5.0191,-5.0191,-5.0365,-5.9164,-5.9098,-5.8436,-5.7541,-5.4725,-5.0982,-4.6576,-4.3297,0.0,0.0,0.0,-3.4883,-3.4883,0.0,0.0,0.0,0.0,0.0,0.0,0.0,0.0,0.0,0.0,0.0,0.0,0.0,0.0,0.0,0.0,0.0,-5.8581,-5.9132,-5.948,-5.948,-5.9945,-6.0032,-5.9713,-6.0032,-5.9974,-5.948,-5.8958,-5.8552,-5.829,-5.7768,-5.7448,-5.7274,-5.681,0.0,0.0,-5.5881,-5.5329,-5.4894,-5.4633,-5.4197,-5.3704,-5.3559,-5.35,-5.35,-5.35,-5.3181,-5.2746,-5.2601,-5.1701,-5.0569,-5.0046,-4.9785,-4.9669,-4.9669,-4.9669,-4.9669,-4.9669,-4.9669,-4.9669,-4.9669,-4.9291,-4.8798,-4.8304,-4.8188,-4.813,-4.8014,-4.7985,-4.7985,-4.7985,-4.7985,-4.8014,-4.8159,-4.8624,-4.874,-4.8246,-4.8624,-4.8508,-4.7346,-4.755,-4.7637,-4.7259,-4.7695,-4.8043,-4.8188,-4.8072,-4.8043,-4.8188,-4.8043,-4.8275,-4.8914,-4.8914,-4.9233,-4.9872,-4.9872,-5.022,-5.0888,-5.0888,-5.1149,-5.7773,-5.7939,-5.7541,-5.6183,-5.3566,-5.022,-4.5781,0.0,0.0,0.0,-3.5413,-3.4883,-3.4883,-3.5711,0.0,0.0,0.0,0.0,0.0,0.0,0.0,0.0,0.0,0.0,0.0,0.0,0.0,0.0,0.0,0.0,0.0,-5.98,-6.0119,-6.0119,-6.0177,-6.0467,-6.1019,-6.0467,-6.0177,-6.0119,-6.0061,-5.9422,-5.829,-5.8232,-5.7884,-5.7303,-5.7245,0.0,0.0,-5.6578,-5.6287,-5.6113,-5.4952,-5.4487,-5.4342,-5.3733,-5.35,-5.35,-5.35,-5.3471,-5.3326,-5.2746,-5.1701,-5.0656,-5.0598,-5.0162,-4.9669,-4.9669,-4.9669,-4.9669,-4.9669,-4.9669,-4.9669,-4.9669,-4.964,-4.9582,-4.9524,-4.9494,-4.932,-4.874,-4.8653,-4.8653,-4.8653,-4.8653,-4.8827,-4.9407,-4.9553,-4.9582,-4.9494,-4.9553,-4.932,-4.8624,-4.8101,-4.7985,-4.8508,-4.8595,-4.8885,-4.9465,-4.8972,-4.8914,-4.9465,-4.8943,-4.8943,-4.9582,-4.9582,-4.993,-5.0598,-5.0598,-5.0917,-5.1527,-5.1527,-5.1556,-5.6614,-5.7442,-5.7442,-5.5984,-5.3102,-4.9491,-4.5052,0.0,0.0,-3.5843,-3.475,-3.4352,-3.4816,-3.5512,-3.6539,0.0,-3.952,-4.2204,0.0,0.0,0.0,0.0,0.0,0.0,0.0,0.0,0.0,0.0,0.0,0.0,0.0,-6.0268,-5.9655,-5.9655,-6.0003,-6.0148,-6.0061,-6.0148,-6.0032,-5.9655,-5.9655,-5.9393,-5.89,-5.8493,-5.8145,-5.7884,-5.7477,0.0,0.0,-5.7042,-5.6723,-5.6345,-5.5852,-5.5184,-5.4487,-5.4226,-5.3849,-5.35,-5.35,-5.35,-5.3471,-5.321,-5.2543,-5.173,-5.1352,-5.0801,-5.0278,-5.0278,-4.9988,-4.9669,-4.9669,-4.9669,-4.9669,-4.9669,-4.9669,-4.9669,-4.9669,-4.9669,-4.9611,-4.9349,-4.9291,-4.9291,-4.9291,-4.9291,-4.9378,-4.964,-4.9669,-4.9669,-4.9669,-4.9669,-4.9582,-4.932,-4.9088,-4.8856,-4.874,-4.9088,-4.9407,-4.9669,-4.9436,-4.9407,-4.9669,-4.9436,-4.9611,-5.0278,-5.0278,-5.0598,-5.1236,-5.1236,-5.1556,-5.2194,-5.2194,-5.2397,-5.4491,-5.5919,-5.6525,-5.527,-5.223,-4.8497,0.0,0.0,-3.7566,-3.5346,-3.4485,-3.4286,-3.4783,-3.5313,-3.5976,-3.6936,-3.8096,-4.0382,-4.4721,0.0,0.0,0.0,0.0,0.0,0.0,0.0,0.0,0.0,0.0,0.0,0.0,-6.1202,-6.018,-5.9858,-6.009,-6.009,-5.9858,-6.009,-5.9974,-5.9568,-5.9568,-5.9364,-5.8987,-5.8523,-5.8203,-5.7971,0.0,0.0,0.0,-5.7303,-5.7042,-5.6665,-5.649,-5.5852,-5.5039,-5.4662,-5.4226,-5.3791,-5.3588,-5.35,-5.35,-5.35,-5.321,-5.2775,-5.231,-5.1614,-5.0946,-5.0946,-5.0481,-4.993,-4.9727,-4.9669,-4.9669,-4.9669,-4.9669,-4.9669,-4.9669,-4.9669,-4.9669,-4.9669,-4.9669,-4.9669,-4.9669,-4.9669,-4.9669,-4.9669,-4.9669,-4.9669,-4.9669,-4.9669,-4.9669,-4.9669,-4.9669,-4.9494,-4.9059,-4.9407,-4.9669,-4.9669,-4.9669,-4.9756,-4.9959,-4.9988,-5.0278,-5.0946,-5.0946,-5.1265,-5.1904,-5.1904,-5.2223,-5.2862,-5.3065,-5.3471,-5.1141,-5.2954,-5.435,-5.3606,-5.0654,-4.7276,0.0,-4.0812,-3.7566,-3.5346,-3.4883,-3.4883,-3.4883,-3.4916,-3.5379,-3.687,-3.8924,-4.1872,-4.6245,0.0,0.0,0.0,0.0,0.0,0.0,0.0,0.0,0.0,0.0,0.0,0.0,-6.2814,-6.2057,-6.1164,-6.0526,-6.0526,-6.1164,-6.0526,-6.0206,-6.0177,-6.0177,-5.9539,-5.8319,-5.829,-5.7942,0.0,0.0,0.0,0.0,-5.7303,-5.7303,-5.7245,-5.6636,-5.6403,-5.6229,-5.4981,-5.4517,-5.44,-5.3733,-5.35,-5.35,-5.35,-5.35,-5.35,-5.35,-5.2601,-5.1614,-5.1614,-5.1149,-5.0511,-4.9843,-4.9669,-4.9669,-4.9669,-4.9669,-4.9669,-4.9669,-4.9669,-4.9669,-4.9669,-4.9669,-4.9669,-4.9669,-4.9669,-4.9669,-4.9669,-4.9669,-4.9669,-4.9669,-4.9669,-4.9669,-4.9669,-4.9669,-4.9669,-4.9669,-4.9669,-4.9669,-4.9669,-4.9669,-4.9988,-5.0627,-5.0656,-5.0946,-5.1585,-5.1614,-5.1933,-5.2572,-5.2572,-5.2891,-5.353,-5.4168,-5.4807,-4.7097,-4.8388,-4.9013,-4.7756,-4.6225,-4.4235,-4.1342,-3.9388,-3.7566,-3.5346,-3.4883,-3.4883,-3.4883,-3.4883,-3.5876,-3.8858,-3.9918,0.0,0.0,0.0,0.0,0.0,0.0,0.0,0.0,0.0,0.0,0.0,0.0,0.0,0.0,-6.3501,-6.2057,-6.1193,-6.099,-6.0758,-6.0526,-6.0322,-5.9771,-5.89,-5.9364,-5.9132,-5.829,-5.829,0.0,0.0,0.0,0.0,0.0,-5.7303,-5.7303,-5.7274,-5.71,-5.6781,-5.6374,-5.5968,-5.5533,-5.5039,-5.44,-5.4197,-5.411,-5.3675,-5.35,-5.35,-5.35,-5.292,-5.2165,-5.173,-5.1468,-5.1265,-5.1062,-5.1004,-5.1004,-5.1004,-5.1004,-5.1004,-5.1004,-5.1004,-5.1004,-5.1004,-5.1004,-5.1004,-5.1004,-5.1004,-5.1004,-5.1004,-5.1004,-5.1004,-5.1004,-5.1004,-5.1004,-5.1004,-5.1004,-5.0656,-4.9756,-4.9669,-4.9872,-5.0336,-5.0365,-5.0656,-5.1294,-5.1323,-5.1614,-5.2252,-5.2281,-5.2572,-5.321,-5.321,-5.3559,-5.4226,-5.4836,-5.5242,0.0,-4.4683,-4.5395,-4.45,-4.3322,-4.1844,-3.9794,-3.8295,-3.6903,-3.5247,-3.4883,-3.4883,-3.4883,-3.5114,-3.6141,-3.8725,-4.005,0.0,0.0,0.0,0.0,0.0,0.0,0.0,0.0,0.0,0.0,0.0,0.0,0.0,0.0,-6.4703,-6.3189,-6.1761,-6.1433,-6.099,-6.0584,-6.0584,-6.0061,-5.9016,-5.9219,-5.8958,-5.829,-5.8029,0.0,0.0,0.0,0.0,0.0,-5.7303,-5.7303,-5.7303,-5.7303,-5.7071,-5.6723,-5.649,-5.6142,-5.5649,-5.4807,-5.4517,-5.44,-5.3733,-5.35,-5.35,-5.35,-5.3239,-5.2804,-5.2165,-5.1991,-5.1933,-5.1672,-5.1614,-5.1614,-5.1614,-5.1614,-5.1614,-5.1614,-5.1614,-5.1614,-5.1614,-5.1614,-5.1614,-5.1614,-5.1614,-5.1614,-5.1614,-5.1614,-5.1614,-5.1614,-5.1614,-5.1614,-5.1614,-5.1614,-5.1294,-5.0481,-5.0423,-5.0598,-5.1004,-5.1033,-5.1323,-5.1962,-5.1991,-5.2281,-5.292,-5.292,-5.3239,-5.3907,-5.411,-5.4575,-5.5242,-5.562,-5.591,0.0,-4.1324,-4.2874,-4.2833,-4.1425,-3.9833,-3.9049,-3.74,0.0,-3.5048,-3.4883,-3.4949,-3.5181,-3.5644,-3.6373,-3.7533,0.0,0.0,0.0,0.0,0.0,0.0,0.0,0.0,0.0,0.0,0.0,0.0,0.0,0.0,0.0,-6.6428,-6.5032,-6.2844,-6.185,-6.1313,-6.1193,-6.1193,-6.0874,-6.0177,-5.9626,-5.8987,-5.829,-5.7652,0.0,0.0,0.0,0.0,0.0,-5.7303,-5.7303,-5.7303,-5.7303,-5.7303,-5.7245,-5.6665,-5.6461,-5.6287,-5.5068,-5.4604,-5.4458,-5.3733,-5.35,-5.35,-5.35,-5.35,-5.3384,-5.2804,-5.263,-5.2514,-5.1904,-5.1759,-5.1759,-5.1759,-5.1759,-5.1759,-5.1759,-5.1759,-5.1759,-5.1759,-5.1759,-5.1759,-5.1759,-5.1759,-5.1759,-5.1759,-5.1759,-5.1759,-5.1759,-5.1759,-5.1759,-5.1759,-5.1759,-5.1759,-5.1759,-5.1672,-5.1643,-5.1672,-5.1701,-5.1962,-5.2601,-5.263,-5.292,-5.35,-5.3559,-5.3907,-5.4575,-5.5292,-5.5794,-5.6403,-5.6572,-5.6892,-3.3395,0.0,-3.5983,-3.5371,-3.5699,-3.6019,0.0,-3.5545,-3.5777,0.0,0.0,0.0,0.0,0.0,0.0,0.0,0.0,0.0,0.0,0.0,0.0,0.0,0.0,0.0,0.0,0.0,0.0,0.0,0.0,0.0,0.0,-6.726,-6.6396,-6.5866,-6.3893,-6.2262,-6.1193,-6.1193,-6.0874,-6.0206,-6.0061,-5.9393,-5.829,-5.8145,0.0,0.0,0.0,0.0,-5.7303,-5.7303,-5.7303,-5.7303,-5.7303,-5.7303,-5.7274,-5.7158,-5.71,-5.6984,-5.6229,-5.562,-5.501,-5.3878,-5.35,-5.35,-5.35,-5.35,-5.3471,-5.3326,-5.3297,-5.3268,-5.3094,-5.3065,-5.3065,-5.3065,-5.3065,-5.3065,-5.3065,-5.3065,-5.3065,-5.3065,-5.3065,-5.3065,-5.3065,-5.3065,-5.3065,-5.3065,-5.3065,-5.3065,-5.3065,-5.3065,-5.3065,-5.3065,-5.3065,-5.3065,-5.3065,-5.2165,-5.1817,-5.231,-5.2339,-5.263,-5.3268,-5.3297,-5.3355,-5.35,-5.4023,-5.4575,-5.5184,-5.6476,-5.6887,-5.6432,-5.7533,-5.8158,-3.1087,-3.315,-3.5245,-3.4824,-3.5585,-3.629,-3.5914,0.0,0.0,0.0,0.0,0.0,0.0,0.0,0.0,0.0,0.0,0.0,0.0,0.0,0.0,0.0,0.0,0.0,0.0,0.0,0.0,0.0,0.0,0.0,0.0,-6.8236,-6.7465,-6.6815,-6.562,-6.3975,-6.2145,-6.1523,-6.1019,-6.0642,-6.0351,-5.9829,-5.9161,-5.89,-5.8406,0.0,0.0,0.0,-5.7303,-5.7303,-5.7303,-5.7303,-5.7303,-5.7303,-5.7303,-5.7303,-5.7303,-5.7216,-5.6607,-5.5794,-5.4894,-5.4197,-5.3762,-5.35,-5.35,-5.35,-5.35,-5.35,-5.35,-5.35,-5.35,-5.35,-5.35,-5.35,-5.35,-5.35,-5.35,-5.35,-5.35,-5.35,-5.35,-5.35,-5.35,-5.35,-5.35,-5.35,-5.35,-5.35,-5.35,-5.35,-5.35,-5.35,-5.35,-5.35,-5.35,-5.2891,-5.263,-5.2978,-5.3007,-5.3152,-5.35,-5.4211,-5.4923,-5.5501,-5.6153,-5.6657,-5.6983,-5.8201,-5.8423,-5.8021,-5.8782,-5.9147,-3.1073,-3.4319,-3.7419,-3.6603,-3.7318,-3.8143,-3.7913,0.0,0.0,0.0,0.0,0.0,0.0,0.0,0.0,0.0,0.0,0.0,0.0,0.0,0.0,0.0,0.0,0.0,0.0,0.0,0.0,0.0,0.0,0.0,0.0,-6.9091,-6.8535,-6.726,-6.7022,-6.5941,-6.3863,-6.2262,-6.1404,-6.1193,-6.0613,-6.0293,-6.0177,-5.9684,-5.9016,0.0,0.0,0.0,-5.7303,-5.7303,-5.7303,-5.7303,-5.7303,-5.7303,-5.7303,-5.7303,-5.7303,-5.7216,-5.6607,-5.5649,-5.4633,-5.4546,-5.4052,-5.35,-5.35,-5.35,-5.35,-5.35,-5.35,-5.35,-5.35,-5.35,-5.35,-5.35,-5.35,-5.35,-5.35,-5.35,-5.35,-5.35,-5.35,-5.35,-5.35,-5.35,-5.35,-5.35,-5.35,-5.35,-5.35,-5.35,-5.35,-5.35,-5.35,-5.35,-5.371,-5.3798,-5.3856,-5.4065,-5.3856,-5.3885,-5.4211,-5.5471,-5.6792,-5.8145,-5.8693,-5.8893,-5.9014,-5.9727,-6.0,-5.9895,-6.0122,-6.0258,-3.3557,-3.7003,-3.883,-3.4465,-3.5799,-3.7831,0.0,0.0,0.0,0.0,0.0,0.0,0.0,0.0,0.0,0.0,0.0,0.0,0.0,0.0,0.0,0.0,0.0,0.0,0.0,0.0,0.0,0.0,0.0,0.0,0.0,0.0,-6.9574,-6.9382,-6.8172,-6.7093,-6.6291,-6.4087,-6.2349,-6.1193,-6.1106,-6.0758,-6.0206,-6.009,-5.9422,0.0,0.0,-5.7913,-5.7303,-5.7303,-5.7303,-5.7303,-5.7303,-5.7303,-5.7303,-5.7303,-5.7303,-5.7216,-5.6607,-5.591,-5.5184,-5.4691,-5.4052,-5.35,-5.35,-5.35,-5.35,-5.35,-5.35,-5.35,-5.35,-5.35,-5.35,-5.35,-5.35,-5.35,-5.35,-5.35,-5.35,-5.35,-5.35,-5.35,-5.35,-5.35,-5.35,-5.35,-5.35,-5.35,-5.35,-5.35,-5.35,-5.35,-5.35,-5.3815,-5.4509,-5.5012,-5.5619,-5.6304,-5.5722,-5.599,-5.7281,-5.7505,-5.7971,-5.8711,-5.8802,-5.9136,-5.9743,-6.0598,-6.0628,-5.9925,-6.1212,-6.1803,-3.2707,-3.581,-3.8223,-3.6653,-3.961,-4.2626,0.0,0.0,0.0,0.0,0.0,0.0,0.0,0.0,0.0,0.0,0.0,0.0,0.0,0.0,0.0,0.0,0.0,0.0,0.0,0.0,0.0,0.0,0.0,0.0,0.0,0.0,-6.9798,-6.9798,-6.9123,-6.8271,-6.7228,-6.5835,-6.4117,-6.185,-6.185,-6.1467,-6.0729,-6.0729,-6.0206,-5.9306,0.0,-5.8464,-5.7826,-5.7448,-5.7303,-5.7303,-5.7303,-5.7303,-5.7303,-5.7303,-5.7303,-5.7274,-5.6984,-5.649,-5.591,-5.562,-5.4865,-5.4052,-5.4052,-5.3791,-5.35,-5.35,-5.35,-5.35,-5.35,-5.35,-5.35,-5.35,-5.35,-5.35,-5.35,-5.35,-5.35,-5.35,-5.35,-5.35,-5.35,-5.35,-5.3722,-5.4567,-5.473,-5.4848,-5.5201,-5.5679,-5.5753,-5.526,-5.5679,-5.6064,-5.6474,-5.6745,-5.713,-5.7436,-5.713,-5.7637,-5.9153,-5.9184,-5.9695,-6.078,-6.078,-6.0936,-6.1277,-6.2058,-6.2246,-6.1836,-6.2964,-6.338,-3.2121,-3.4816,-3.7755,0.0,0.0,0.0,0.0,0.0,0.0,0.0,0.0,0.0,0.0,0.0,0.0,0.0,0.0,0.0,0.0,0.0,0.0,0.0,0.0,0.0,0.0,0.0,0.0,0.0,0.0,0.0,0.0,0.0,-6.9798,-6.9798,-6.9798,-6.9156,-6.7971,-6.7567,-6.5866,-6.3044,-6.2844,-6.2409,-6.1523,-6.1523,-6.1054,-6.0177,-5.9713,-5.9045,-5.8261,-5.7739,-5.7448,-5.7303,-5.7303,-5.7303,-5.7303,-5.7303,-5.7303,-5.7303,-5.7303,-5.6897,-5.6403,-5.6403,-5.5649,-5.472,-5.472,-5.4255,-5.3791,-5.3907,-5.3849,-5.3704,-5.3559,-5.35,-5.35,-5.35,-5.35,-5.3559,-5.3704,-5.3733,-5.3791,-5.3936,-5.4176,-5.4253,-5.4253,-5.4462,-5.4923,-5.602,-5.6213,-5.6392,-5.69,-5.7613,-5.7716,-5.7064,-5.7583,-5.8187,-5.8441,-5.8675,-5.8837,-5.8991,-5.8837,-5.9386,-6.0671,-6.0702,-6.1252,-6.2414,-6.2446,-6.2509,-6.2667,-6.3204,-6.3552,-6.3742,-6.4437,-6.4753,-3.4014,-3.6373,-3.8606,-4.0734,0.0,0.0,0.0,0.0,0.0,0.0,0.0,0.0,0.0,0.0,0.0,0.0,0.0,0.0,0.0,0.0,0.0,0.0,0.0,0.0,0.0,0.0,0.0,0.0,0.0,0.0,0.0,0.0,0.0,-6.9798,-6.9798,-6.9478,-6.8896,-6.8896,-6.7362,-6.4562,-6.4066,-6.3304,-6.2409,-6.2409,-6.1586,-6.0206,-6.0148,-5.9451,-5.829,-5.8261,-5.7855,-5.7303,-5.7303,-5.7303,-5.7303,-5.7303,-5.7303,-5.7303,-5.7303,-5.6897,-5.6403,-5.6403,-5.5939,-5.5358,-5.5358,-5.4923,-5.4546,-5.5126,-5.4865,-5.4284,-5.3675,-5.35,-5.35,-5.35,-5.35,-5.3675,-5.4313,-5.4458,-5.4604,-5.5155,-5.5889,-5.6496,-5.6496,-5.7152,-5.7698,-5.783,-5.783,-5.7861,-5.7922,-5.7922,-5.8024,-5.7922,-5.7922,-5.8573,-5.9928,-6.0689,-6.1397,-6.2027,-6.146,-6.1526,-6.2221,-6.2252,-6.2284,-6.2446,-6.2446,-6.2762,-6.3394,-6.3457,-6.3805,-6.4468,-6.5164,-6.548,-3.2519,-3.5479,-3.8725,-4.0878,0.0,0.0,0.0,0.0,0.0,0.0,0.0,0.0,0.0,0.0,0.0,0.0,0.0,0.0,0.0,0.0,0.0,0.0,0.0,0.0,0.0,0.0,0.0,0.0,0.0,0.0,0.0,0.0,0.0,-6.9798,-6.9798,-6.9703,-6.9478,-6.9188,-6.8468,-6.7362,-6.5897,-6.4703,-6.3811,-6.2959,-6.2144,-6.1557,-6.0588,-5.9916,-5.9422,-5.8639,-5.8145,-5.7884,-5.7477,-5.7303,-5.7303,-5.7303,-5.7303,-5.7303,-5.7303,-5.7158,-5.6955,-5.6955,-5.6549,-5.6026,-5.6026,-5.5591,-5.5126,-5.5358,-5.5242,-5.501,-5.4749,-5.4691,-5.4691,-5.4691,-5.4691,-5.4749,-5.501,-5.5068,-5.5126,-5.5358,-5.5713,-5.6006,-5.6644,-5.696,-5.7734,-5.9184,-5.9347,-5.9501,-5.9932,-6.04,-6.0501,-6.0095,-6.04,-6.0927,-6.1508,-6.1838,-6.2161,-6.2414,-6.2193,-6.2161,-6.2414,-6.2446,-6.2446,-6.2446,-6.2857,-6.3204,-6.3489,-6.4374,-6.4911,-6.5195,-6.589,-6.6207,-3.2254,-3.5346,-3.9023,0.0,0.0,0.0,0.0,0.0,0.0,0.0,0.0,0.0,0.0,0.0,0.0,0.0,0.0,0.0,0.0,0.0,0.0,0.0,0.0,0.0,0.0,0.0,0.0,0.0,0.0,0.0,0.0,0.0,0.0,0.0,-6.9798,-6.9798,-6.9798,-6.9415,-6.9285,-6.9188,-6.7733,-6.6428,-6.5328,-6.434,-6.3585,-6.3129,-6.2106,-6.1377,-6.0909,-5.9592,-5.8577,-5.7942,-5.7477,-5.7303,-5.7303,-5.7303,-5.7303,-5.7303,-5.7303,-5.7303,-5.7303,-5.7303,-5.7013,-5.6694,-5.6694,-5.6229,-5.5765,-5.5968,-5.5881,-5.5765,-5.5968,-5.5707,-5.5416,-5.5416,-5.5416,-5.5474,-5.5678,-5.5925,-5.6201,-5.6406,-5.6839,-5.7375,-5.7978,-5.8291,-5.9093,-6.0602,-6.0896,-6.1052,-6.152,-6.2016,-6.2216,-6.1582,-6.2116,-6.2446,-6.2446,-6.2446,-6.2446,-6.2446,-6.2635,-6.2667,-6.2446,-6.2446,-6.2541,-6.2762,-6.3236,-6.371,-6.4152,-6.51,-6.5701,-6.5922,-6.6396,-6.6617,-3.3881,-3.6473,0.0,0.0,0.0,0.0,0.0,0.0,0.0,0.0,0.0,0.0,0.0,0.0,0.0,0.0,0.0,0.0,0.0,0.0,0.0,0.0,0.0,0.0,0.0,0.0,0.0,0.0,0.0,0.0,0.0,0.0,0.0,0.0,-6.9798,-6.9798,-6.9798,-6.9798,-6.9798,-6.9798,-6.9285,-6.8236,-6.6815,-6.6815,-6.6079,-6.4672,-6.4672,-6.4003,-6.2839,-6.1283,-5.9345,-5.7303,-5.7303,-5.7303,-5.7303,-5.7303,-5.7303,-5.7303,-5.7303,-5.7303,-5.7303,-5.7303,-5.7303,-5.7303,-5.7303,-5.6897,-5.6549,-5.7129,-5.6868,-5.6549,-5.7158,-5.6374,-5.5416,-5.5416,-5.5416,-5.562,-5.6287,-5.7143,-5.7862,-5.8486,-6.0,-6.1175,-6.1175,-6.1916,-6.2414,-6.2446,-6.2446,-6.2446,-6.2446,-6.2446,-6.2446,-6.2446,-6.2446,-6.2446,-6.2446,-6.2446,-6.2446,-6.2446,-6.311,-6.3173,-6.2477,-6.2446,-6.2762,-6.3489,-6.3489,-6.4184,-6.5574,-6.5574,-6.5922,-6.6617,-6.6617,-6.6617,-3.347,0.0,0.0,0.0,0.0,0.0,0.0,0.0,0.0,0.0,0.0,0.0,0.0,0.0,0.0,0.0,0.0,0.0,0.0,0.0,0.0,0.0,0.0,0.0,0.0,0.0,0.0,0.0,0.0,0.0,0.0,0.0,0.0,0.0,-6.9798,-6.9798,-6.9798,-6.9798,-6.9798,-6.9798,-6.9607,-6.9188,-6.8336,-6.726,-6.6606,-6.6079,-6.5111,-6.447,-6.4003,-6.2213,-6.0566,-5.9147,-5.9147,-5.9147,-5.9039,-5.8386,-5.8166,-5.8085,-5.7528,-5.7303,-5.7303,-5.7303,-5.7303,-5.7303,-5.7303,-5.7187,-5.7071,-5.7245,-5.7187,-5.7183,-5.8026,-5.7459,-5.6752,-5.6752,-5.6752,-5.7003,-5.7761,-5.8119,-5.8614,-5.9332,-5.9895,-6.042,-6.1072,-6.1379,-6.1714,-6.2315,-6.2446,-6.2446,-6.2446,-6.2446,-6.2446,-6.2446,-6.2446,-6.2446,-6.2446,-6.2888,-6.3173,-6.3173,-6.3836,-6.39,-6.3204,-6.3647,-6.3994,-6.4216,-6.469,-6.5164,-6.5574,-6.6048,-6.6396,-6.6617,-6.6617,-6.6617,-3.6506,0.0,0.0,0.0,0.0,0.0,0.0,0.0,0.0,0.0,0.0,0.0,0.0,0.0,0.0,0.0,0.0,0.0,0.0,0.0,0.0,0.0,0.0,0.0,0.0,0.0,0.0,0.0,0.0,0.0,0.0,0.0,0.0,0.0,-6.9798,-6.9798,-6.9798,-6.9798,-6.9798,-6.9798,-6.9798,-6.9607,-6.9285,-6.8436,-6.7903,-6.7599,-6.6322,-6.5156,-6.4058,-6.2856,-6.1401,-5.9895,-5.9895,-5.9895,-5.9789,-5.9255,-5.9147,-5.9039,-5.8495,-5.8386,-5.8276,-5.7974,-5.8055,-5.8276,-5.7944,-5.8055,-5.8386,-5.8386,-5.8386,-5.8495,-5.8931,-5.8714,-5.8386,-5.8386,-5.8055,-5.8085,-5.8931,-5.9362,-5.9789,-6.0316,-6.0628,-6.1072,-6.1582,-6.1683,-6.1815,-6.2315,-6.2446,-6.2446,-6.2446,-6.2446,-6.2446,-6.2446,-6.2667,-6.2857,-6.2857,-6.3489,-6.39,-6.39,-6.4563,-6.4753,-6.4342,-6.4437,-6.4658,-6.4942,-6.5353,-6.5701,-6.5985,-6.6396,-6.6617,-6.6617,-6.6617,-6.6617,0.0,0.0,0.0,0.0,0.0,0.0,0.0,0.0,0.0,0.0,0.0,0.0,0.0,0.0,0.0,0.0,0.0,0.0,0.0,0.0,0.0,0.0,0.0,0.0,0.0,0.0,0.0,0.0,0.0,0.0,0.0,0.0,0.0,-6.9798,-6.9798,-6.9798,-6.9798,-6.9798,-6.9798,0.0,-6.9798,-6.9798,-6.9798,-6.9798,-6.9511,-6.8896,-6.7899,-6.594,-6.3369,-6.3369,-6.2038,-6.0106,-6.0106,-6.0106,-6.0106,-6.0,-6.0,-6.0,-5.9895,-5.9895,-5.9789,-5.8931,-5.9255,-5.9789,-5.8931,-5.9255,-5.9895,-5.9895,-5.9895,-5.9895,-6.0,-6.0,-5.9895,-6.0106,-5.9362,-5.8931,-5.9789,-6.0628,-6.1175,-6.1277,-6.1916,-6.2446,-6.2446,-6.2446,-6.2446,-6.2446,-6.2446,-6.2446,-6.2446,-6.2446,-6.2446,-6.2509,-6.311,-6.352,-6.3584,-6.4216,-6.4626,-6.4626,-6.529,-6.5669,-6.5669,-6.5037,-6.5006,-6.5638,-6.5669,-6.5985,-6.6617,-6.6617,-6.6617,-6.6617,-6.6617,-6.6617,0.0,0.0,0.0,0.0,0.0,0.0,0.0,0.0,0.0,0.0,0.0,0.0,0.0,0.0,0.0,0.0,0.0,0.0,0.0,0.0,0.0,0.0,0.0,0.0,0.0,0.0,0.0,0.0,0.0,0.0,0.0,0.0,0.0,-6.9798,-6.9798,-6.9798,-6.9798,-6.9798,-6.9798,0.0,-6.9798,-6.9798,-6.9798,-6.9798,-6.9511,-6.8994,-6.8301,-6.6791,-6.4875,-6.4366,-6.3272,-6.1916,-6.1916,-6.1916,-6.1784,-6.1175,-6.0969,-6.0835,-6.0106,-5.9895,-5.9895,-5.9683,-5.9789,-5.9895,-5.9683,-5.9789,-5.9895,-5.9895,-5.9895,-6.0106,-6.0732,-6.042,-6.0211,-6.1582,-6.0732,-5.9895,-6.0732,-6.1072,-6.1379,-6.2016,-6.2315,-6.2446,-6.2446,-6.2446,-6.2446,-6.2446,-6.2446,-6.2446,-6.2446,-6.2446,-6.2635,-6.3204,-6.3394,-6.371,-6.4247,-6.4942,-6.5353,-6.5353,-6.5985,-6.6396,-6.6396,-6.6238,-6.6238,-6.6396,-6.6396,-6.6459,-6.6617,-6.6617,-6.6617,-6.6617,-6.6617,-6.6617,0.0,0.0,0.0,0.0,0.0,0.0,0.0,0.0,0.0,0.0,0.0,0.0,0.0,0.0,0.0,0.0,0.0,0.0,0.0,0.0,0.0,0.0,0.0,0.0,0.0,0.0,0.0,0.0,0.0,0.0,0.0,-6.9069,-6.9268,-6.9268,-6.9599,-6.9798,-6.9798,-6.9798,-6.9798,-6.9798,-6.9798,-6.9798,-6.9798,-6.9798,-6.9511,-6.8994,-6.8699,-6.7491,-6.5705,-6.5408,-6.4476,-6.3068,-6.3068,-6.2971,-6.271,-6.2284,-6.1985,-6.1683,-6.1277,-6.1072,-6.1072,-6.0628,-6.0732,-6.1072,-6.0628,-6.0732,-6.1072,-6.1072,-6.1072,-6.1175,-6.1683,-6.1481,-6.1277,-6.2216,-6.1481,-6.0732,-6.1582,-6.1784,-6.1916,-6.2315,-6.2446,-6.2446,-6.2446,-6.2612,-6.271,-6.2414,-6.2612,-6.2808,-6.2808,-6.3094,-6.3542,-6.4188,-6.486,-6.5404,-6.5756,-6.6154,-6.6568,-6.6876,-6.6887,-6.7109,-6.742,-6.742,-6.7109,-6.6617,-6.6617,-6.6617,-6.6617,-6.6901,-6.6796,-6.6617,-6.7109,-6.7109,0.0,0.0,0.0,0.0,0.0,0.0,0.0,0.0,0.0,0.0,0.0,0.0,0.0,0.0,0.0,0.0,0.0,0.0,0.0,0.0,0.0,0.0,0.0,0.0,0.0,0.0,0.0,0.0,0.0,0.0,-6.7612,-6.8175,-6.8506,-6.8506,-6.9235,-6.9599,-6.9599,-6.9732,-6.9798,-6.9798,-6.9798,-6.9798,-6.9798,-6.9798,-6.9607,-6.9091,-6.8994,-6.8079,-6.6388,-6.6161,-6.5319,-6.4088,-6.3959,-6.3611,-6.326,-6.326,-6.3002,-6.2612,-6.2414,-6.2414,-6.2414,-6.1784,-6.1985,-6.2414,-6.1885,-6.2085,-6.271,-6.271,-6.271,-6.271,-6.271,-6.271,-6.271,-6.271,-6.2184,-6.1885,-6.2414,-6.2612,-6.271,-6.271,-6.271,-6.271,-6.271,-6.2971,-6.3196,-6.2868,-6.3163,-6.3453,-6.371,-6.4127,-6.4707,-6.5319,-6.642,-6.7296,-6.7327,-6.7475,-6.7695,-6.8201,-6.7797,-6.7695,-6.8201,-6.8201,-6.7797,-6.6901,-6.6901,-6.6901,-6.6901,-6.7317,-6.7317,-6.6901,-6.7797,-6.7695,0.0,0.0,0.0,0.0,0.0,0.0,0.0,0.0,0.0,0.0,0.0,0.0,0.0,0.0,0.0,0.0,0.0,0.0,0.0,0.0,0.0,0.0,0.0,0.0,0.0,0.0,0.0,0.0,0.0,0.0,-6.7612,-6.7711,-6.7777,-6.7777,-6.8473,-6.8837,-6.8837,-6.9467,-6.9798,-6.9798,-6.9798,-6.9798,-6.9798,-6.9798,-6.9798,-6.9703,-6.9188,-6.8535,-6.7685,-6.655,-6.561,-6.4768,-6.4153,-6.3894,-6.3705,-6.3357,-6.3452,-6.3548,-6.271,-6.271,-6.3068,-6.2971,-6.2971,-6.3164,-6.342,-6.3611,-6.3705,-6.3705,-6.3705,-6.3705,-6.3705,-6.3705,-6.3705,-6.3705,-6.3611,-6.342,-6.3164,-6.3452,-6.3705,-6.3705,-6.3705,-6.3705,-6.3705,-6.3705,-6.4026,-6.4545,-6.422,-6.4253,-6.5514,-6.5223,-6.5448,-6.6711,-6.7134,-6.7392,-6.8007,-6.8036,-6.8101,-6.8201,-6.8101,-6.8101,-6.8201,-6.8201,-6.8101,-6.8,-6.8,-6.8,-6.8,-6.8101,-6.8101,-6.8,-6.8101,-6.8101,0.0,0.0,0.0,0.0,0.0,0.0,0.0,0.0,0.0,0.0,0.0,0.0,0.0,0.0,0.0,0.0,0.0,0.0,0.0,0.0,0.0,0.0,0.0,0.0,0.0,0.0,0.0,0.0,0.0,-6.6055,-6.6353,-6.6784,-6.7016,-6.7016,-6.7711,-6.8274,-6.8672,-6.9003,-6.9368,-6.9798,-6.9798,-6.9798,-6.9798,-6.9798,-6.9798,-6.9798,-6.9574,-6.9082,-6.8262,-6.7349,-6.6532,-6.5778,-6.5023,-6.4577,-6.43,-6.4114,-6.402,-6.38,-6.3357,-6.3357,-6.3643,-6.3643,-6.3643,-6.3611,-6.38,-6.3894,-6.3894,-6.3894,-6.3894,-6.3894,-6.3894,-6.3894,-6.38,-6.3643,-6.402,-6.4463,-6.4606,-6.4283,-6.3894,-6.3894,-6.4218,-6.4509,-6.4509,-6.5151,-6.5636,-6.5642,-6.5606,-6.5861,-6.6481,-6.6644,-6.7033,-6.7943,-6.8369,-6.8763,-6.9058,-6.8797,-6.8797,-6.9091,-6.8797,-6.8797,-6.9091,-6.9091,-6.9091,-6.9091,-6.8501,-6.8201,-6.8201,-6.8501,-6.8501,-6.8201,-6.8797,-6.8797,0.0,0.0,0.0,0.0,0.0,0.0,0.0,0.0,0.0,0.0,0.0,0.0,0.0,0.0,0.0,0.0,0.0,0.0,0.0,0.0,0.0,0.0,0.0,0.0,0.0,0.0,0.0,0.0,0.0,-6.5425,-6.5425,-6.5922,-6.6254,-6.6254,-6.6949,-6.7612,-6.8142,-6.8506,-6.897,-6.95,-6.9699,-6.9798,-6.9798,-6.9798,-6.9798,-6.9798,-6.9798,-6.9467,-6.8904,-6.8208,-6.7446,-6.6717,-6.5989,-6.5321,-6.4885,-6.4793,-6.4485,-6.4268,-6.3988,-6.3988,-6.4081,-6.4081,-6.4081,-6.4114,-6.4268,-6.4268,-6.4268,-6.4268,-6.4431,-6.4561,-6.4561,-6.4691,-6.4728,-6.4572,-6.4948,-6.5575,-6.5914,-6.54,-6.4821,-6.4821,-6.5277,-6.5636,-6.5636,-6.6504,-6.7024,-6.6807,-6.6962,-6.7184,-6.7579,-6.794,-6.8394,-6.8937,-6.9467,-6.9798,-6.9798,-6.9382,-6.9382,-6.9798,-6.9382,-6.9382,-6.9798,-6.9798,-6.9798,-6.9798,-6.8994,-6.86,-6.86,-6.8994,-6.8994,-6.86,-6.9382,-6.9382,0.0,0.0,0.0,0.0,0.0,0.0,0.0,0.0,0.0,0.0,0.0,0.0,0.0,0.0,0.0,0.0,0.0,0.0,0.0,0.0,0.0,0.0,0.0,0.0,0.0,0.0,0.0,0.0,0.0,-6.5425,-6.5425,-6.5459,-6.5492,-6.5492,-6.6187,-6.6585,-6.6618,-6.8009,-6.8705,-6.8771,-6.9467,-6.9798,-6.9798,-6.9798,-6.9798,-6.9798,-6.9798,-6.9765,-6.9666,-6.8937,-6.8208,-6.7512,-6.6751,-6.6022,-6.5336,-6.4885,-6.4943,-6.5213,-6.4268,-6.4207,-6.4702,-6.4702,-6.4702,-6.4793,-6.5246,-6.5303,-6.5303,-6.5303,-6.5832,-6.6362,-6.6362,-6.6891,-6.742,-6.742,-6.742,-6.7255,-6.6593,-6.6957,-6.742,-6.742,-6.7453,-6.7453,-6.7453,-6.7519,-6.7751,-6.8446,-6.795,-6.8049,-6.95,-6.9103,-6.897,-6.9666,-6.9765,-6.9798,-6.9798,-6.9798,-6.9798,-6.9798,-6.9798,-6.9798,-6.9798,-6.9798,-6.9798,-6.9798,-6.9798,-6.9703,-6.9703,-6.9798,-6.9798,-6.9703,-6.9798,-6.9798,0.0,0.0,0.0,0.0,0.0,0.0,0.0,0.0,0.0,0.0,0.0,0.0,0.0,0.0,0.0,0.0,0.0,0.0,0.0,0.0,0.0,0.0,0.0,0.0,0.0,0.0,0.0,0.0,0.0,0.0,-6.5425,-6.5425,-6.5425,-6.5425,-6.5657,-6.6254,-6.7214,-6.8208,-6.8937,-6.9401,-6.9666,-6.9798,-6.9798,-6.9798,-6.9798,-6.9798,-6.9798,-6.9798,-6.9732,-6.9003,-6.8539,-6.8175,-6.6982,-6.6651,-6.6784,-6.6105,-6.594,-6.6097,-6.6285,-6.6061,-6.5915,-6.641,-6.6542,-6.6542,-6.6759,-6.6485,-6.622,-6.6684,-6.6684,-6.6618,-6.7115,-6.7413,-6.7612,-6.7612,-6.8341,-6.8804,-6.8076,-6.7777,-6.7612,-6.7612,-6.8009,-6.8307,-6.8307,-6.8705,-6.9103,-6.9368,-6.9169,-6.9202,-6.9732,-6.9566,-6.95,-6.9765,-6.9798,-6.9798,-6.9798,-6.9798,-6.9798,-6.9798,-6.9798,-6.9798,-6.9798,-6.9798,-6.9798,-6.9798,-6.9798,-6.9798,-6.9798,-6.9798,-6.9798,-6.9798,-6.9798,-6.9798,0.0,0.0,0.0,0.0,0.0,0.0,0.0,0.0,0.0,0.0,0.0,0.0,0.0,0.0,0.0,0.0,0.0,0.0,0.0,0.0,0.0,0.0,0.0,0.0,0.0,0.0,0.0,0.0,0.0,0.0,-6.5425,-6.5425,-6.5425,-6.5425,-6.5425,-6.5889,-6.6883,-6.7844,-6.844,-6.8705,-6.9434,-6.9666,-6.9434,-6.9666,-6.9798,-6.9798,-6.9798,-6.9798,-6.9765,-6.9268,-6.8904,-6.8572,-6.7612,-6.7413,-6.7579,-6.7082,-6.6883,-6.6949,-6.7446,-6.7314,-6.6982,-6.7479,-6.7612,-6.7612,-6.7612,-6.7281,-6.6982,-6.7479,-6.7446,-6.7347,-6.7844,-6.8175,-6.8341,-6.8341,-6.9103,-6.9666,-6.9169,-6.8672,-6.8341,-6.8341,-6.8738,-6.9069,-6.9069,-6.9467,-6.9798,-6.9798,-6.9798,-6.9798,-6.9798,-6.9798,-6.9798,-6.9798,-6.9798,-6.9798,-6.9798,-6.9798,-6.9798,-6.9798,-6.9798,-6.9798,-6.9798,-6.9798,-6.9798,-6.9798,-6.9798,-6.9798,-6.9798,-6.9798,-6.9798,-6.9798,-6.9798,-6.9798,0.0,0.0,0.0,0.0,0.0,0.0,0.0,0.0,0.0,0.0,0.0,0.0,0.0,0.0,0.0,0.0,0.0,0.0,0.0,0.0,0.0,0.0,0.0,0.0,0.0,0.0,0.0,0.0,0.0,-6.5392,-6.5425,-6.5425,-6.5425,-6.5425,-6.5425,-6.5425,-6.5459,-6.6883,-6.7247,-6.6585,-6.8738,-6.9368,-6.8705,-6.9467,-6.9798,-6.9798,-6.9798,-6.9798,-6.9798,-6.9798,-6.9368,-6.8705,-6.8705,-6.8274,-6.7678,-6.7678,-6.7645,-6.7678,-6.7678,-6.7678,-6.7678,-6.7678,-6.7678,-6.7678,-6.7678,-6.7678,-6.7678,-6.7678,-6.8175,-6.8705,-6.8705,-6.9235,-6.9798,-6.9798,-6.9798,-6.9798,-6.9798,-6.9798,-6.9798,-6.9798,-6.9798,-6.9798,-6.9798,-6.9798,-6.9798,-6.9798,-6.9798,-6.9798,-6.9798,-6.9798,-6.9798,-6.9798,-6.9798,-6.9798,-6.9798,-6.9798,-6.9798,-6.9798,-6.9798,-6.9798,-6.9798,-6.9798,-6.9798,-6.9798,-6.9798,-6.9798,-6.9798,-6.9798,-6.9798,-6.9798,-6.9798,-6.9798,-3.051,0.0,0.0,0.0,0.0,0.0,0.0,0.0,0.0,0.0,0.0,0.0,0.0,0.0,0.0,0.0,0.0,0.0,0.0,0.0,0.0,0.0,0.0,0.0,0.0,0.0,0.0,0.0,-6.4564,-6.4895,-6.5392,-6.5425,-6.5425,-6.5425,-6.5425,-6.5657,-6.622,-6.6618,-6.6982,-6.7347,-6.8473,-6.8904,-6.8705,-6.9467,-6.9798,-6.9798,-6.9798,-6.9798,-6.9798,-6.9798,-6.9666,-6.9434,-6.8904,-6.8904,-6.9136,-6.8606,-6.8407,-6.8473,-6.9003,-6.8837,-6.8473,-6.9036,-6.9202,-6.9202,-6.9202,-6.8804,-6.8506,-6.9036,-6.8937,-6.8804,-6.9334,-6.9633,-6.9798,-6.9798,-6.9798,-6.9798,-6.9798,-6.9798,-6.9798,-6.9798,-6.9798,-6.9798,-6.9798,-6.9798,-6.9798,-6.9798,-6.9798,-6.9798,-6.9798,-6.9798,-6.9798,-6.9798,-6.9798,-6.9798,-6.9798,-6.9798,-6.9798,-6.9798,-6.9798,-6.9798,-6.9798,-6.9798,-6.9798,-6.9798,-6.9798,-6.9798,-6.9798,-6.9798,-6.9798,-6.9798,-6.9798,-6.9798,0.0,0.0,0.0,0.0,0.0,0.0,0.0,0.0,0.0,0.0,0.0,0.0,0.0,0.0,0.0,0.0,0.0,0.0,0.0,0.0,0.0,0.0,0.0,0.0,0.0,0.0,0.0,-6.3438,-6.3736,-6.4233,-6.4929,-6.5227,-6.5425,-6.5425,-6.5425,-6.5624,-6.6055,-6.6353,-6.6751,-6.7181,-6.791,-6.8407,-6.8705,-6.9136,-6.95,-6.9798,-6.9798,-6.9798,-6.9798,-6.9798,-6.9798,-6.9765,-6.9334,-6.9401,-6.9732,-6.9301,-6.9136,-6.9202,-6.9633,-6.95,-6.9235,-6.9666,-6.9798,-6.9798,-6.9798,-6.95,-6.9235,-6.9666,-6.9467,-6.9235,-6.9666,-6.9798,-6.9798,-6.9798,-6.9798,-6.9798,-6.9798,-6.9798,-6.9798,-6.9798,-6.9798,-6.9798,-6.9798,-6.9798,-6.9798,-6.9798,-6.9798,-6.9798,-6.9798,-6.9798,-6.9798,-6.9798,-6.9798,-6.9798,-6.9798,-6.9798,-6.9798,-6.9798,-6.9798,-6.9798,-6.9798,-6.9798,-6.9798,-6.9798,-6.9798,-6.9798,-6.9798,-6.9798,-6.9798,-6.9798,-6.9798,-6.9798,-3.5909,-3.6638,0.0,0.0,0.0,0.0,-4.2767,-4.1972,0.0,0.0,0.0,0.0,0.0,0.0,0.0,0.0,0.0,0.0,0.0,0.0,0.0,0.0,0.0,0.0,0.0,-6.155,-6.198,-6.2146,-6.2842,-6.357,-6.4266,-6.4929,-6.5326,-6.5425,-6.5425,-6.5425,-6.5425,-6.6055,-6.6386,-6.6419,-6.7148,-6.7844,-6.844,-6.8606,-6.9036,-6.9666,-6.9765,-6.9798,-6.9798,-6.9798,-6.9798,-6.9798,-6.9798,-6.9798,-6.9798,-6.9798,-6.9798,-6.9798,-6.9798,-6.9798,-6.9798,-6.9798,-6.9798,-6.9798,-6.9798,-6.9798,-6.9798,-6.9798,-6.9798,-6.9798,-6.9798,-6.9798,-6.9798,-6.9798,-6.9798,-6.9798,-6.9798,-6.9798,-6.9798,-6.9798,-6.9798,-6.9798,-6.9798,-6.9798,-6.9798,-6.9798,-6.9798,-6.9798,-6.9798,-6.9798,-6.9798,-6.9798,-6.9798,-6.9798,-6.9798,-6.9798,-6.9798,-6.9798,-6.9798,-6.9798,-6.9798,-6.9798,-6.9798,-6.9798,-6.9798,-6.9798,-6.9798,-6.9798,-6.9798,-6.9798,-6.9798,-6.9798,-3.9686,-4.0812,-4.1939,-4.015,0.0,0.0,-3.9123,-3.9056,0.0,0.0,0.0,0.0,0.0,0.0,0.0,0.0,0.0,0.0,0.0,0.0,0.0,0.0,0.0,0.0,0.0,-6.0357,-6.092,-6.208,-6.2842,-6.3603,-6.4332,-6.4498,-6.4829,-6.5392,-6.5425,-6.5425,-6.5425,-6.5558,-6.5624,-6.5624,-6.6386,-6.6817,-6.6982,-6.8142,-6.8771,-6.8937,-6.9533,-6.9798,-6.9798,-6.9798,-6.9798,-6.9798,-6.9798,-6.9798,-6.9798,-6.9798,-6.9798,-6.9798,-6.9798,-6.9798,-6.9798,-6.9798,-6.9798,-6.9798,-6.9798,-6.9798,-6.9798,-6.9798,-6.9798,-6.9798,-6.9798,-6.9798,-6.9798,-6.9798,-6.9798,-6.9798,-6.9798,-6.9798,-6.9798,-6.9798,-6.9798,-6.9798,-6.9798,-6.9798,-6.9798,-6.9798,-6.9798,-6.9798,-6.9798,-6.9798,-6.9798,-6.9798,-6.9798,-6.9798,-6.9798,-6.9798,-6.9798,-6.9798,-6.9798,-6.9798,-6.9798,-6.9798,-6.9798,-6.9798,-6.9798,-6.9798,-6.9798,-6.9798,-6.9798,-6.9798,-6.9798,-6.9798,-4.3032,-4.3595,-4.4357,-4.2899,0.0,0.0,0.0,0.0,0.0,0.0,0.0,0.0,0.0,0.0,0.0,0.0,0.0,0.0,0.0,0.0,0.0,0.0,0.0,0.0,0.0,-5.8899,-5.9496,-6.0986,-6.1781,-6.251,-6.3239,-6.3968,-6.4531,-6.4895,-6.5227,-6.5425,-6.5425,-6.5425,-6.5591,-6.5955,-6.5955,-6.6353,-6.7082,-6.7446,-6.8009,-6.8705,-6.9069,-6.9434,-6.9798,-6.9798,-6.9798,-6.9798,-6.9798,-6.9798,-6.9798,-6.9798,-6.9798,-6.9798,-6.9798,-6.9798,-6.9798,-6.9798,-6.9798,-6.9798,-6.9798,-6.9798,-6.9798,-6.9798,-6.9798,-6.9798,-6.9798,-6.9798,-6.9798,-6.9798,-6.9798,-6.9798,-6.9798,-6.9798,-6.9798,-6.9798,-6.9798,-6.9798,-6.9798,-6.9798,-6.9798,-6.9798,-6.9798,-6.9798,-6.9798,-6.9798,-6.9798,-6.9798,-6.9798,-6.9798,-6.9798,-6.9798,-6.9798,-6.9798,-6.9798,-6.9798,-6.9798,-6.9798,-6.9798,-6.9798,-6.9798,-6.9798,-6.9798,-6.9798,-6.9798,-6.9798,-6.9798,-6.9798,0.0,0.0,0.0,0.0,0.0,-4.4522,0.0,0.0,0.0,-4.3131,0.0,0.0,0.0,0.0,0.0,0.0,0.0,0.0,0.0,0.0,0.0,0.0,0.0,0.0,0.0,-5.6945,-5.7674,-5.9429,-5.986,-6.0622,-6.1881,-6.3239,-6.41,-6.4365,-6.4929,-6.5293,-6.5425,-6.5425,-6.5724,-6.6287,-6.569,-6.6055,-6.7181,-6.6717,-6.7247,-6.8506,-6.8639,-6.9103,-6.9798,-6.9798,-6.9798,-6.9798,-6.9798,-6.9798,-6.9798,-6.9798,-6.9798,-6.9798,-6.9798,-6.9798,-6.9798,-6.9798,-6.9798,-6.9798,-6.9798,-6.9798,-6.9798,-6.9798,-6.9798,-6.9798,-6.9798,-6.9798,-6.9798,-6.9798,-6.9798,-6.9798,-6.9798,-6.9798,-6.9798,-6.9798,-6.9798,-6.9798,-6.9798,-6.9798,-6.9798,-6.9798,-6.9798,-6.9798,-6.9798,-6.9798,-6.9798,-6.9798,-6.9798,-6.9798,-6.9798,-6.9798,-6.9798,-6.9798,-6.9798,-6.9798,-6.9798,-6.9798,-6.9798,-6.9798,-6.9798,-6.9798,-6.9798,-6.9798,-6.9798,-6.9798,-6.9798,-6.9798,0.0,0.0,0.0,0.0,-4.7173,0.0,0.0,0.0,-4.1707,-4.0216,0.0,0.0,0.0,0.0,0.0,0.0,0.0,0.0,0.0,0.0,0.0,0.0,0.0,0.0,0.0,0.0,-5.5057,-5.7839,-5.6945,-5.7707,-6.1053,-6.198,-6.304,-6.4332,-6.4465,-6.4796,-6.5392,-6.5425,-6.5459,-6.5525,-6.5459,-6.5492,-6.569,-6.6254,-6.6982,-6.7777,-6.8407,-6.9103,-6.9798,-6.9798,-6.9798,-6.9798,-6.9798,-6.9798,-6.9798,-6.9798,-6.9798,-6.9798,-6.9798,-6.9798,-6.9798,-6.9798,-6.9798,-6.9798,-6.9798,-6.9798,-6.9798,-6.9798,-6.9798,-6.9798,-6.9798,-6.9798,-6.9798,-6.9798,-6.9798,-6.9798,-6.9798,-6.9798,-6.9798,-6.9798,-6.9798,-6.9798,-6.9798,-6.9798,-6.9798,-6.9798,-6.9798,-6.9798,-6.9798,-6.9798,-6.9798,-6.9798,-6.9798,-6.9798,-6.9798,-6.9798,-6.9798,-6.9798,-6.9798,-6.9798,-6.9798,-6.9798,-6.9798,-6.9798,-6.9798,-6.9798,-6.9798,-6.9798,-6.9798,-6.9798,-6.9798,-6.9798,0.0,0.0,0.0,0.0,0.0,0.0,-4.3429,0.0,-4.2104,0.0,0.0,0.0,0.0,0.0,0.0,0.0,0.0,0.0,0.0,0.0,0.0,0.0,0.0,0.0,0.0,0.0,0.0,0.0,0.0,-5.5521,-5.9595,-6.0523,-6.1781,-6.367,-6.4167,-6.473,-6.5392,-6.5425,-6.5425,-6.5425,-6.5425,-6.5425,-6.5425,-6.5724,-6.6519,-6.7645,-6.7943,-6.8738,-6.9798,-6.9798,-6.9798,-6.9798,-6.9798,-6.9798,-6.9798,-6.9798,-6.9798,-6.9798,-6.9798,-6.9798,-6.9798,-6.9798,-6.9798,-6.9798,-6.9798,-6.9798,-6.9798,-6.9798,-6.9798,-6.9798,-6.9798,-6.9798,-6.9798,-6.9798,-6.9798,-6.9798,-6.9798,-6.9798,-6.9798,-6.9798,-6.9798,-6.9798,-6.9798,-6.9798,-6.9798,-6.9798,-6.9798,-6.9798,-6.9798,-6.9798,-6.9798,-6.9798,-6.9798,-6.9798,-6.9798,-6.9798,-6.9798,-6.9798,-6.9798,-6.9798,-6.9798,-6.9798,-6.9798,-6.9798,-7.0203,-7.0389,-7.0389,-7.0849,-7.103,-7.103,-7.0143,-6.9798,-5.1479,0.0,0.0,0.0,0.0,0.0,0.0,0.0,0.0,0.0,0.0,0.0,0.0,0.0,0.0,0.0,0.0,0.0,0.0,0.0,0.0,0.0,0.0,0.0,0.0,0.0,0.0,0.0,0.0,0.0,-5.8038,-5.9198,-6.0622,-6.261,-6.3603,-6.4399,-6.5094,-6.5326,-6.5425,-6.5425,-6.5425,-6.5425,-6.5425,-6.5425,-6.6121,-6.7347,-6.7546,-6.8341,-6.95,-6.9699,-6.9798,-6.9798,-6.9798,-6.9798,-6.9798,-6.9798,-6.9798,-6.9798,-6.9798,-6.9798,-6.9798,-6.9798,-6.9798,-6.9798,-6.9798,-6.9798,-6.9798,-6.9798,-6.9798,-6.9798,-6.9798,-6.9798,-6.9798,-6.9798,-6.9798,-6.9798,-6.9798,-6.9798,-6.9798,-6.9798,-6.9798,-6.9798,-6.9798,-6.9798,-6.9798,-6.9798,-6.9798,-6.9798,-6.9798,-6.9798,-6.9798,-6.9798,-6.9798,-6.9798,-6.9798,-6.9798,-6.9893,-7.0049,-6.986,-6.986,-7.0049,-6.986,-6.9798,-6.9798,-7.0482,-7.0781,-7.0781,-7.1532,-7.1917,-7.1917,-7.0849,-7.0423,0.0,0.0,0.0,-4.7305,0.0,0.0,0.0,0.0,-4.4622,0.0,0.0,0.0,0.0,0.0,0.0,0.0,0.0,0.0,0.0,0.0,0.0,0.0,0.0,0.0,0.0,0.0,0.0,0.0,0.0,0.0,-5.6448,-5.8138,-5.9628,-6.1119,-6.2577,-6.3637,-6.4332,-6.5061,-6.5425,-6.5425,-6.5425,-6.5425,-6.5425,-6.5425,-6.5823,-6.6585,-6.7314,-6.8042,-6.8771,-6.95,-6.9798,-6.9798,-6.9798,-6.9798,-6.9798,-6.9798,-6.9798,-6.9798,-6.9798,-6.9798,-6.9798,-6.9798,-6.9798,-6.9798,-6.9798,-6.9798,-6.9798,-6.9798,-6.9798,-6.9798,-6.9798,-6.9798,-6.9798,-6.9798,-6.9798,-6.9798,-6.9798,-6.9798,-6.9798,-6.9798,-6.9798,-6.9798,-6.9798,-6.9798,-6.9798,-6.9798,-6.9798,-6.9798,-6.9798,-6.9798,-6.9798,-6.9798,-6.9798,-6.9798,-6.9798,-6.9798,-7.0049,-7.0724,-7.0143,-7.0143,-7.0724,-7.011,-6.9798,-6.9798,-7.0482,-7.0781,-7.0781,-7.1532,-7.1917,-7.1917,-7.1883,-7.1796,0.0,0.0,-5.5521,-5.0651,0.0,0.0,0.0,0.0,0.0,0.0,0.0,0.0,0.0,0.0,0.0,-4.2767,0.0,0.0,0.0,0.0,0.0,0.0,0.0,0.0,0.0,0.0,0.0,0.0,0.0,0.0,0.0,-5.6647,-5.8336,-6.0324,-6.2278,-6.3637,-6.4365,-6.5061,-6.5425,-6.5425,-6.5425,-6.5425,-6.5425,-6.5425,-6.6088,-6.7281,-6.7512,-6.8307,-6.9434,-6.9699,-6.9798,-6.9893,-7.0296,-7.0448,-7.0389,-6.9955,-6.9798,-6.9798,-6.9798,-6.9798,-6.9798,-6.9798,-6.9798,-6.9798,-6.9798,-6.9798,-6.9798,-6.9798,-6.9798,-6.9798,-6.9798,-6.9798,-6.9798,-6.9798,-6.9798,-6.9798,-6.9798,-6.9798,-6.9798,-6.9798,-6.9798,-6.9798,-6.9798,-6.9798,-6.9798,-6.9798,-6.9798,-6.9798,-6.9798,-6.9798,-6.9798,-6.9798,-6.9798,-6.9798,-6.9798,-7.0203,-7.054,-7.0815,-7.0996,-7.13,-7.1532,-7.13,-7.121,-7.121,-7.1883,-7.2228,-7.2228,-7.2936,-7.3299,-7.3299,-7.3299,-7.2769,-5.7144,-5.7442,0.0,-5.3003,-5.1347,0.0,-4.6278,0.0,0.0,0.0,0.0,0.0,0.0,0.0,0.0,-4.3827,-4.2402,0.0,0.0,0.0,0.0,0.0,0.0,0.0,0.0,0.0,-4.323,-4.6941,0.0,0.0,0.0,0.0,-5.7475,-5.9164,-6.1848,-6.3504,-6.3968,-6.4929,-6.5425,-6.5425,-6.5425,-6.5425,-6.5425,-6.5425,-6.6012,-6.7212,-6.7745,-6.866,-6.9745,-7.0281,-7.0608,-7.0574,-7.0996,-7.1176,-7.1086,-7.0389,-7.0049,-6.9798,-6.9798,-6.9798,-6.9798,-6.9798,-6.9798,-6.9798,-6.9798,-6.9798,-6.9798,-6.9798,-6.9798,-6.9798,-6.9798,-6.9798,-6.9798,-6.9798,-6.9955,-7.0143,-7.0143,-7.0423,-7.0608,-7.0608,-7.0608,-7.0482,-7.0203,-7.0389,-7.0515,-7.0236,-7.0143,-7.0143,-7.0143,-7.0389,-7.033,-6.9893,-7.0049,-7.0049,-6.9798,-7.0356,-7.0906,-7.1176,-7.1654,-7.2004,-7.2262,-7.2004,-7.1917,-7.1917,-7.2602,-7.304,-7.3317,-7.3762,-7.4291,-7.4817,-7.4501,-7.4019]}]]